<?xml version='1.0' encoding='UTF-8'?><gpx version="1.1" creator="JPX - https://github.com/jenetics/jpx" xmlns="http://www.topografix.com/GPX/1/1"><trk><trkseg><trkpt lat="43.4867337" lon="12.093886"><ele>303.0</ele><time>2026-04-23T16:21:46.979Z</time></trkpt><trkpt lat="43.4870289" lon="12.0940837"><ele>303.0</ele><time>2026-04-23T16:21:48.456Z</time></trkpt><trkpt lat="43.4870814" lon="12.0941724"><ele>303.0</ele><time>2026-04-23T16:21:49.954Z</time></trkpt><trkpt lat="43.487129" lon="12.0942346"><ele>302.8333333333333</ele><time>2026-04-23T16:21:56.024Z</time></trkpt><trkpt lat="43.4871682" lon="12.0943399"><ele>302.6666666666667</ele><time>2026-04-23T16:22:02.017Z</time></trkpt><trkpt lat="43.4872152" lon="12.0944371"><ele>302.5</ele><time>2026-04-23T16:22:06.017Z</time></trkpt><trkpt lat="43.4872226" lon="12.0945291"><ele>302.33333333333337</ele><time>2026-04-23T16:22:10.032Z</time></trkpt><trkpt lat="43.4871529" lon="12.094584"><ele>302.1666666666667</ele><time>2026-04-23T16:22:12.98Z</time></trkpt><trkpt lat="43.4870697" lon="12.0945927"><ele>302.0</ele><time>2026-04-23T16:22:15.033Z</time></trkpt><trkpt lat="43.487" lon="12.0946317"><ele>302.0</ele><time>2026-04-23T16:22:18.021Z</time></trkpt><trkpt lat="43.4869517" lon="12.0946917"><ele>302.0</ele><time>2026-04-23T16:22:26.016Z</time></trkpt><trkpt lat="43.48692" lon="12.0947917"><ele>302.0</ele><time>2026-04-23T16:22:35.031Z</time></trkpt><trkpt lat="43.4869233" lon="12.094895"><ele>302.0</ele><time>2026-04-23T16:22:38.016Z</time></trkpt><trkpt lat="43.48692" lon="12.0950133"><ele>302.0</ele><time>2026-04-23T16:22:41.023Z</time></trkpt><trkpt lat="43.48689" lon="12.09513"><ele>302.0</ele><time>2026-04-23T16:22:44.018Z</time></trkpt><trkpt lat="43.4868167" lon="12.095185"><ele>301.83333333333337</ele><time>2026-04-23T16:22:47.03Z</time></trkpt><trkpt lat="43.4867483" lon="12.0952117"><ele>301.6666666666667</ele><time>2026-04-23T16:22:49.033Z</time></trkpt><trkpt lat="43.4866717" lon="12.0952267"><ele>301.5</ele><time>2026-04-23T16:22:51.032Z</time></trkpt><trkpt lat="43.4865983" lon="12.0952433"><ele>301.3333333333333</ele><time>2026-04-23T16:22:53.021Z</time></trkpt><trkpt lat="43.4865267" lon="12.0952483"><ele>301.16666666666663</ele><time>2026-04-23T16:22:55.023Z</time></trkpt><trkpt lat="43.48645" lon="12.0952533"><ele>301.0</ele><time>2026-04-23T16:22:57.032Z</time></trkpt><trkpt lat="43.4863717" lon="12.0952583"><ele>301.0</ele><time>2026-04-23T16:22:59.031Z</time></trkpt><trkpt lat="43.4862917" lon="12.0952633"><ele>301.0</ele><time>2026-04-23T16:23:01.03Z</time></trkpt><trkpt lat="43.4862117" lon="12.09526"><ele>301.0</ele><time>2026-04-23T16:23:03.001Z</time></trkpt><trkpt lat="43.4861283" lon="12.0952667"><ele>301.0</ele><time>2026-04-23T16:23:05.036Z</time></trkpt><trkpt lat="43.4860483" lon="12.0952767"><ele>301.0</ele><time>2026-04-23T16:23:07.013Z</time></trkpt><trkpt lat="43.4859717" lon="12.0952817"><ele>301.0</ele><time>2026-04-23T16:23:09.009Z</time></trkpt><trkpt lat="43.4858983" lon="12.09529"><ele>300.85714285714283</ele><time>2026-04-23T16:23:11.021Z</time></trkpt><trkpt lat="43.4858283" lon="12.095295"><ele>300.7142857142857</ele><time>2026-04-23T16:23:13.015Z</time></trkpt><trkpt lat="43.4857583" lon="12.0953017"><ele>300.57142857142856</ele><time>2026-04-23T16:23:15.013Z</time></trkpt><trkpt lat="43.4856917" lon="12.09531"><ele>300.42857142857144</ele><time>2026-04-23T16:23:17.016Z</time></trkpt><trkpt lat="43.4856217" lon="12.0953183"><ele>300.2857142857143</ele><time>2026-04-23T16:23:19.014Z</time></trkpt><trkpt lat="43.4855517" lon="12.0953217"><ele>300.1428571428571</ele><time>2026-04-23T16:23:21.014Z</time></trkpt><trkpt lat="43.4854867" lon="12.095325"><ele>300.0</ele><time>2026-04-23T16:23:23.019Z</time></trkpt><trkpt lat="43.4854233" lon="12.095335"><ele>300.3333333333333</ele><time>2026-04-23T16:23:25.017Z</time></trkpt><trkpt lat="43.4853583" lon="12.0953433"><ele>300.6666666666667</ele><time>2026-04-23T16:23:27.019Z</time></trkpt><trkpt lat="43.485285" lon="12.095345"><ele>301.0</ele><time>2026-04-23T16:23:29.033Z</time></trkpt><trkpt lat="43.4852117" lon="12.09535"><ele>301.33333333333337</ele><time>2026-04-23T16:23:31.012Z</time></trkpt><trkpt lat="43.48514" lon="12.0953583"><ele>301.6666666666667</ele><time>2026-04-23T16:23:33.031Z</time></trkpt><trkpt lat="43.4850583" lon="12.0953667"><ele>302.0</ele><time>2026-04-23T16:23:35.026Z</time></trkpt><trkpt lat="43.4849717" lon="12.0953733"><ele>302.0</ele><time>2026-04-23T16:23:37.018Z</time></trkpt><trkpt lat="43.484885" lon="12.0953767"><ele>302.0</ele><time>2026-04-23T16:23:39.029Z</time></trkpt><trkpt lat="43.484805" lon="12.095385"><ele>302.0</ele><time>2026-04-23T16:23:41.029Z</time></trkpt><trkpt lat="43.48472" lon="12.095395"><ele>302.0</ele><time>2026-04-23T16:23:43.029Z</time></trkpt><trkpt lat="43.484635" lon="12.095405"><ele>302.0</ele><time>2026-04-23T16:23:45.031Z</time></trkpt><trkpt lat="43.48455" lon="12.0954217"><ele>302.0</ele><time>2026-04-23T16:23:47.028Z</time></trkpt><trkpt lat="43.48446" lon="12.0954417"><ele>302.0</ele><time>2026-04-23T16:23:49.02Z</time></trkpt><trkpt lat="43.4843683" lon="12.0954683"><ele>302.0</ele><time>2026-04-23T16:23:51.029Z</time></trkpt><trkpt lat="43.484275" lon="12.095495"><ele>302.0</ele><time>2026-04-23T16:23:53.03Z</time></trkpt><trkpt lat="43.4841867" lon="12.09552"><ele>302.0</ele><time>2026-04-23T16:23:55.037Z</time></trkpt><trkpt lat="43.4840983" lon="12.09555"><ele>302.0</ele><time>2026-04-23T16:23:57.037Z</time></trkpt><trkpt lat="43.4840167" lon="12.0955767"><ele>302.0</ele><time>2026-04-23T16:23:59.038Z</time></trkpt><trkpt lat="43.4839333" lon="12.095605"><ele>302.0</ele><time>2026-04-23T16:24:01.032Z</time></trkpt><trkpt lat="43.4838467" lon="12.09564"><ele>302.0</ele><time>2026-04-23T16:24:03.017Z</time></trkpt><trkpt lat="43.4837617" lon="12.0956717"><ele>302.0</ele><time>2026-04-23T16:24:05.018Z</time></trkpt><trkpt lat="43.4836733" lon="12.095705"><ele>302.0</ele><time>2026-04-23T16:24:07.025Z</time></trkpt><trkpt lat="43.4835867" lon="12.09574"><ele>302.0</ele><time>2026-04-23T16:24:09.033Z</time></trkpt><trkpt lat="43.4834967" lon="12.095775"><ele>302.0</ele><time>2026-04-23T16:24:11.028Z</time></trkpt><trkpt lat="43.48341" lon="12.0958117"><ele>302.0</ele><time>2026-04-23T16:24:13.03Z</time></trkpt><trkpt lat="43.48332" lon="12.0958467"><ele>302.0</ele><time>2026-04-23T16:24:15.037Z</time></trkpt><trkpt lat="43.4832283" lon="12.0958817"><ele>302.0</ele><time>2026-04-23T16:24:17.033Z</time></trkpt><trkpt lat="43.4831383" lon="12.095915"><ele>302.0</ele><time>2026-04-23T16:24:19.039Z</time></trkpt><trkpt lat="43.4830533" lon="12.0959533"><ele>302.0</ele><time>2026-04-23T16:24:21.037Z</time></trkpt><trkpt lat="43.482965" lon="12.0959917"><ele>302.0</ele><time>2026-04-23T16:24:23.035Z</time></trkpt><trkpt lat="43.4828767" lon="12.09603"><ele>302.0</ele><time>2026-04-23T16:24:25.034Z</time></trkpt><trkpt lat="43.4827883" lon="12.096065"><ele>302.0</ele><time>2026-04-23T16:24:27.031Z</time></trkpt><trkpt lat="43.4826983" lon="12.0961017"><ele>302.0</ele><time>2026-04-23T16:24:29.035Z</time></trkpt><trkpt lat="43.48261" lon="12.09614"><ele>302.2</ele><time>2026-04-23T16:24:31.035Z</time></trkpt><trkpt lat="43.4825217" lon="12.0961833"><ele>302.4</ele><time>2026-04-23T16:24:33.032Z</time></trkpt><trkpt lat="43.48243" lon="12.0962183"><ele>302.6</ele><time>2026-04-23T16:24:35.039Z</time></trkpt><trkpt lat="43.48234" lon="12.09625"><ele>302.8</ele><time>2026-04-23T16:24:37.038Z</time></trkpt><trkpt lat="43.48225" lon="12.0962817"><ele>303.0</ele><time>2026-04-23T16:24:39.039Z</time></trkpt><trkpt lat="43.48216" lon="12.0963183"><ele>303.2</ele><time>2026-04-23T16:24:41.038Z</time></trkpt><trkpt lat="43.48207" lon="12.096355"><ele>303.4</ele><time>2026-04-23T16:24:43.037Z</time></trkpt><trkpt lat="43.48198" lon="12.0963883"><ele>303.59999999999997</ele><time>2026-04-23T16:24:45.035Z</time></trkpt><trkpt lat="43.48189" lon="12.0964283"><ele>303.8</ele><time>2026-04-23T16:24:47.034Z</time></trkpt><trkpt lat="43.4817983" lon="12.0964717"><ele>304.0</ele><time>2026-04-23T16:24:49.038Z</time></trkpt><trkpt lat="43.4817083" lon="12.0965117"><ele>304.0</ele><time>2026-04-23T16:24:51.032Z</time></trkpt><trkpt lat="43.48162" lon="12.0965633"><ele>304.0</ele><time>2026-04-23T16:24:53.04Z</time></trkpt><trkpt lat="43.4815367" lon="12.096625"><ele>304.0</ele><time>2026-04-23T16:24:55.04Z</time></trkpt><trkpt lat="43.4814617" lon="12.0966983"><ele>304.0</ele><time>2026-04-23T16:24:57.031Z</time></trkpt><trkpt lat="43.4813967" lon="12.0967767"><ele>304.0</ele><time>2026-04-23T16:24:59.029Z</time></trkpt><trkpt lat="43.4813383" lon="12.0968667"><ele>303.8333333333333</ele><time>2026-04-23T16:25:01.037Z</time></trkpt><trkpt lat="43.4812833" lon="12.0969583"><ele>303.66666666666663</ele><time>2026-04-23T16:25:03.028Z</time></trkpt><trkpt lat="43.48123" lon="12.0970533"><ele>303.5</ele><time>2026-04-23T16:25:05.03Z</time></trkpt><trkpt lat="43.4811733" lon="12.0971467"><ele>303.3333333333333</ele><time>2026-04-23T16:25:07.022Z</time></trkpt><trkpt lat="43.4811183" lon="12.0972367"><ele>303.1666666666667</ele><time>2026-04-23T16:25:09.006Z</time></trkpt><trkpt lat="43.48106" lon="12.097325"><ele>303.0</ele><time>2026-04-23T16:25:11.018Z</time></trkpt><trkpt lat="43.481005" lon="12.0974133"><ele>303.5</ele><time>2026-04-23T16:25:13.018Z</time></trkpt><trkpt lat="43.48095" lon="12.0975033"><ele>304.0</ele><time>2026-04-23T16:25:15.015Z</time></trkpt><trkpt lat="43.4808983" lon="12.0975983"><ele>304.5</ele><time>2026-04-23T16:25:17.019Z</time></trkpt><trkpt lat="43.4808483" lon="12.0976983"><ele>305.0</ele><time>2026-04-23T16:25:19.031Z</time></trkpt><trkpt lat="43.4807967" lon="12.097795"><ele>305.5</ele><time>2026-04-23T16:25:21.027Z</time></trkpt><trkpt lat="43.4807417" lon="12.097895"><ele>306.0</ele><time>2026-04-23T16:25:23.02Z</time></trkpt><trkpt lat="43.4806883" lon="12.098005"><ele>306.0</ele><time>2026-04-23T16:25:25.03Z</time></trkpt><trkpt lat="43.480635" lon="12.0981233"><ele>306.0</ele><time>2026-04-23T16:25:27.031Z</time></trkpt><trkpt lat="43.4805767" lon="12.0982483"><ele>306.0</ele><time>2026-04-23T16:25:29.034Z</time></trkpt><trkpt lat="43.4805183" lon="12.0983733"><ele>306.0</ele><time>2026-04-23T16:25:31.03Z</time></trkpt><trkpt lat="43.4804583" lon="12.0984983"><ele>306.0</ele><time>2026-04-23T16:25:33.036Z</time></trkpt><trkpt lat="43.4804" lon="12.0986117"><ele>305.8333333333333</ele><time>2026-04-23T16:25:35.03Z</time></trkpt><trkpt lat="43.4803483" lon="12.0987217"><ele>305.6666666666667</ele><time>2026-04-23T16:25:37.037Z</time></trkpt><trkpt lat="43.4802967" lon="12.0988333"><ele>305.5</ele><time>2026-04-23T16:25:39.032Z</time></trkpt><trkpt lat="43.4802517" lon="12.09894"><ele>305.33333333333337</ele><time>2026-04-23T16:25:41.032Z</time></trkpt><trkpt lat="43.4802067" lon="12.099035"><ele>305.1666666666667</ele><time>2026-04-23T16:25:43.04Z</time></trkpt><trkpt lat="43.4801667" lon="12.0991217"><ele>305.0</ele><time>2026-04-23T16:25:45.014Z</time></trkpt><trkpt lat="43.48013" lon="12.09921"><ele>305.33333333333337</ele><time>2026-04-23T16:25:47.02Z</time></trkpt><trkpt lat="43.48009" lon="12.0992983"><ele>305.6666666666667</ele><time>2026-04-23T16:25:49.026Z</time></trkpt><trkpt lat="43.4800417" lon="12.0994083"><ele>306.0</ele><time>2026-04-23T16:25:52.021Z</time></trkpt><trkpt lat="43.480005" lon="12.09951"><ele>306.3333333333333</ele><time>2026-04-23T16:25:55.032Z</time></trkpt><trkpt lat="43.4799583" lon="12.0996033"><ele>306.66666666666663</ele><time>2026-04-23T16:25:58.026Z</time></trkpt><trkpt lat="43.47991" lon="12.0996833"><ele>307.0</ele><time>2026-04-23T16:26:01.021Z</time></trkpt><trkpt lat="43.4798683" lon="12.0997667"><ele>307.0</ele><time>2026-04-23T16:26:04.022Z</time></trkpt><trkpt lat="43.4798167" lon="12.09984"><ele>307.0</ele><time>2026-04-23T16:26:07.03Z</time></trkpt><trkpt lat="43.4797567" lon="12.0999067"><ele>307.0</ele><time>2026-04-23T16:26:10.032Z</time></trkpt><trkpt lat="43.47969" lon="12.0999783"><ele>307.0</ele><time>2026-04-23T16:26:13.028Z</time></trkpt><trkpt lat="43.4796267" lon="12.1000383"><ele>307.0</ele><time>2026-04-23T16:26:16.02Z</time></trkpt><trkpt lat="43.4795683" lon="12.1001067"><ele>307.0</ele><time>2026-04-23T16:26:19.024Z</time></trkpt><trkpt lat="43.479505" lon="12.1001683"><ele>308.71428571428567</ele><time>2026-04-23T16:26:22.029Z</time></trkpt><trkpt lat="43.4794483" lon="12.100235"><ele>310.42857142857144</ele><time>2026-04-23T16:26:25.029Z</time></trkpt><trkpt lat="43.4793867" lon="12.1003"><ele>312.1428571428571</ele><time>2026-04-23T16:26:28.017Z</time></trkpt><trkpt lat="43.47934" lon="12.1003833"><ele>313.85714285714283</ele><time>2026-04-23T16:26:31.028Z</time></trkpt><trkpt lat="43.47929" lon="12.1004517"><ele>315.57142857142856</ele><time>2026-04-23T16:26:34.027Z</time></trkpt><trkpt lat="43.4792533" lon="12.1005333"><ele>317.2857142857143</ele><time>2026-04-23T16:26:37.029Z</time></trkpt><trkpt lat="43.47922" lon="12.1006133"><ele>319.0</ele><time>2026-04-23T16:26:40.021Z</time></trkpt><trkpt lat="43.4791867" lon="12.1007033"><ele>318.8571428571429</ele><time>2026-04-23T16:26:43.026Z</time></trkpt><trkpt lat="43.4791583" lon="12.1008"><ele>318.71428571428567</ele><time>2026-04-23T16:26:46.025Z</time></trkpt><trkpt lat="43.4791233" lon="12.100895"><ele>318.57142857142856</ele><time>2026-04-23T16:26:49.011Z</time></trkpt><trkpt lat="43.4790967" lon="12.1009767"><ele>318.42857142857144</ele><time>2026-04-23T16:26:52.016Z</time></trkpt><trkpt lat="43.479065" lon="12.101055"><ele>318.28571428571433</ele><time>2026-04-23T16:26:55.027Z</time></trkpt><trkpt lat="43.4790317" lon="12.1011317"><ele>318.1428571428571</ele><time>2026-04-23T16:26:58.027Z</time></trkpt><trkpt lat="43.4789967" lon="12.10122"><ele>318.0</ele><time>2026-04-23T16:27:01.029Z</time></trkpt><trkpt lat="43.47896" lon="12.1012917"><ele>318.0</ele><time>2026-04-23T16:27:04.014Z</time></trkpt><trkpt lat="43.4789167" lon="12.101385"><ele>318.0</ele><time>2026-04-23T16:27:08.054Z</time></trkpt><trkpt lat="43.4788733" lon="12.1014817"><ele>318.0</ele><time>2026-04-23T16:27:12.031Z</time></trkpt><trkpt lat="43.47884" lon="12.101585"><ele>318.0</ele><time>2026-04-23T16:27:16.016Z</time></trkpt><trkpt lat="43.47881" lon="12.1016683"><ele>318.0</ele><time>2026-04-23T16:27:19.028Z</time></trkpt><trkpt lat="43.4787717" lon="12.10175"><ele>318.0</ele><time>2026-04-23T16:27:22.03Z</time></trkpt><trkpt lat="43.47874" lon="12.101845"><ele>318.4285714285714</ele><time>2026-04-23T16:27:25.029Z</time></trkpt><trkpt lat="43.4787267" lon="12.1019417"><ele>318.8571428571429</ele><time>2026-04-23T16:27:28.014Z</time></trkpt><trkpt lat="43.4787217" lon="12.1020517"><ele>319.2857142857143</ele><time>2026-04-23T16:27:31.027Z</time></trkpt><trkpt lat="43.4787283" lon="12.102155"><ele>319.71428571428567</ele><time>2026-04-23T16:27:34.028Z</time></trkpt><trkpt lat="43.4787333" lon="12.1022567"><ele>320.1428571428571</ele><time>2026-04-23T16:27:37.028Z</time></trkpt><trkpt lat="43.47875" lon="12.1023583"><ele>320.57142857142856</ele><time>2026-04-23T16:27:40.015Z</time></trkpt><trkpt lat="43.4787633" lon="12.1024533"><ele>321.0</ele><time>2026-04-23T16:27:43.031Z</time></trkpt><trkpt lat="43.4787733" lon="12.1025467"><ele>320.99999999999994</ele><time>2026-04-23T16:27:46.028Z</time></trkpt><trkpt lat="43.4787867" lon="12.102645"><ele>321.0</ele><time>2026-04-23T16:27:49.027Z</time></trkpt><trkpt lat="43.4788017" lon="12.10274"><ele>321.0</ele><time>2026-04-23T16:27:52.029Z</time></trkpt><trkpt lat="43.4788167" lon="12.102835"><ele>321.0</ele><time>2026-04-23T16:27:55.028Z</time></trkpt><trkpt lat="43.4788267" lon="12.102925"><ele>321.0</ele><time>2026-04-23T16:27:58.026Z</time></trkpt><trkpt lat="43.4788333" lon="12.1030183"><ele>320.99999999999994</ele><time>2026-04-23T16:28:01.027Z</time></trkpt><trkpt lat="43.478855" lon="12.1031167"><ele>321.0</ele><time>2026-04-23T16:28:04.03Z</time></trkpt><trkpt lat="43.4788717" lon="12.10321"><ele>321.85714285714283</ele><time>2026-04-23T16:28:07.032Z</time></trkpt><trkpt lat="43.4788817" lon="12.1033067"><ele>322.7142857142857</ele><time>2026-04-23T16:28:10.029Z</time></trkpt><trkpt lat="43.4788917" lon="12.1034067"><ele>323.57142857142856</ele><time>2026-04-23T16:28:13.017Z</time></trkpt><trkpt lat="43.4789" lon="12.1035067"><ele>324.42857142857144</ele><time>2026-04-23T16:28:16.031Z</time></trkpt><trkpt lat="43.4789167" lon="12.1036083"><ele>325.2857142857143</ele><time>2026-04-23T16:28:19.033Z</time></trkpt><trkpt lat="43.4789283" lon="12.103705"><ele>326.1428571428571</ele><time>2026-04-23T16:28:22.029Z</time></trkpt><trkpt lat="43.478925" lon="12.1038033"><ele>327.0</ele><time>2026-04-23T16:28:25.019Z</time></trkpt><trkpt lat="43.4789117" lon="12.1039067"><ele>327.0</ele><time>2026-04-23T16:28:28.03Z</time></trkpt><trkpt lat="43.4788683" lon="12.104005"><ele>327.0</ele><time>2026-04-23T16:28:31.03Z</time></trkpt><trkpt lat="43.4788017" lon="12.1040617"><ele>327.0</ele><time>2026-04-23T16:28:34.031Z</time></trkpt><trkpt lat="43.47873" lon="12.1040167"><ele>327.0</ele><time>2026-04-23T16:28:37.023Z</time></trkpt><trkpt lat="43.4786967" lon="12.103915"><ele>327.0</ele><time>2026-04-23T16:28:40.03Z</time></trkpt><trkpt lat="43.47867" lon="12.103795"><ele>327.0</ele><time>2026-04-23T16:28:43.028Z</time></trkpt><trkpt lat="43.4786533" lon="12.10371"><ele>328.2857142857143</ele><time>2026-04-23T16:28:45.015Z</time></trkpt><trkpt lat="43.4786367" lon="12.1036183"><ele>329.57142857142856</ele><time>2026-04-23T16:28:47.028Z</time></trkpt><trkpt lat="43.4786167" lon="12.1035283"><ele>330.8571428571429</ele><time>2026-04-23T16:28:49.031Z</time></trkpt><trkpt lat="43.4785917" lon="12.1034333"><ele>332.1428571428571</ele><time>2026-04-23T16:28:51.026Z</time></trkpt><trkpt lat="43.478565" lon="12.1033333"><ele>333.42857142857144</ele><time>2026-04-23T16:28:53.021Z</time></trkpt><trkpt lat="43.478525" lon="12.1032367"><ele>334.7142857142857</ele><time>2026-04-23T16:28:55.029Z</time></trkpt><trkpt lat="43.47848" lon="12.1031467"><ele>336.0</ele><time>2026-04-23T16:28:57.032Z</time></trkpt><trkpt lat="43.47843" lon="12.1030617"><ele>336.3333333333333</ele><time>2026-04-23T16:28:59.032Z</time></trkpt><trkpt lat="43.4783667" lon="12.1029817"><ele>336.6666666666667</ele><time>2026-04-23T16:29:01.032Z</time></trkpt><trkpt lat="43.4783067" lon="12.10291"><ele>337.0</ele><time>2026-04-23T16:29:03.036Z</time></trkpt><trkpt lat="43.4782483" lon="12.10284"><ele>337.33333333333337</ele><time>2026-04-23T16:29:05.02Z</time></trkpt><trkpt lat="43.478195" lon="12.1027683"><ele>337.6666666666667</ele><time>2026-04-23T16:29:07.019Z</time></trkpt><trkpt lat="43.4781467" lon="12.1027"><ele>338.0</ele><time>2026-04-23T16:29:09.03Z</time></trkpt><trkpt lat="43.4780917" lon="12.1026033"><ele>338.0</ele><time>2026-04-23T16:29:12.031Z</time></trkpt><trkpt lat="43.47804" lon="12.1025067"><ele>338.0</ele><time>2026-04-23T16:29:15.03Z</time></trkpt><trkpt lat="43.478005" lon="12.1024133"><ele>338.0</ele><time>2026-04-23T16:29:18.034Z</time></trkpt><trkpt lat="43.4779733" lon="12.1023217"><ele>338.0</ele><time>2026-04-23T16:29:21.028Z</time></trkpt><trkpt lat="43.4779417" lon="12.1022267"><ele>338.0</ele><time>2026-04-23T16:29:24.027Z</time></trkpt><trkpt lat="43.4779233" lon="12.10212"><ele>338.0</ele><time>2026-04-23T16:29:27.027Z</time></trkpt><trkpt lat="43.4779083" lon="12.1020117"><ele>339.33333333333337</ele><time>2026-04-23T16:29:30.034Z</time></trkpt><trkpt lat="43.4778917" lon="12.101905"><ele>340.6666666666667</ele><time>2026-04-23T16:29:33.033Z</time></trkpt><trkpt lat="43.4778783" lon="12.1017967"><ele>342.0</ele><time>2026-04-23T16:29:36.012Z</time></trkpt><trkpt lat="43.4778633" lon="12.1016917"><ele>343.3333333333333</ele><time>2026-04-23T16:29:39.026Z</time></trkpt><trkpt lat="43.4778417" lon="12.1015917"><ele>344.66666666666663</ele><time>2026-04-23T16:29:42.031Z</time></trkpt><trkpt lat="43.477825" lon="12.101495"><ele>346.0</ele><time>2026-04-23T16:29:45.028Z</time></trkpt><trkpt lat="43.4777983" lon="12.101395"><ele>346.7142857142857</ele><time>2026-04-23T16:29:48.019Z</time></trkpt><trkpt lat="43.4777667" lon="12.1012983"><ele>347.42857142857144</ele><time>2026-04-23T16:29:51.03Z</time></trkpt><trkpt lat="43.4777317" lon="12.1011983"><ele>348.14285714285717</ele><time>2026-04-23T16:29:54.023Z</time></trkpt><trkpt lat="43.4776867" lon="12.1011"><ele>348.8571428571429</ele><time>2026-04-23T16:29:57.029Z</time></trkpt><trkpt lat="43.4776533" lon="12.101025"><ele>349.57142857142856</ele><time>2026-04-23T16:29:59.034Z</time></trkpt><trkpt lat="43.47762" lon="12.1009467"><ele>350.28571428571433</ele><time>2026-04-23T16:30:01.012Z</time></trkpt><trkpt lat="43.477585" lon="12.1008667"><ele>351.0</ele><time>2026-04-23T16:30:03.031Z</time></trkpt><trkpt lat="43.477555" lon="12.1007767"><ele>350.3333333333333</ele><time>2026-04-23T16:30:05.033Z</time></trkpt><trkpt lat="43.4775233" lon="12.1006833"><ele>349.6666666666667</ele><time>2026-04-23T16:30:07.03Z</time></trkpt><trkpt lat="43.4774967" lon="12.1005917"><ele>349.0</ele><time>2026-04-23T16:30:09.021Z</time></trkpt><trkpt lat="43.4774783" lon="12.1004933"><ele>348.33333333333337</ele><time>2026-04-23T16:30:11.022Z</time></trkpt><trkpt lat="43.47745" lon="12.10039"><ele>347.6666666666667</ele><time>2026-04-23T16:30:13.029Z</time></trkpt><trkpt lat="43.4774167" lon="12.1002783"><ele>347.0</ele><time>2026-04-23T16:30:15.029Z</time></trkpt><trkpt lat="43.47738" lon="12.10017"><ele>347.0</ele><time>2026-04-23T16:30:17.028Z</time></trkpt><trkpt lat="43.477335" lon="12.100055"><ele>347.0</ele><time>2026-04-23T16:30:19.033Z</time></trkpt><trkpt lat="43.4772867" lon="12.099935"><ele>347.0</ele><time>2026-04-23T16:30:21.028Z</time></trkpt><trkpt lat="43.4772333" lon="12.0998183"><ele>347.0</ele><time>2026-04-23T16:30:23.038Z</time></trkpt><trkpt lat="43.47718" lon="12.0997067"><ele>347.0</ele><time>2026-04-23T16:30:25.04Z</time></trkpt><trkpt lat="43.4771317" lon="12.09961"><ele>348.0</ele><time>2026-04-23T16:30:27.039Z</time></trkpt><trkpt lat="43.4770817" lon="12.0995183"><ele>349.0</ele><time>2026-04-23T16:30:29.039Z</time></trkpt><trkpt lat="43.4770383" lon="12.0994317"><ele>350.0</ele><time>2026-04-23T16:30:31.032Z</time></trkpt><trkpt lat="43.4769917" lon="12.0993383"><ele>351.0</ele><time>2026-04-23T16:30:33.019Z</time></trkpt><trkpt lat="43.4769533" lon="12.099245"><ele>352.0</ele><time>2026-04-23T16:30:35.016Z</time></trkpt><trkpt lat="43.4769217" lon="12.0991567"><ele>353.0</ele><time>2026-04-23T16:30:37.018Z</time></trkpt><trkpt lat="43.4768767" lon="12.0990633"><ele>353.0</ele><time>2026-04-23T16:30:39.018Z</time></trkpt><trkpt lat="43.4768317" lon="12.0989767"><ele>353.0</ele><time>2026-04-23T16:30:41.014Z</time></trkpt><trkpt lat="43.4767883" lon="12.0989017"><ele>353.0</ele><time>2026-04-23T16:30:43.017Z</time></trkpt><trkpt lat="43.4767467" lon="12.098825"><ele>353.0</ele><time>2026-04-23T16:30:45.032Z</time></trkpt><trkpt lat="43.4767067" lon="12.0987517"><ele>353.0</ele><time>2026-04-23T16:30:47.016Z</time></trkpt><trkpt lat="43.47667" lon="12.09868"><ele>353.0</ele><time>2026-04-23T16:30:49.014Z</time></trkpt><trkpt lat="43.4766283" lon="12.09861"><ele>353.0</ele><time>2026-04-23T16:30:51.029Z</time></trkpt><trkpt lat="43.4765867" lon="12.0985417"><ele>353.0</ele><time>2026-04-23T16:30:53.032Z</time></trkpt><trkpt lat="43.4765283" lon="12.0984433"><ele>353.0</ele><time>2026-04-23T16:30:56.032Z</time></trkpt><trkpt lat="43.4764783" lon="12.0983383"><ele>353.0</ele><time>2026-04-23T16:30:59.016Z</time></trkpt><trkpt lat="43.4764217" lon="12.098235"><ele>353.0</ele><time>2026-04-23T16:31:02.034Z</time></trkpt><trkpt lat="43.4763883" lon="12.09813"><ele>353.0</ele><time>2026-04-23T16:31:05.02Z</time></trkpt><trkpt lat="43.4763583" lon="12.098025"><ele>353.0</ele><time>2026-04-23T16:31:08.062Z</time></trkpt><trkpt lat="43.476335" lon="12.0979383"><ele>352.6666666666667</ele><time>2026-04-23T16:31:11.017Z</time></trkpt><trkpt lat="43.47631" lon="12.0978467"><ele>352.33333333333337</ele><time>2026-04-23T16:31:14.048Z</time></trkpt><trkpt lat="43.4762833" lon="12.097745"><ele>352.0</ele><time>2026-04-23T16:31:17.031Z</time></trkpt><trkpt lat="43.4762517" lon="12.097635"><ele>351.6666666666667</ele><time>2026-04-23T16:31:20.061Z</time></trkpt><trkpt lat="43.4762133" lon="12.09754"><ele>351.3333333333333</ele><time>2026-04-23T16:31:23.019Z</time></trkpt><trkpt lat="43.4761583" lon="12.09747"><ele>351.0</ele><time>2026-04-23T16:31:25.027Z</time></trkpt><trkpt lat="43.47611" lon="12.0974133"><ele>352.5714285714286</ele><time>2026-04-23T16:31:27.035Z</time></trkpt><trkpt lat="43.47606" lon="12.0973567"><ele>354.14285714285717</ele><time>2026-04-23T16:31:29.032Z</time></trkpt><trkpt lat="43.4760067" lon="12.0972967"><ele>355.7142857142857</ele><time>2026-04-23T16:31:31.03Z</time></trkpt><trkpt lat="43.4759533" lon="12.0972433"><ele>357.28571428571433</ele><time>2026-04-23T16:31:33.031Z</time></trkpt><trkpt lat="43.4758983" lon="12.0971917"><ele>358.85714285714283</ele><time>2026-04-23T16:31:35.032Z</time></trkpt><trkpt lat="43.475845" lon="12.09713"><ele>360.42857142857144</ele><time>2026-04-23T16:31:37.03Z</time></trkpt><trkpt lat="43.4757917" lon="12.0970633"><ele>362.0</ele><time>2026-04-23T16:31:39.025Z</time></trkpt><trkpt lat="43.4757383" lon="12.0969883"><ele>362.0</ele><time>2026-04-23T16:31:41.033Z</time></trkpt><trkpt lat="43.4756833" lon="12.0969083"><ele>362.0</ele><time>2026-04-23T16:31:43.014Z</time></trkpt><trkpt lat="43.4756333" lon="12.09683"><ele>362.0</ele><time>2026-04-23T16:31:45.028Z</time></trkpt><trkpt lat="43.4755867" lon="12.0967417"><ele>362.0</ele><time>2026-04-23T16:31:47.024Z</time></trkpt><trkpt lat="43.4755533" lon="12.096655"><ele>362.0</ele><time>2026-04-23T16:31:49.025Z</time></trkpt><trkpt lat="43.4755167" lon="12.0965717"><ele>362.0</ele><time>2026-04-23T16:31:51.033Z</time></trkpt><trkpt lat="43.475485" lon="12.0964933"><ele>362.0</ele><time>2026-04-23T16:31:53.035Z</time></trkpt><trkpt lat="43.475445" lon="12.096425"><ele>361.83333333333337</ele><time>2026-04-23T16:31:55.014Z</time></trkpt><trkpt lat="43.4754033" lon="12.09636"><ele>361.6666666666667</ele><time>2026-04-23T16:31:57.031Z</time></trkpt><trkpt lat="43.47536" lon="12.0962833"><ele>361.5</ele><time>2026-04-23T16:31:59.033Z</time></trkpt><trkpt lat="43.475305" lon="12.0962"><ele>361.3333333333333</ele><time>2026-04-23T16:32:01.031Z</time></trkpt><trkpt lat="43.4752467" lon="12.0961083"><ele>361.16666666666663</ele><time>2026-04-23T16:32:03.029Z</time></trkpt><trkpt lat="43.475185" lon="12.0960133"><ele>361.0</ele><time>2026-04-23T16:32:05.031Z</time></trkpt><trkpt lat="43.4751333" lon="12.09592"><ele>361.0</ele><time>2026-04-23T16:32:07.02Z</time></trkpt><trkpt lat="43.4750717" lon="12.0958317"><ele>361.0</ele><time>2026-04-23T16:32:09.029Z</time></trkpt><trkpt lat="43.4750117" lon="12.0957283"><ele>361.0</ele><time>2026-04-23T16:32:11.027Z</time></trkpt><trkpt lat="43.4749467" lon="12.0956167"><ele>361.0</ele><time>2026-04-23T16:32:13.032Z</time></trkpt><trkpt lat="43.4748733" lon="12.095495"><ele>361.0</ele><time>2026-04-23T16:32:15.029Z</time></trkpt><trkpt lat="43.4748333" lon="12.095425"><ele>360.0</ele><time>2026-04-23T16:32:16.038Z</time></trkpt><trkpt lat="43.4747933" lon="12.0953517"><ele>359.0</ele><time>2026-04-23T16:32:17.034Z</time></trkpt><trkpt lat="43.474755" lon="12.0952733"><ele>358.0</ele><time>2026-04-23T16:32:18.038Z</time></trkpt><trkpt lat="43.474725" lon="12.0951833"><ele>357.0</ele><time>2026-04-23T16:32:19.033Z</time></trkpt><trkpt lat="43.474705" lon="12.09509"><ele>356.0</ele><time>2026-04-23T16:32:20.073Z</time></trkpt><trkpt lat="43.4746967" lon="12.0949917"><ele>355.0</ele><time>2026-04-23T16:32:21.03Z</time></trkpt><trkpt lat="43.4746933" lon="12.09489"><ele>354.0</ele><time>2026-04-23T16:32:22.029Z</time></trkpt><trkpt lat="43.4746833" lon="12.0947867"><ele>353.1666666666667</ele><time>2026-04-23T16:32:23.035Z</time></trkpt><trkpt lat="43.47466" lon="12.0946817"><ele>352.3333333333333</ele><time>2026-04-23T16:32:24.035Z</time></trkpt><trkpt lat="43.474625" lon="12.0945833"><ele>351.5</ele><time>2026-04-23T16:32:25.031Z</time></trkpt><trkpt lat="43.4745833" lon="12.0944933"><ele>350.66666666666663</ele><time>2026-04-23T16:32:26.097Z</time></trkpt><trkpt lat="43.4745367" lon="12.0944083"><ele>349.8333333333333</ele><time>2026-04-23T16:32:27.029Z</time></trkpt><trkpt lat="43.4744817" lon="12.094325"><ele>349.0</ele><time>2026-04-23T16:32:28.037Z</time></trkpt><trkpt lat="43.4744183" lon="12.09425"><ele>349.0</ele><time>2026-04-23T16:32:29.037Z</time></trkpt><trkpt lat="43.474345" lon="12.0941817"><ele>349.0</ele><time>2026-04-23T16:32:30.027Z</time></trkpt><trkpt lat="43.4742683" lon="12.0941167"><ele>349.0</ele><time>2026-04-23T16:32:31.032Z</time></trkpt><trkpt lat="43.4741917" lon="12.094045"><ele>349.0</ele><time>2026-04-23T16:32:32.037Z</time></trkpt><trkpt lat="43.4741067" lon="12.0939733"><ele>349.0</ele><time>2026-04-23T16:32:33.04Z</time></trkpt><trkpt lat="43.47402" lon="12.0939033"><ele>349.2</ele><time>2026-04-23T16:32:34.033Z</time></trkpt><trkpt lat="43.4739283" lon="12.09383"><ele>349.4</ele><time>2026-04-23T16:32:35.032Z</time></trkpt><trkpt lat="43.4738383" lon="12.0937567"><ele>349.6</ele><time>2026-04-23T16:32:36.041Z</time></trkpt><trkpt lat="43.4737517" lon="12.0936933"><ele>349.8</ele><time>2026-04-23T16:32:37.039Z</time></trkpt><trkpt lat="43.47367" lon="12.0936433"><ele>350.0</ele><time>2026-04-23T16:32:38.075Z</time></trkpt><trkpt lat="43.4735867" lon="12.09361"><ele>350.0</ele><time>2026-04-23T16:32:39.033Z</time></trkpt><trkpt lat="43.4734983" lon="12.0935933"><ele>350.0</ele><time>2026-04-23T16:32:40.036Z</time></trkpt><trkpt lat="43.4734033" lon="12.093605"><ele>350.0</ele><time>2026-04-23T16:32:41.027Z</time></trkpt><trkpt lat="43.4733117" lon="12.0936483"><ele>350.0</ele><time>2026-04-23T16:32:42.037Z</time></trkpt><trkpt lat="43.47323" lon="12.0937133"><ele>350.0</ele><time>2026-04-23T16:32:43.037Z</time></trkpt><trkpt lat="43.4731533" lon="12.09379"><ele>350.0</ele><time>2026-04-23T16:32:44.07Z</time></trkpt><trkpt lat="43.47308" lon="12.0938683"><ele>350.0</ele><time>2026-04-23T16:32:45.036Z</time></trkpt><trkpt lat="43.4730117" lon="12.0939567"><ele>350.0</ele><time>2026-04-23T16:32:46.035Z</time></trkpt><trkpt lat="43.4729417" lon="12.09404"><ele>350.0</ele><time>2026-04-23T16:32:47.036Z</time></trkpt><trkpt lat="43.4728683" lon="12.0941183"><ele>350.0</ele><time>2026-04-23T16:32:48.038Z</time></trkpt><trkpt lat="43.4727967" lon="12.0941933"><ele>349.6666666666667</ele><time>2026-04-23T16:32:49.028Z</time></trkpt><trkpt lat="43.472725" lon="12.0942617"><ele>349.33333333333337</ele><time>2026-04-23T16:32:50.077Z</time></trkpt><trkpt lat="43.472655" lon="12.0943267"><ele>349.0</ele><time>2026-04-23T16:32:51.032Z</time></trkpt><trkpt lat="43.4725883" lon="12.0943917"><ele>348.6666666666667</ele><time>2026-04-23T16:32:52.032Z</time></trkpt><trkpt lat="43.4725217" lon="12.0944517"><ele>348.3333333333333</ele><time>2026-04-23T16:32:53.033Z</time></trkpt><trkpt lat="43.4724567" lon="12.0945067"><ele>348.0</ele><time>2026-04-23T16:32:54.034Z</time></trkpt><trkpt lat="43.4723983" lon="12.0945583"><ele>348.0</ele><time>2026-04-23T16:32:55.039Z</time></trkpt><trkpt lat="43.4723017" lon="12.094645"><ele>348.0</ele><time>2026-04-23T16:32:57.037Z</time></trkpt><trkpt lat="43.472225" lon="12.0947167"><ele>348.0</ele><time>2026-04-23T16:32:59.036Z</time></trkpt><trkpt lat="43.4721633" lon="12.0947733"><ele>348.0</ele><time>2026-04-23T16:33:01.014Z</time></trkpt><trkpt lat="43.4721033" lon="12.09482"><ele>348.0</ele><time>2026-04-23T16:33:03.025Z</time></trkpt><trkpt lat="43.4720383" lon="12.0948583"><ele>348.0</ele><time>2026-04-23T16:33:05.03Z</time></trkpt><trkpt lat="43.47197" lon="12.0948817"><ele>347.85714285714283</ele><time>2026-04-23T16:33:07.015Z</time></trkpt><trkpt lat="43.4719" lon="12.0948933"><ele>347.7142857142857</ele><time>2026-04-23T16:33:09.029Z</time></trkpt><trkpt lat="43.4718333" lon="12.0948683"><ele>347.57142857142856</ele><time>2026-04-23T16:33:11.028Z</time></trkpt><trkpt lat="43.47178" lon="12.0948083"><ele>347.42857142857144</ele><time>2026-04-23T16:33:13.028Z</time></trkpt><trkpt lat="43.4717367" lon="12.0947283"><ele>347.2857142857143</ele><time>2026-04-23T16:33:15.028Z</time></trkpt><trkpt lat="43.4717067" lon="12.0946333"><ele>347.14285714285717</ele><time>2026-04-23T16:33:17.029Z</time></trkpt><trkpt lat="43.47168" lon="12.094535"><ele>347.0</ele><time>2026-04-23T16:33:19.002Z</time></trkpt><trkpt lat="43.4716533" lon="12.0944317"><ele>347.0</ele><time>2026-04-23T16:33:21.005Z</time></trkpt><trkpt lat="43.4716267" lon="12.094325"><ele>347.0</ele><time>2026-04-23T16:33:23.026Z</time></trkpt><trkpt lat="43.4716017" lon="12.0942217"><ele>347.0</ele><time>2026-04-23T16:33:25.027Z</time></trkpt><trkpt lat="43.471575" lon="12.09411"><ele>347.0</ele><time>2026-04-23T16:33:27.029Z</time></trkpt><trkpt lat="43.4715417" lon="12.093995"><ele>347.0</ele><time>2026-04-23T16:33:29.024Z</time></trkpt><trkpt lat="43.4715067" lon="12.0938667"><ele>347.0</ele><time>2026-04-23T16:33:31.037Z</time></trkpt><trkpt lat="43.47147" lon="12.0937283"><ele>348.5</ele><time>2026-04-23T16:33:33.038Z</time></trkpt><trkpt lat="43.4714233" lon="12.0935783"><ele>350.0</ele><time>2026-04-23T16:33:35.028Z</time></trkpt><trkpt lat="43.4713667" lon="12.0934283"><ele>351.5</ele><time>2026-04-23T16:33:37.032Z</time></trkpt><trkpt lat="43.471305" lon="12.0933"><ele>353.0</ele><time>2026-04-23T16:33:39.03Z</time></trkpt><trkpt lat="43.4712183" lon="12.093185"><ele>353.0</ele><time>2026-04-23T16:33:41.038Z</time></trkpt><trkpt lat="43.4711617" lon="12.0931333"><ele>353.0</ele><time>2026-04-23T16:33:42.042Z</time></trkpt><trkpt lat="43.4711067" lon="12.0930817"><ele>353.0</ele><time>2026-04-23T16:33:43.038Z</time></trkpt><trkpt lat="43.47105" lon="12.0930317"><ele>353.0</ele><time>2026-04-23T16:33:44.067Z</time></trkpt><trkpt lat="43.47099" lon="12.092985"><ele>353.0</ele><time>2026-04-23T16:33:45.032Z</time></trkpt><trkpt lat="43.4709283" lon="12.0929417"><ele>353.0</ele><time>2026-04-23T16:33:46.029Z</time></trkpt><trkpt lat="43.4708583" lon="12.09291"><ele>353.0</ele><time>2026-04-23T16:33:47.038Z</time></trkpt><trkpt lat="43.470785" lon="12.0929017"><ele>353.0</ele><time>2026-04-23T16:33:48.036Z</time></trkpt><trkpt lat="43.47071" lon="12.0929167"><ele>353.0</ele><time>2026-04-23T16:33:49.036Z</time></trkpt><trkpt lat="43.4706333" lon="12.0929483"><ele>353.0</ele><time>2026-04-23T16:33:50.054Z</time></trkpt><trkpt lat="43.4705617" lon="12.0929917"><ele>353.0</ele><time>2026-04-23T16:33:51.033Z</time></trkpt><trkpt lat="43.4705" lon="12.093055"><ele>353.0</ele><time>2026-04-23T16:33:52.034Z</time></trkpt><trkpt lat="43.470445" lon="12.0931333"><ele>353.0</ele><time>2026-04-23T16:33:53.03Z</time></trkpt><trkpt lat="43.47039" lon="12.09321"><ele>351.33333333333337</ele><time>2026-04-23T16:33:54.034Z</time></trkpt><trkpt lat="43.4703333" lon="12.0932917"><ele>349.6666666666667</ele><time>2026-04-23T16:33:55.037Z</time></trkpt><trkpt lat="43.47028" lon="12.09337"><ele>348.0</ele><time>2026-04-23T16:33:56.035Z</time></trkpt><trkpt lat="43.4702267" lon="12.0934483"><ele>346.3333333333333</ele><time>2026-04-23T16:33:57.037Z</time></trkpt><trkpt lat="43.4701717" lon="12.0935317"><ele>344.66666666666663</ele><time>2026-04-23T16:33:58.03Z</time></trkpt><trkpt lat="43.4701183" lon="12.0936117"><ele>343.0</ele><time>2026-04-23T16:33:59.033Z</time></trkpt><trkpt lat="43.4700667" lon="12.093685"><ele>343.0</ele><time>2026-04-23T16:34:00.039Z</time></trkpt><trkpt lat="43.47001" lon="12.09375"><ele>343.0</ele><time>2026-04-23T16:34:01.037Z</time></trkpt><trkpt lat="43.469955" lon="12.09381"><ele>343.0</ele><time>2026-04-23T16:34:02.036Z</time></trkpt><trkpt lat="43.4698967" lon="12.0938633"><ele>343.0</ele><time>2026-04-23T16:34:03.041Z</time></trkpt><trkpt lat="43.469845" lon="12.093915"><ele>343.0</ele><time>2026-04-23T16:34:04.037Z</time></trkpt><trkpt lat="43.469745" lon="12.0939833"><ele>343.0</ele><time>2026-04-23T16:34:06.035Z</time></trkpt><trkpt lat="43.4696217" lon="12.0939767"><ele>340.8333333333333</ele><time>2026-04-23T16:34:08.068Z</time></trkpt><trkpt lat="43.4695517" lon="12.0939417"><ele>338.66666666666663</ele><time>2026-04-23T16:34:09.023Z</time></trkpt><trkpt lat="43.469475" lon="12.093895"><ele>336.5</ele><time>2026-04-23T16:34:10.025Z</time></trkpt><trkpt lat="43.4693967" lon="12.0938417"><ele>334.3333333333333</ele><time>2026-04-23T16:34:11.037Z</time></trkpt><trkpt lat="43.4693133" lon="12.0937833"><ele>332.1666666666667</ele><time>2026-04-23T16:34:12.04Z</time></trkpt><trkpt lat="43.4692217" lon="12.093725"><ele>330.0</ele><time>2026-04-23T16:34:13.037Z</time></trkpt><trkpt lat="43.4691267" lon="12.0936667"><ele>330.0</ele><time>2026-04-23T16:34:14.071Z</time></trkpt><trkpt lat="43.46903" lon="12.0936"><ele>330.0</ele><time>2026-04-23T16:34:15.037Z</time></trkpt><trkpt lat="43.4689267" lon="12.0935317"><ele>330.0</ele><time>2026-04-23T16:34:16.033Z</time></trkpt><trkpt lat="43.4688183" lon="12.0934633"><ele>330.0</ele><time>2026-04-23T16:34:17.03Z</time></trkpt><trkpt lat="43.4687067" lon="12.0933983"><ele>327.0</ele><time>2026-04-23T16:34:18.036Z</time></trkpt><trkpt lat="43.468595" lon="12.09333"><ele>324.0</ele><time>2026-04-23T16:34:19.038Z</time></trkpt><trkpt lat="43.4684767" lon="12.09326"><ele>321.0</ele><time>2026-04-23T16:34:20.068Z</time></trkpt><trkpt lat="43.468355" lon="12.093185"><ele>318.0</ele><time>2026-04-23T16:34:21.034Z</time></trkpt><trkpt lat="43.468235" lon="12.0930983"><ele>318.0</ele><time>2026-04-23T16:34:22.038Z</time></trkpt><trkpt lat="43.46812" lon="12.0930067"><ele>318.0</ele><time>2026-04-23T16:34:23.037Z</time></trkpt><trkpt lat="43.4680117" lon="12.0929183"><ele>318.0</ele><time>2026-04-23T16:34:24.038Z</time></trkpt><trkpt lat="43.4679067" lon="12.09283"><ele>318.0</ele><time>2026-04-23T16:34:25.036Z</time></trkpt><trkpt lat="43.46781" lon="12.0927483"><ele>316.4</ele><time>2026-04-23T16:34:26.038Z</time></trkpt><trkpt lat="43.467725" lon="12.0926583"><ele>314.8</ele><time>2026-04-23T16:34:27.035Z</time></trkpt><trkpt lat="43.4676483" lon="12.092565"><ele>313.2</ele><time>2026-04-23T16:34:28.036Z</time></trkpt><trkpt lat="43.46757" lon="12.0924733"><ele>311.6</ele><time>2026-04-23T16:34:29.036Z</time></trkpt><trkpt lat="43.46749" lon="12.0924"><ele>310.0</ele><time>2026-04-23T16:34:30.023Z</time></trkpt><trkpt lat="43.4674033" lon="12.0923467"><ele>310.0</ele><time>2026-04-23T16:34:31.033Z</time></trkpt><trkpt lat="43.4673117" lon="12.0923333"><ele>310.0</ele><time>2026-04-23T16:34:32.085Z</time></trkpt><trkpt lat="43.4672217" lon="12.0923617"><ele>310.0</ele><time>2026-04-23T16:34:33.026Z</time></trkpt><trkpt lat="43.46714" lon="12.092415"><ele>310.0</ele><time>2026-04-23T16:34:34.034Z</time></trkpt><trkpt lat="43.46707" lon="12.0924733"><ele>310.0</ele><time>2026-04-23T16:34:35.038Z</time></trkpt><trkpt lat="43.4670083" lon="12.092525"><ele>310.0</ele><time>2026-04-23T16:34:36.035Z</time></trkpt><trkpt lat="43.46695" lon="12.0925817"><ele>309.8</ele><time>2026-04-23T16:34:37.031Z</time></trkpt><trkpt lat="43.466895" lon="12.092635"><ele>309.6</ele><time>2026-04-23T16:34:38.066Z</time></trkpt><trkpt lat="43.4668417" lon="12.092685"><ele>309.4</ele><time>2026-04-23T16:34:39.033Z</time></trkpt><trkpt lat="43.4667467" lon="12.0927833"><ele>309.2</ele><time>2026-04-23T16:34:41.036Z</time></trkpt><trkpt lat="43.4666533" lon="12.0928717"><ele>309.0</ele><time>2026-04-23T16:34:43.039Z</time></trkpt><trkpt lat="43.466565" lon="12.0929483"><ele>309.0</ele><time>2026-04-23T16:34:45.036Z</time></trkpt><trkpt lat="43.46648" lon="12.092975"><ele>309.0</ele><time>2026-04-23T16:34:47.036Z</time></trkpt><trkpt lat="43.46641" lon="12.09291"><ele>309.0</ele><time>2026-04-23T16:34:49.04Z</time></trkpt><trkpt lat="43.466365" lon="12.09279"><ele>309.0</ele><time>2026-04-23T16:34:51.034Z</time></trkpt><trkpt lat="43.46631" lon="12.09267"><ele>309.0</ele><time>2026-04-23T16:34:53.032Z</time></trkpt><trkpt lat="43.4662583" lon="12.0925517"><ele>309.2</ele><time>2026-04-23T16:34:55.04Z</time></trkpt><trkpt lat="43.4662083" lon="12.0924367"><ele>309.4</ele><time>2026-04-23T16:34:57.031Z</time></trkpt><trkpt lat="43.466165" lon="12.09232"><ele>309.6</ele><time>2026-04-23T16:34:59.038Z</time></trkpt><trkpt lat="43.4661217" lon="12.0922"><ele>309.8</ele><time>2026-04-23T16:35:01.035Z</time></trkpt><trkpt lat="43.4660783" lon="12.0920767"><ele>310.0</ele><time>2026-04-23T16:35:03.029Z</time></trkpt><trkpt lat="43.4660417" lon="12.0919583"><ele>310.4</ele><time>2026-04-23T16:35:05.032Z</time></trkpt><trkpt lat="43.4660067" lon="12.0918383"><ele>310.8</ele><time>2026-04-23T16:35:07.029Z</time></trkpt><trkpt lat="43.4659717" lon="12.0917117"><ele>311.2</ele><time>2026-04-23T16:35:09.033Z</time></trkpt><trkpt lat="43.4659367" lon="12.0915733"><ele>311.6</ele><time>2026-04-23T16:35:11.039Z</time></trkpt><trkpt lat="43.4658933" lon="12.091435"><ele>312.0</ele><time>2026-04-23T16:35:13.032Z</time></trkpt><trkpt lat="43.4658467" lon="12.0913033"><ele>312.0</ele><time>2026-04-23T16:35:15.032Z</time></trkpt><trkpt lat="43.4658017" lon="12.0911767"><ele>312.0</ele><time>2026-04-23T16:35:17.035Z</time></trkpt><trkpt lat="43.4657533" lon="12.09104"><ele>312.0</ele><time>2026-04-23T16:35:19.04Z</time></trkpt><trkpt lat="43.4657067" lon="12.0909033"><ele>312.0</ele><time>2026-04-23T16:35:21.035Z</time></trkpt><trkpt lat="43.465665" lon="12.09077"><ele>312.0</ele><time>2026-04-23T16:35:23.041Z</time></trkpt><trkpt lat="43.4656183" lon="12.09064"><ele>312.0</ele><time>2026-04-23T16:35:25.042Z</time></trkpt><trkpt lat="43.4655733" lon="12.0905167"><ele>312.0</ele><time>2026-04-23T16:35:27.03Z</time></trkpt><trkpt lat="43.4655267" lon="12.09038"><ele>312.0</ele><time>2026-04-23T16:35:29.038Z</time></trkpt><trkpt lat="43.4654817" lon="12.0902517"><ele>312.0</ele><time>2026-04-23T16:35:31.037Z</time></trkpt><trkpt lat="43.4654367" lon="12.0901283"><ele>312.0</ele><time>2026-04-23T16:35:33.04Z</time></trkpt><trkpt lat="43.465395" lon="12.0900083"><ele>312.4</ele><time>2026-04-23T16:35:35.037Z</time></trkpt><trkpt lat="43.46535" lon="12.0898817"><ele>312.79999999999995</ele><time>2026-04-23T16:35:37.035Z</time></trkpt><trkpt lat="43.465305" lon="12.089755"><ele>313.2</ele><time>2026-04-23T16:35:39.03Z</time></trkpt><trkpt lat="43.4652617" lon="12.0896283"><ele>313.59999999999997</ele><time>2026-04-23T16:35:41.039Z</time></trkpt><trkpt lat="43.4652133" lon="12.0895117"><ele>314.0</ele><time>2026-04-23T16:35:43.036Z</time></trkpt><trkpt lat="43.465165" lon="12.0894017"><ele>314.0</ele><time>2026-04-23T16:35:45.034Z</time></trkpt><trkpt lat="43.4651083" lon="12.0892917"><ele>314.0</ele><time>2026-04-23T16:35:47.038Z</time></trkpt><trkpt lat="43.4650467" lon="12.08919"><ele>314.0</ele><time>2026-04-23T16:35:49.031Z</time></trkpt><trkpt lat="43.4649833" lon="12.0890867"><ele>314.0</ele><time>2026-04-23T16:35:51.029Z</time></trkpt><trkpt lat="43.4649117" lon="12.0889933"><ele>314.0</ele><time>2026-04-23T16:35:53.029Z</time></trkpt><trkpt lat="43.4648533" lon="12.0889033"><ele>314.0</ele><time>2026-04-23T16:35:55.003Z</time></trkpt><trkpt lat="43.4648017" lon="12.0888183"><ele>314.0</ele><time>2026-04-23T16:35:57.03Z</time></trkpt><trkpt lat="43.4647533" lon="12.0887483"><ele>314.0</ele><time>2026-04-23T16:35:59.029Z</time></trkpt><trkpt lat="43.4647033" lon="12.0886917"><ele>314.0</ele><time>2026-04-23T16:36:01.016Z</time></trkpt><trkpt lat="43.464625" lon="12.0886983"><ele>314.0</ele><time>2026-04-23T16:36:04.013Z</time></trkpt><trkpt lat="43.4645483" lon="12.0887683"><ele>314.0</ele><time>2026-04-23T16:36:07.012Z</time></trkpt><trkpt lat="43.464475" lon="12.08884"><ele>314.0</ele><time>2026-04-23T16:36:09.012Z</time></trkpt><trkpt lat="43.464395" lon="12.0889233"><ele>314.0</ele><time>2026-04-23T16:36:11.039Z</time></trkpt><trkpt lat="43.46432" lon="12.08901"><ele>314.0</ele><time>2026-04-23T16:36:13.034Z</time></trkpt><trkpt lat="43.464245" lon="12.0890917"><ele>314.0</ele><time>2026-04-23T16:36:15.032Z</time></trkpt><trkpt lat="43.4641717" lon="12.0891717"><ele>314.0</ele><time>2026-04-23T16:36:17.016Z</time></trkpt><trkpt lat="43.4640983" lon="12.0892483"><ele>314.0</ele><time>2026-04-23T16:36:19.025Z</time></trkpt><trkpt lat="43.4640267" lon="12.0893317"><ele>314.0</ele><time>2026-04-23T16:36:21.033Z</time></trkpt><trkpt lat="43.46395" lon="12.0894133"><ele>314.0</ele><time>2026-04-23T16:36:23.039Z</time></trkpt><trkpt lat="43.463875" lon="12.0894983"><ele>314.0</ele><time>2026-04-23T16:36:25.034Z</time></trkpt><trkpt lat="43.4638033" lon="12.0895767"><ele>314.0</ele><time>2026-04-23T16:36:27.016Z</time></trkpt><trkpt lat="43.4637317" lon="12.08965"><ele>314.33333333333337</ele><time>2026-04-23T16:36:29.033Z</time></trkpt><trkpt lat="43.4636567" lon="12.08972"><ele>314.6666666666667</ele><time>2026-04-23T16:36:31.034Z</time></trkpt><trkpt lat="43.4635833" lon="12.08979"><ele>315.0</ele><time>2026-04-23T16:36:33.027Z</time></trkpt><trkpt lat="43.4635117" lon="12.08986"><ele>315.3333333333333</ele><time>2026-04-23T16:36:35.03Z</time></trkpt><trkpt lat="43.46344" lon="12.08992"><ele>315.66666666666663</ele><time>2026-04-23T16:36:37.029Z</time></trkpt><trkpt lat="43.46337" lon="12.0899767"><ele>316.0</ele><time>2026-04-23T16:36:39.029Z</time></trkpt><trkpt lat="43.4633" lon="12.09004"><ele>316.16666666666663</ele><time>2026-04-23T16:36:41.03Z</time></trkpt><trkpt lat="43.4632383" lon="12.0901067"><ele>316.3333333333333</ele><time>2026-04-23T16:36:43.028Z</time></trkpt><trkpt lat="43.46319" lon="12.0902017"><ele>316.5</ele><time>2026-04-23T16:36:46.031Z</time></trkpt><trkpt lat="43.4631933" lon="12.0903033"><ele>316.6666666666667</ele><time>2026-04-23T16:36:49.03Z</time></trkpt><trkpt lat="43.46323" lon="12.09043"><ele>316.83333333333337</ele><time>2026-04-23T16:36:52.033Z</time></trkpt><trkpt lat="43.4632667" lon="12.0905417"><ele>317.0</ele><time>2026-04-23T16:36:54.034Z</time></trkpt><trkpt lat="43.4633083" lon="12.0906517"><ele>316.8</ele><time>2026-04-23T16:36:56.038Z</time></trkpt><trkpt lat="43.4633483" lon="12.0907683"><ele>316.6</ele><time>2026-04-23T16:36:58.032Z</time></trkpt><trkpt lat="43.4633867" lon="12.0908867"><ele>316.40000000000003</ele><time>2026-04-23T16:37:00.039Z</time></trkpt><trkpt lat="43.46343" lon="12.091015"><ele>316.2</ele><time>2026-04-23T16:37:02.09Z</time></trkpt><trkpt lat="43.4634783" lon="12.0911383"><ele>316.0</ele><time>2026-04-23T16:37:04.032Z</time></trkpt><trkpt lat="43.4635283" lon="12.09126"><ele>316.0</ele><time>2026-04-23T16:37:06.031Z</time></trkpt><trkpt lat="43.4635667" lon="12.0913783"><ele>316.0</ele><time>2026-04-23T16:37:08.076Z</time></trkpt><trkpt lat="43.4635967" lon="12.0915083"><ele>316.0</ele><time>2026-04-23T16:37:10.038Z</time></trkpt><trkpt lat="43.4636217" lon="12.09163"><ele>316.0</ele><time>2026-04-23T16:37:12.038Z</time></trkpt><trkpt lat="43.4636317" lon="12.0917567"><ele>316.0</ele><time>2026-04-23T16:37:14.075Z</time></trkpt><trkpt lat="43.463615" lon="12.0918833"><ele>316.16666666666663</ele><time>2026-04-23T16:37:16.036Z</time></trkpt><trkpt lat="43.46358" lon="12.09199"><ele>316.3333333333333</ele><time>2026-04-23T16:37:18.017Z</time></trkpt><trkpt lat="43.4635417" lon="12.09208"><ele>316.5</ele><time>2026-04-23T16:37:20.076Z</time></trkpt><trkpt lat="43.4634933" lon="12.0921517"><ele>316.6666666666667</ele><time>2026-04-23T16:37:22.03Z</time></trkpt><trkpt lat="43.4634383" lon="12.0922183"><ele>316.83333333333337</ele><time>2026-04-23T16:37:24.017Z</time></trkpt><trkpt lat="43.4633833" lon="12.0922883"><ele>317.0</ele><time>2026-04-23T16:37:26.076Z</time></trkpt><trkpt lat="43.463325" lon="12.09236"><ele>317.0</ele><time>2026-04-23T16:37:28.034Z</time></trkpt><trkpt lat="43.4632683" lon="12.0924217"><ele>317.0</ele><time>2026-04-23T16:37:30.032Z</time></trkpt><trkpt lat="43.4632133" lon="12.09248"><ele>317.0</ele><time>2026-04-23T16:37:32.084Z</time></trkpt><trkpt lat="43.4631517" lon="12.0925433"><ele>317.0</ele><time>2026-04-23T16:37:34.028Z</time></trkpt><trkpt lat="43.4630933" lon="12.092605"><ele>317.0</ele><time>2026-04-23T16:37:36.004Z</time></trkpt><trkpt lat="43.4630333" lon="12.0926667"><ele>317.0</ele><time>2026-04-23T16:37:38.073Z</time></trkpt><trkpt lat="43.4629717" lon="12.0927283"><ele>317.0</ele><time>2026-04-23T16:37:40.026Z</time></trkpt><trkpt lat="43.4629083" lon="12.0927817"><ele>317.57142857142856</ele><time>2026-04-23T16:37:42.022Z</time></trkpt><trkpt lat="43.4628417" lon="12.0928233"><ele>318.1428571428571</ele><time>2026-04-23T16:37:44.071Z</time></trkpt><trkpt lat="43.4627683" lon="12.0928533"><ele>318.71428571428567</ele><time>2026-04-23T16:37:46.028Z</time></trkpt><trkpt lat="43.4626967" lon="12.09286"><ele>319.2857142857143</ele><time>2026-04-23T16:37:48.03Z</time></trkpt><trkpt lat="43.462625" lon="12.09285"><ele>319.85714285714283</ele><time>2026-04-23T16:37:50.07Z</time></trkpt><trkpt lat="43.462555" lon="12.0928067"><ele>320.4285714285714</ele><time>2026-04-23T16:37:52.031Z</time></trkpt><trkpt lat="43.46249" lon="12.0927467"><ele>321.0</ele><time>2026-04-23T16:37:54.031Z</time></trkpt><trkpt lat="43.462435" lon="12.0926667"><ele>321.0</ele><time>2026-04-23T16:37:56.021Z</time></trkpt><trkpt lat="43.462385" lon="12.092585"><ele>321.0</ele><time>2026-04-23T16:37:58.029Z</time></trkpt><trkpt lat="43.4623333" lon="12.0925117"><ele>321.0</ele><time>2026-04-23T16:38:00.035Z</time></trkpt><trkpt lat="43.46228" lon="12.0924383"><ele>321.0</ele><time>2026-04-23T16:38:02.033Z</time></trkpt><trkpt lat="43.462215" lon="12.092375"><ele>321.0</ele><time>2026-04-23T16:38:04.028Z</time></trkpt><trkpt lat="43.4621417" lon="12.0923217"><ele>321.0</ele><time>2026-04-23T16:38:06.003Z</time></trkpt><trkpt lat="43.4620617" lon="12.0922817"><ele>321.71428571428567</ele><time>2026-04-23T16:38:08.053Z</time></trkpt><trkpt lat="43.4619783" lon="12.0922533"><ele>322.42857142857144</ele><time>2026-04-23T16:38:10.028Z</time></trkpt><trkpt lat="43.4619017" lon="12.0922367"><ele>323.1428571428571</ele><time>2026-04-23T16:38:12.032Z</time></trkpt><trkpt lat="43.46183" lon="12.09223"><ele>323.85714285714283</ele><time>2026-04-23T16:38:14.064Z</time></trkpt><trkpt lat="43.4617633" lon="12.0922317"><ele>324.57142857142856</ele><time>2026-04-23T16:38:16.028Z</time></trkpt><trkpt lat="43.4616967" lon="12.092235"><ele>325.2857142857143</ele><time>2026-04-23T16:38:18.028Z</time></trkpt><trkpt lat="43.4616283" lon="12.09224"><ele>326.0</ele><time>2026-04-23T16:38:20.064Z</time></trkpt><trkpt lat="43.4615633" lon="12.092245"><ele>326.0</ele><time>2026-04-23T16:38:22.03Z</time></trkpt><trkpt lat="43.46147" lon="12.09225"><ele>326.0</ele><time>2026-04-23T16:38:25.034Z</time></trkpt><trkpt lat="43.4613783" lon="12.0922683"><ele>326.0</ele><time>2026-04-23T16:38:28.03Z</time></trkpt><trkpt lat="43.4612883" lon="12.0922783"><ele>326.0</ele><time>2026-04-23T16:38:31.027Z</time></trkpt><trkpt lat="43.4612017" lon="12.0922833"><ele>326.0</ele><time>2026-04-23T16:38:34.026Z</time></trkpt><trkpt lat="43.4611183" lon="12.09228"><ele>326.0</ele><time>2026-04-23T16:38:37.033Z</time></trkpt><trkpt lat="43.4610317" lon="12.0922783"><ele>326.7142857142857</ele><time>2026-04-23T16:38:40.021Z</time></trkpt><trkpt lat="43.46095" lon="12.09227"><ele>327.4285714285714</ele><time>2026-04-23T16:38:43.03Z</time></trkpt><trkpt lat="43.46087" lon="12.09226"><ele>328.1428571428571</ele><time>2026-04-23T16:38:46.028Z</time></trkpt><trkpt lat="43.4608033" lon="12.09224"><ele>328.8571428571429</ele><time>2026-04-23T16:38:49.004Z</time></trkpt><trkpt lat="43.4607317" lon="12.0922117"><ele>329.57142857142856</ele><time>2026-04-23T16:38:52.01Z</time></trkpt><trkpt lat="43.4606667" lon="12.0922117"><ele>330.2857142857143</ele><time>2026-04-23T16:38:55.043Z</time></trkpt><trkpt lat="43.460595" lon="12.092255"><ele>331.0</ele><time>2026-04-23T16:38:57.015Z</time></trkpt><trkpt lat="43.4605267" lon="12.0922867"><ele>331.0</ele><time>2026-04-23T16:39:00.018Z</time></trkpt><trkpt lat="43.46047" lon="12.0923317"><ele>331.0</ele><time>2026-04-23T16:39:03.028Z</time></trkpt><trkpt lat="43.4604267" lon="12.0924"><ele>331.0</ele><time>2026-04-23T16:39:06.034Z</time></trkpt><trkpt lat="43.4604" lon="12.0925117"><ele>331.0</ele><time>2026-04-23T16:39:10.017Z</time></trkpt><trkpt lat="43.4604167" lon="12.092605"><ele>331.0</ele><time>2026-04-23T16:39:13.03Z</time></trkpt><trkpt lat="43.4604667" lon="12.0926867"><ele>331.0</ele><time>2026-04-23T16:39:16.023Z</time></trkpt><trkpt lat="43.4605283" lon="12.0927433"><ele>331.0</ele><time>2026-04-23T16:39:19.024Z</time></trkpt><trkpt lat="43.4606017" lon="12.0927717"><ele>331.8571428571429</ele><time>2026-04-23T16:39:22.02Z</time></trkpt><trkpt lat="43.4606717" lon="12.092785"><ele>332.7142857142857</ele><time>2026-04-23T16:39:25.031Z</time></trkpt><trkpt lat="43.4607467" lon="12.0927967"><ele>333.57142857142856</ele><time>2026-04-23T16:39:28.017Z</time></trkpt><trkpt lat="43.4608183" lon="12.09281"><ele>334.42857142857144</ele><time>2026-04-23T16:39:31.03Z</time></trkpt><trkpt lat="43.460885" lon="12.0928267"><ele>335.2857142857143</ele><time>2026-04-23T16:39:34.018Z</time></trkpt><trkpt lat="43.4609517" lon="12.09284"><ele>336.14285714285717</ele><time>2026-04-23T16:39:37.032Z</time></trkpt><trkpt lat="43.4610317" lon="12.0928533"><ele>337.0</ele><time>2026-04-23T16:39:41.033Z</time></trkpt><trkpt lat="43.4611083" lon="12.0928683"><ele>337.0</ele><time>2026-04-23T16:39:45.019Z</time></trkpt><trkpt lat="43.4611917" lon="12.0928817"><ele>337.0</ele><time>2026-04-23T16:39:49.033Z</time></trkpt><trkpt lat="43.46127" lon="12.0929117"><ele>337.0</ele><time>2026-04-23T16:39:53.033Z</time></trkpt><trkpt lat="43.461345" lon="12.0929517"><ele>337.0</ele><time>2026-04-23T16:39:57.014Z</time></trkpt><trkpt lat="43.4614067" lon="12.0930133"><ele>337.0</ele><time>2026-04-23T16:40:01.031Z</time></trkpt><trkpt lat="43.461455" lon="12.0931083"><ele>337.0</ele><time>2026-04-23T16:40:05.025Z</time></trkpt><trkpt lat="43.461485" lon="12.093185"><ele>338.14285714285717</ele><time>2026-04-23T16:40:08.056Z</time></trkpt><trkpt lat="43.4614817" lon="12.093295"><ele>339.2857142857143</ele><time>2026-04-23T16:40:12.032Z</time></trkpt><trkpt lat="43.4614467" lon="12.093375"><ele>340.42857142857144</ele><time>2026-04-23T16:40:15.03Z</time></trkpt><trkpt lat="43.4614017" lon="12.09344"><ele>341.57142857142856</ele><time>2026-04-23T16:40:18.033Z</time></trkpt><trkpt lat="43.4613417" lon="12.09349"><ele>342.7142857142857</ele><time>2026-04-23T16:40:21.019Z</time></trkpt><trkpt lat="43.4612783" lon="12.0935217"><ele>343.8571428571429</ele><time>2026-04-23T16:40:24.031Z</time></trkpt><trkpt lat="43.46121" lon="12.09353"><ele>345.0</ele><time>2026-04-23T16:40:27.031Z</time></trkpt><trkpt lat="43.4611367" lon="12.09353"><ele>346.0</ele><time>2026-04-23T16:40:30.018Z</time></trkpt><trkpt lat="43.4610717" lon="12.093525"><ele>347.0</ele><time>2026-04-23T16:40:33.026Z</time></trkpt><trkpt lat="43.461005" lon="12.09352"><ele>348.0</ele><time>2026-04-23T16:40:36.034Z</time></trkpt><trkpt lat="43.4609417" lon="12.09351"><ele>349.0</ele><time>2026-04-23T16:40:39.023Z</time></trkpt><trkpt lat="43.4608717" lon="12.0935183"><ele>350.0</ele><time>2026-04-23T16:40:42.034Z</time></trkpt><trkpt lat="43.4607983" lon="12.09353"><ele>351.0</ele><time>2026-04-23T16:40:45.033Z</time></trkpt><trkpt lat="43.46073" lon="12.0935367"><ele>352.0</ele><time>2026-04-23T16:40:48.034Z</time></trkpt><trkpt lat="43.4606583" lon="12.09354"><ele>352.0</ele><time>2026-04-23T16:40:51.025Z</time></trkpt><trkpt lat="43.460585" lon="12.0935467"><ele>352.0</ele><time>2026-04-23T16:40:54.035Z</time></trkpt><trkpt lat="43.460515" lon="12.09354"><ele>352.0</ele><time>2026-04-23T16:40:57.035Z</time></trkpt><trkpt lat="43.4604333" lon="12.09354"><ele>352.0</ele><time>2026-04-23T16:41:00.032Z</time></trkpt><trkpt lat="43.46035" lon="12.09354"><ele>352.0</ele><time>2026-04-23T16:41:03.03Z</time></trkpt><trkpt lat="43.4602767" lon="12.0935383"><ele>352.0</ele><time>2026-04-23T16:41:06.019Z</time></trkpt><trkpt lat="43.4602033" lon="12.0935383"><ele>352.7142857142857</ele><time>2026-04-23T16:41:09.035Z</time></trkpt><trkpt lat="43.4601333" lon="12.0935467"><ele>353.42857142857144</ele><time>2026-04-23T16:41:12.033Z</time></trkpt><trkpt lat="43.46007" lon="12.0935617"><ele>354.1428571428571</ele><time>2026-04-23T16:41:15.029Z</time></trkpt><trkpt lat="43.4599983" lon="12.093565"><ele>354.8571428571429</ele><time>2026-04-23T16:41:18.013Z</time></trkpt><trkpt lat="43.4599267" lon="12.0935733"><ele>355.57142857142856</ele><time>2026-04-23T16:41:21.034Z</time></trkpt><trkpt lat="43.4598617" lon="12.0935767"><ele>356.2857142857143</ele><time>2026-04-23T16:41:24.035Z</time></trkpt><trkpt lat="43.4597917" lon="12.0935933"><ele>357.0</ele><time>2026-04-23T16:41:27.017Z</time></trkpt><trkpt lat="43.45972" lon="12.09362"><ele>357.0</ele><time>2026-04-23T16:41:30.021Z</time></trkpt><trkpt lat="43.4596467" lon="12.0936333"><ele>357.0</ele><time>2026-04-23T16:41:33.015Z</time></trkpt><trkpt lat="43.4595817" lon="12.09363"><ele>357.0</ele><time>2026-04-23T16:41:36.033Z</time></trkpt><trkpt lat="43.4595133" lon="12.0936483"><ele>357.0</ele><time>2026-04-23T16:41:39.033Z</time></trkpt><trkpt lat="43.4594433" lon="12.0936667"><ele>357.0</ele><time>2026-04-23T16:41:42.022Z</time></trkpt><trkpt lat="43.45938" lon="12.0936883"><ele>357.0</ele><time>2026-04-23T16:41:45.035Z</time></trkpt><trkpt lat="43.4593017" lon="12.0937133"><ele>357.0</ele><time>2026-04-23T16:41:49.033Z</time></trkpt><trkpt lat="43.459235" lon="12.093735"><ele>357.57142857142856</ele><time>2026-04-23T16:41:52.026Z</time></trkpt><trkpt lat="43.4591717" lon="12.0937567"><ele>358.1428571428571</ele><time>2026-04-23T16:41:55.034Z</time></trkpt><trkpt lat="43.4590967" lon="12.0937867"><ele>358.7142857142857</ele><time>2026-04-23T16:41:59.034Z</time></trkpt><trkpt lat="43.4590283" lon="12.0938167"><ele>359.2857142857143</ele><time>2026-04-23T16:42:02.086Z</time></trkpt><trkpt lat="43.4589683" lon="12.0938483"><ele>359.85714285714283</ele><time>2026-04-23T16:42:05.018Z</time></trkpt><trkpt lat="43.4588883" lon="12.0938883"><ele>360.42857142857144</ele><time>2026-04-23T16:42:09.029Z</time></trkpt><trkpt lat="43.458825" lon="12.09391"><ele>361.0</ele><time>2026-04-23T16:42:12.033Z</time></trkpt><trkpt lat="43.458765" lon="12.09394"><ele>361.3333333333333</ele><time>2026-04-23T16:42:15.03Z</time></trkpt><trkpt lat="43.4586933" lon="12.0939783"><ele>361.66666666666663</ele><time>2026-04-23T16:42:19.039Z</time></trkpt><trkpt lat="43.45862" lon="12.0940233"><ele>362.0</ele><time>2026-04-23T16:42:23.033Z</time></trkpt><trkpt lat="43.4585483" lon="12.0940583"><ele>362.3333333333333</ele><time>2026-04-23T16:42:26.092Z</time></trkpt><trkpt lat="43.458475" lon="12.09409"><ele>362.6666666666667</ele><time>2026-04-23T16:42:29.02Z</time></trkpt><trkpt lat="43.458415" lon="12.0941167"><ele>363.0</ele><time>2026-04-23T16:42:32.081Z</time></trkpt><trkpt lat="43.4583367" lon="12.0941367"><ele>364.71428571428567</ele><time>2026-04-23T16:42:36.031Z</time></trkpt><trkpt lat="43.45826" lon="12.0941583"><ele>366.42857142857144</ele><time>2026-04-23T16:42:40.018Z</time></trkpt><trkpt lat="43.4581933" lon="12.09419"><ele>368.1428571428571</ele><time>2026-04-23T16:42:43.033Z</time></trkpt><trkpt lat="43.4581267" lon="12.0942333"><ele>369.85714285714283</ele><time>2026-04-23T16:42:46.015Z</time></trkpt><trkpt lat="43.4580767" lon="12.0942917"><ele>371.57142857142856</ele><time>2026-04-23T16:42:49.028Z</time></trkpt><trkpt lat="43.4580367" lon="12.0943817"><ele>373.2857142857143</ele><time>2026-04-23T16:42:52.019Z</time></trkpt><trkpt lat="43.4580233" lon="12.0944933"><ele>375.0</ele><time>2026-04-23T16:42:55.028Z</time></trkpt><trkpt lat="43.4580517" lon="12.09459"><ele>375.0</ele><time>2026-04-23T16:42:58.03Z</time></trkpt><trkpt lat="43.4581" lon="12.0946567"><ele>375.0</ele><time>2026-04-23T16:43:01.033Z</time></trkpt><trkpt lat="43.45817" lon="12.0946783"><ele>375.0</ele><time>2026-04-23T16:43:04.019Z</time></trkpt><trkpt lat="43.45825" lon="12.0946983"><ele>375.0</ele><time>2026-04-23T16:43:07.024Z</time></trkpt><trkpt lat="43.4583133" lon="12.094665"><ele>375.0</ele><time>2026-04-23T16:43:10.03Z</time></trkpt><trkpt lat="43.4583867" lon="12.0946333"><ele>375.0</ele><time>2026-04-23T16:43:13.033Z</time></trkpt><trkpt lat="43.4584617" lon="12.0946067"><ele>375.0</ele><time>2026-04-23T16:43:16.021Z</time></trkpt><trkpt lat="43.4585333" lon="12.0945733"><ele>375.0</ele><time>2026-04-23T16:43:19.031Z</time></trkpt><trkpt lat="43.45861" lon="12.094535"><ele>375.0</ele><time>2026-04-23T16:43:22.028Z</time></trkpt><trkpt lat="43.45869" lon="12.09452"><ele>375.0</ele><time>2026-04-23T16:43:25.031Z</time></trkpt><trkpt lat="43.4587617" lon="12.0945217"><ele>375.0</ele><time>2026-04-23T16:43:28.018Z</time></trkpt><trkpt lat="43.45884" lon="12.0945183"><ele>375.0</ele><time>2026-04-23T16:43:31.033Z</time></trkpt><trkpt lat="43.45891" lon="12.094535"><ele>375.0</ele><time>2026-04-23T16:43:34.032Z</time></trkpt><trkpt lat="43.4589783" lon="12.0945567"><ele>375.3333333333333</ele><time>2026-04-23T16:43:37.03Z</time></trkpt><trkpt lat="43.45905" lon="12.0946033"><ele>375.6666666666667</ele><time>2026-04-23T16:43:40.021Z</time></trkpt><trkpt lat="43.459125" lon="12.094655"><ele>376.0</ele><time>2026-04-23T16:43:43.032Z</time></trkpt><trkpt lat="43.4591833" lon="12.09472"><ele>376.33333333333337</ele><time>2026-04-23T16:43:46.031Z</time></trkpt><trkpt lat="43.459245" lon="12.094785"><ele>376.6666666666667</ele><time>2026-04-23T16:43:49.028Z</time></trkpt><trkpt lat="43.4593067" lon="12.094845"><ele>377.0</ele><time>2026-04-23T16:43:52.032Z</time></trkpt><trkpt lat="43.4593567" lon="12.0949267"><ele>378.1428571428571</ele><time>2026-04-23T16:43:55.03Z</time></trkpt><trkpt lat="43.45941" lon="12.0950167"><ele>379.2857142857143</ele><time>2026-04-23T16:43:58.033Z</time></trkpt><trkpt lat="43.4594517" lon="12.0951"><ele>380.42857142857144</ele><time>2026-04-23T16:44:01.029Z</time></trkpt><trkpt lat="43.4594917" lon="12.0951717"><ele>381.57142857142856</ele><time>2026-04-23T16:44:04.028Z</time></trkpt><trkpt lat="43.459535" lon="12.09524"><ele>382.7142857142857</ele><time>2026-04-23T16:44:07.03Z</time></trkpt><trkpt lat="43.4595833" lon="12.0953133"><ele>383.85714285714283</ele><time>2026-04-23T16:44:10.032Z</time></trkpt><trkpt lat="43.4596367" lon="12.0953733"><ele>385.0</ele><time>2026-04-23T16:44:13.029Z</time></trkpt><trkpt lat="43.459695" lon="12.0954533"><ele>385.00000000000006</ele><time>2026-04-23T16:44:17.025Z</time></trkpt><trkpt lat="43.45973" lon="12.0955417"><ele>385.0</ele><time>2026-04-23T16:44:21.017Z</time></trkpt><trkpt lat="43.4597583" lon="12.09564"><ele>385.0</ele><time>2026-04-23T16:44:25.03Z</time></trkpt><trkpt lat="43.459755" lon="12.0957483"><ele>385.0</ele><time>2026-04-23T16:44:29.035Z</time></trkpt><trkpt lat="43.459725" lon="12.095845"><ele>385.00000000000006</ele><time>2026-04-23T16:44:33.026Z</time></trkpt><trkpt lat="43.45967" lon="12.09592"><ele>385.0</ele><time>2026-04-23T16:44:37.026Z</time></trkpt><trkpt lat="43.45961" lon="12.0959967"><ele>386.85714285714283</ele><time>2026-04-23T16:44:41.031Z</time></trkpt><trkpt lat="43.45955" lon="12.096035"><ele>388.7142857142857</ele><time>2026-04-23T16:44:44.067Z</time></trkpt><trkpt lat="43.4594883" lon="12.0960667"><ele>390.57142857142856</ele><time>2026-04-23T16:44:47.028Z</time></trkpt><trkpt lat="43.4594117" lon="12.0960917"><ele>392.42857142857144</ele><time>2026-04-23T16:44:51.034Z</time></trkpt><trkpt lat="43.459335" lon="12.0960883"><ele>394.2857142857143</ele><time>2026-04-23T16:44:55.029Z</time></trkpt><trkpt lat="43.4592717" lon="12.0960933"><ele>396.1428571428571</ele><time>2026-04-23T16:44:58.032Z</time></trkpt><trkpt lat="43.4592033" lon="12.0960917"><ele>398.0</ele><time>2026-04-23T16:45:01.039Z</time></trkpt><trkpt lat="43.45912" lon="12.0961133"><ele>397.99999999999994</ele><time>2026-04-23T16:45:05.036Z</time></trkpt><trkpt lat="43.4590383" lon="12.0961383"><ele>398.0</ele><time>2026-04-23T16:45:09.033Z</time></trkpt><trkpt lat="43.4589683" lon="12.0961483"><ele>398.0</ele><time>2026-04-23T16:45:12.03Z</time></trkpt><trkpt lat="43.4589" lon="12.096165"><ele>398.0</ele><time>2026-04-23T16:45:15.027Z</time></trkpt><trkpt lat="43.4588167" lon="12.0961783"><ele>397.99999999999994</ele><time>2026-04-23T16:45:19.034Z</time></trkpt><trkpt lat="43.4587517" lon="12.0961867"><ele>398.0</ele><time>2026-04-23T16:45:22.032Z</time></trkpt><trkpt lat="43.4586683" lon="12.0962067"><ele>398.57142857142856</ele><time>2026-04-23T16:45:26.031Z</time></trkpt><trkpt lat="43.4585983" lon="12.0962217"><ele>399.1428571428571</ele><time>2026-04-23T16:45:29.033Z</time></trkpt><trkpt lat="43.4585317" lon="12.0962383"><ele>399.71428571428567</ele><time>2026-04-23T16:45:32.035Z</time></trkpt><trkpt lat="43.4584633" lon="12.0962633"><ele>400.2857142857143</ele><time>2026-04-23T16:45:35.034Z</time></trkpt><trkpt lat="43.4583983" lon="12.0962867"><ele>400.8571428571429</ele><time>2026-04-23T16:45:38.054Z</time></trkpt><trkpt lat="43.4583333" lon="12.0963067"><ele>401.4285714285714</ele><time>2026-04-23T16:45:41.033Z</time></trkpt><trkpt lat="43.45827" lon="12.0963217"><ele>402.0</ele><time>2026-04-23T16:45:44.039Z</time></trkpt><trkpt lat="43.4581867" lon="12.09632"><ele>402.0</ele><time>2026-04-23T16:45:48.013Z</time></trkpt><trkpt lat="43.4581233" lon="12.0963317"><ele>402.0</ele><time>2026-04-23T16:45:51.035Z</time></trkpt><trkpt lat="43.458045" lon="12.09639"><ele>402.0</ele><time>2026-04-23T16:45:56.032Z</time></trkpt><trkpt lat="43.4579783" lon="12.09643"><ele>402.0</ele><time>2026-04-23T16:45:59.032Z</time></trkpt><trkpt lat="43.4579083" lon="12.0964733"><ele>402.0</ele><time>2026-04-23T16:46:02.08Z</time></trkpt><trkpt lat="43.45784" lon="12.0965117"><ele>402.0</ele><time>2026-04-23T16:46:05.033Z</time></trkpt><trkpt lat="43.457775" lon="12.0965467"><ele>402.0</ele><time>2026-04-23T16:46:08.066Z</time></trkpt><trkpt lat="43.45771" lon="12.0965783"><ele>403.57142857142856</ele><time>2026-04-23T16:46:11.018Z</time></trkpt><trkpt lat="43.4576483" lon="12.096615"><ele>405.14285714285717</ele><time>2026-04-23T16:46:14.069Z</time></trkpt><trkpt lat="43.4575717" lon="12.0966417"><ele>406.7142857142857</ele><time>2026-04-23T16:46:18.025Z</time></trkpt><trkpt lat="43.4574933" lon="12.0966667"><ele>408.2857142857143</ele><time>2026-04-23T16:46:22.017Z</time></trkpt><trkpt lat="43.4574233" lon="12.096695"><ele>409.8571428571429</ele><time>2026-04-23T16:46:26.08Z</time></trkpt><trkpt lat="43.4573533" lon="12.0967233"><ele>411.42857142857144</ele><time>2026-04-23T16:46:30.033Z</time></trkpt><trkpt lat="43.457285" lon="12.096745"><ele>413.0</ele><time>2026-04-23T16:46:34.024Z</time></trkpt><trkpt lat="43.4572117" lon="12.09677"><ele>412.99999999999994</ele><time>2026-04-23T16:46:38.068Z</time></trkpt><trkpt lat="43.4571333" lon="12.0967933"><ele>413.0</ele><time>2026-04-23T16:46:42.034Z</time></trkpt><trkpt lat="43.4570683" lon="12.096845"><ele>413.0</ele><time>2026-04-23T16:46:46.018Z</time></trkpt><trkpt lat="43.4570133" lon="12.09691"><ele>413.0</ele><time>2026-04-23T16:46:50.055Z</time></trkpt><trkpt lat="43.4569717" lon="12.0969983"><ele>412.99999999999994</ele><time>2026-04-23T16:46:54.019Z</time></trkpt><trkpt lat="43.456935" lon="12.0970933"><ele>413.0</ele><time>2026-04-23T16:46:58.022Z</time></trkpt><trkpt lat="43.456925" lon="12.097195"><ele>413.49999999999994</ele><time>2026-04-23T16:47:02.08Z</time></trkpt><trkpt lat="43.4569383" lon="12.0972933"><ele>414.0</ele><time>2026-04-23T16:47:06.034Z</time></trkpt><trkpt lat="43.4569617" lon="12.09739"><ele>414.5</ele><time>2026-04-23T16:47:10.034Z</time></trkpt><trkpt lat="43.4569933" lon="12.0974833"><ele>415.0</ele><time>2026-04-23T16:47:14.066Z</time></trkpt><trkpt lat="43.457045" lon="12.0975583"><ele>415.49999999999994</ele><time>2026-04-23T16:47:18.036Z</time></trkpt><trkpt lat="43.457105" lon="12.0976183"><ele>416.0</ele><time>2026-04-23T16:47:22.029Z</time></trkpt><trkpt lat="43.45719" lon="12.0976283"><ele>417.16666666666663</ele><time>2026-04-23T16:47:26.09Z</time></trkpt><trkpt lat="43.4572683" lon="12.0976117"><ele>418.3333333333333</ele><time>2026-04-23T16:47:29.039Z</time></trkpt><trkpt lat="43.4573567" lon="12.097595"><ele>419.5</ele><time>2026-04-23T16:47:32.081Z</time></trkpt><trkpt lat="43.4574433" lon="12.09757"><ele>420.66666666666663</ele><time>2026-04-23T16:47:35.033Z</time></trkpt><trkpt lat="43.4575267" lon="12.0975683"><ele>421.8333333333333</ele><time>2026-04-23T16:47:38.073Z</time></trkpt><trkpt lat="43.4576017" lon="12.0975683"><ele>423.0</ele><time>2026-04-23T16:47:41.031Z</time></trkpt><trkpt lat="43.45767" lon="12.0975683"><ele>423.0</ele><time>2026-04-23T16:47:44.066Z</time></trkpt><trkpt lat="43.457735" lon="12.0975783"><ele>423.0</ele><time>2026-04-23T16:47:47.031Z</time></trkpt><trkpt lat="43.4578033" lon="12.0975883"><ele>423.0</ele><time>2026-04-23T16:47:50.071Z</time></trkpt><trkpt lat="43.4578717" lon="12.097605"><ele>423.0</ele><time>2026-04-23T16:47:53.016Z</time></trkpt><trkpt lat="43.4579483" lon="12.0975817"><ele>423.0</ele><time>2026-04-23T16:47:57.02Z</time></trkpt><trkpt lat="43.458025" lon="12.0975817"><ele>423.0</ele><time>2026-04-23T16:48:00.012Z</time></trkpt><trkpt lat="43.458095" lon="12.0975883"><ele>423.0</ele><time>2026-04-23T16:48:03.004Z</time></trkpt><trkpt lat="43.4581617" lon="12.0975817"><ele>423.5</ele><time>2026-04-23T16:48:06.009Z</time></trkpt><trkpt lat="43.45825" lon="12.0975683"><ele>424.0</ele><time>2026-04-23T16:48:09.023Z</time></trkpt><trkpt lat="43.458325" lon="12.0975567"><ele>424.5</ele><time>2026-04-23T16:48:12.033Z</time></trkpt><trkpt lat="43.4583883" lon="12.0975567"><ele>425.0</ele><time>2026-04-23T16:48:15.029Z</time></trkpt><trkpt lat="43.4584733" lon="12.09759"><ele>425.5</ele><time>2026-04-23T16:48:19.033Z</time></trkpt><trkpt lat="43.4585483" lon="12.09761"><ele>426.0</ele><time>2026-04-23T16:48:22.021Z</time></trkpt><trkpt lat="43.4586217" lon="12.0976267"><ele>426.0</ele><time>2026-04-23T16:48:25.032Z</time></trkpt><trkpt lat="43.45869" lon="12.09764"><ele>426.0</ele><time>2026-04-23T16:48:28.018Z</time></trkpt><trkpt lat="43.458755" lon="12.0976467"><ele>426.0</ele><time>2026-04-23T16:48:31.031Z</time></trkpt><trkpt lat="43.4588317" lon="12.097675"><ele>426.0</ele><time>2026-04-23T16:48:35.032Z</time></trkpt><trkpt lat="43.45891" lon="12.0977"><ele>426.0</ele><time>2026-04-23T16:48:39.006Z</time></trkpt><trkpt lat="43.4589917" lon="12.0977167"><ele>426.0</ele><time>2026-04-23T16:48:43.018Z</time></trkpt><trkpt lat="43.4590717" lon="12.09772"><ele>426.5</ele><time>2026-04-23T16:48:47.034Z</time></trkpt><trkpt lat="43.459135" lon="12.0977317"><ele>427.0</ele><time>2026-04-23T16:48:50.067Z</time></trkpt><trkpt lat="43.459215" lon="12.09776"><ele>427.5</ele><time>2026-04-23T16:48:54.031Z</time></trkpt><trkpt lat="43.4592817" lon="12.09778"><ele>428.0</ele><time>2026-04-23T16:48:57.033Z</time></trkpt><trkpt lat="43.45935" lon="12.0977967"><ele>428.5</ele><time>2026-04-23T16:49:00.032Z</time></trkpt><trkpt lat="43.45943" lon="12.0978133"><ele>429.0</ele><time>2026-04-23T16:49:03.015Z</time></trkpt><trkpt lat="43.4595133" lon="12.0978333"><ele>429.0</ele><time>2026-04-23T16:49:06.035Z</time></trkpt><trkpt lat="43.4595833" lon="12.0978667"><ele>429.0</ele><time>2026-04-23T16:49:09.031Z</time></trkpt><trkpt lat="43.459665" lon="12.0979"><ele>429.0</ele><time>2026-04-23T16:49:12.035Z</time></trkpt><trkpt lat="43.459755" lon="12.0979417"><ele>429.0</ele><time>2026-04-23T16:49:15.01Z</time></trkpt><trkpt lat="43.4598217" lon="12.09797"><ele>429.0</ele><time>2026-04-23T16:49:17.026Z</time></trkpt><trkpt lat="43.4598833" lon="12.09801"><ele>429.0</ele><time>2026-04-23T16:49:19.029Z</time></trkpt><trkpt lat="43.4599467" lon="12.098055"><ele>428.57142857142856</ele><time>2026-04-23T16:49:21.037Z</time></trkpt><trkpt lat="43.4599983" lon="12.09811"><ele>428.14285714285717</ele><time>2026-04-23T16:49:23.031Z</time></trkpt><trkpt lat="43.46005" lon="12.098175"><ele>427.71428571428567</ele><time>2026-04-23T16:49:25.028Z</time></trkpt><trkpt lat="43.4601" lon="12.0982417"><ele>427.2857142857143</ele><time>2026-04-23T16:49:27.024Z</time></trkpt><trkpt lat="43.4601467" lon="12.09831"><ele>426.85714285714283</ele><time>2026-04-23T16:49:29.036Z</time></trkpt><trkpt lat="43.46019" lon="12.0983783"><ele>426.4285714285714</ele><time>2026-04-23T16:49:31.026Z</time></trkpt><trkpt lat="43.46025" lon="12.0984733"><ele>426.0</ele><time>2026-04-23T16:49:34.031Z</time></trkpt><trkpt lat="43.4603033" lon="12.0985667"><ele>426.71428571428567</ele><time>2026-04-23T16:49:37.029Z</time></trkpt><trkpt lat="43.460355" lon="12.09867"><ele>427.42857142857144</ele><time>2026-04-23T16:49:40.032Z</time></trkpt><trkpt lat="43.46039" lon="12.0987433"><ele>428.1428571428571</ele><time>2026-04-23T16:49:42.03Z</time></trkpt><trkpt lat="43.46043" lon="12.09882"><ele>428.85714285714283</ele><time>2026-04-23T16:49:44.066Z</time></trkpt><trkpt lat="43.4604683" lon="12.0989017"><ele>429.57142857142856</ele><time>2026-04-23T16:49:46.011Z</time></trkpt><trkpt lat="43.4605117" lon="12.09898"><ele>430.2857142857143</ele><time>2026-04-23T16:49:48.033Z</time></trkpt><trkpt lat="43.4605517" lon="12.0990617"><ele>431.0</ele><time>2026-04-23T16:49:50.07Z</time></trkpt><trkpt lat="43.4605983" lon="12.09914"><ele>431.8</ele><time>2026-04-23T16:49:52.013Z</time></trkpt><trkpt lat="43.4606533" lon="12.0991967"><ele>432.6</ele><time>2026-04-23T16:49:54.013Z</time></trkpt><trkpt lat="43.4607267" lon="12.0992533"><ele>433.4</ele><time>2026-04-23T16:49:56.092Z</time></trkpt><trkpt lat="43.460815" lon="12.099305"><ele>434.2</ele><time>2026-04-23T16:49:58.029Z</time></trkpt><trkpt lat="43.4609" lon="12.0993733"><ele>435.0</ele><time>2026-04-23T16:50:00.029Z</time></trkpt><trkpt lat="43.460995" lon="12.0994717"><ele>435.0</ele><time>2026-04-23T16:50:02.082Z</time></trkpt><trkpt lat="43.4610483" lon="12.0995267"><ele>435.0</ele><time>2026-04-23T16:50:03.032Z</time></trkpt><trkpt lat="43.461145" lon="12.09964"><ele>435.0</ele><time>2026-04-23T16:50:05.033Z</time></trkpt><trkpt lat="43.4612017" lon="12.0997"><ele>435.0</ele><time>2026-04-23T16:50:06.034Z</time></trkpt><trkpt lat="43.46126" lon="12.0997667"><ele>435.0</ele><time>2026-04-23T16:50:07.033Z</time></trkpt><trkpt lat="43.4613133" lon="12.09983"><ele>435.0</ele><time>2026-04-23T16:50:08.072Z</time></trkpt><trkpt lat="43.4613617" lon="12.0998917"><ele>435.42857142857144</ele><time>2026-04-23T16:50:09.03Z</time></trkpt><trkpt lat="43.4614067" lon="12.099965"><ele>435.8571428571429</ele><time>2026-04-23T16:50:10.033Z</time></trkpt><trkpt lat="43.4614517" lon="12.1000483"><ele>436.28571428571433</ele><time>2026-04-23T16:50:11.03Z</time></trkpt><trkpt lat="43.461485" lon="12.10014"><ele>436.7142857142857</ele><time>2026-04-23T16:50:12.034Z</time></trkpt><trkpt lat="43.4615067" lon="12.1002317"><ele>437.1428571428571</ele><time>2026-04-23T16:50:13.028Z</time></trkpt><trkpt lat="43.4615267" lon="12.1003233"><ele>437.5714285714286</ele><time>2026-04-23T16:50:14.067Z</time></trkpt><trkpt lat="43.461555" lon="12.100415"><ele>438.0</ele><time>2026-04-23T16:50:15.035Z</time></trkpt><trkpt lat="43.4615883" lon="12.100505"><ele>438.0</ele><time>2026-04-23T16:50:16.033Z</time></trkpt><trkpt lat="43.46163" lon="12.100585"><ele>437.99999999999994</ele><time>2026-04-23T16:50:17.035Z</time></trkpt><trkpt lat="43.4616717" lon="12.1006567"><ele>437.99999999999994</ele><time>2026-04-23T16:50:18.034Z</time></trkpt><trkpt lat="43.4617467" lon="12.1007817"><ele>438.0</ele><time>2026-04-23T16:50:20.07Z</time></trkpt><trkpt lat="43.461815" lon="12.1009033"><ele>438.0</ele><time>2026-04-23T16:50:22.034Z</time></trkpt><trkpt lat="43.4618933" lon="12.10102"><ele>435.75</ele><time>2026-04-23T16:50:24.032Z</time></trkpt><trkpt lat="43.4619833" lon="12.10113"><ele>433.5</ele><time>2026-04-23T16:50:26.033Z</time></trkpt><trkpt lat="43.462075" lon="12.1012367"><ele>431.25</ele><time>2026-04-23T16:50:28.033Z</time></trkpt><trkpt lat="43.4621583" lon="12.1013467"><ele>429.0</ele><time>2026-04-23T16:50:30.034Z</time></trkpt><trkpt lat="43.4622467" lon="12.1014483"><ele>429.0</ele><time>2026-04-23T16:50:32.034Z</time></trkpt><trkpt lat="43.4623317" lon="12.1015483"><ele>429.0</ele><time>2026-04-23T16:50:34.03Z</time></trkpt><trkpt lat="43.462415" lon="12.1016617"><ele>429.0</ele><time>2026-04-23T16:50:36.033Z</time></trkpt><trkpt lat="43.4624767" lon="12.1017967"><ele>429.0</ele><time>2026-04-23T16:50:38.068Z</time></trkpt><trkpt lat="43.462515" lon="12.101955"><ele>426.8333333333333</ele><time>2026-04-23T16:50:40.033Z</time></trkpt><trkpt lat="43.4625333" lon="12.1020383"><ele>424.66666666666663</ele><time>2026-04-23T16:50:41.032Z</time></trkpt><trkpt lat="43.4625767" lon="12.1021917"><ele>422.5</ele><time>2026-04-23T16:50:43.05Z</time></trkpt><trkpt lat="43.4626117" lon="12.1023483"><ele>420.3333333333333</ele><time>2026-04-23T16:50:45.022Z</time></trkpt><trkpt lat="43.4626333" lon="12.102435"><ele>418.16666666666663</ele><time>2026-04-23T16:50:46.023Z</time></trkpt><trkpt lat="43.4626717" lon="12.10252"><ele>416.0</ele><time>2026-04-23T16:50:47.032Z</time></trkpt><trkpt lat="43.4627167" lon="12.102605"><ele>414.66666666666663</ele><time>2026-04-23T16:50:48.03Z</time></trkpt><trkpt lat="43.4627683" lon="12.1026817"><ele>413.3333333333333</ele><time>2026-04-23T16:50:49.025Z</time></trkpt><trkpt lat="43.4628267" lon="12.10275"><ele>412.0</ele><time>2026-04-23T16:50:50.067Z</time></trkpt><trkpt lat="43.462895" lon="12.1028133"><ele>410.66666666666663</ele><time>2026-04-23T16:50:51.035Z</time></trkpt><trkpt lat="43.4629667" lon="12.10287"><ele>409.3333333333333</ele><time>2026-04-23T16:50:52.033Z</time></trkpt><trkpt lat="43.4630417" lon="12.1029217"><ele>408.0</ele><time>2026-04-23T16:50:53.032Z</time></trkpt><trkpt lat="43.4631133" lon="12.10297"><ele>408.1666666666667</ele><time>2026-04-23T16:50:54.035Z</time></trkpt><trkpt lat="43.4631817" lon="12.1030117"><ele>408.33333333333337</ele><time>2026-04-23T16:50:55.035Z</time></trkpt><trkpt lat="43.46324" lon="12.1030517"><ele>408.5</ele><time>2026-04-23T16:50:56.036Z</time></trkpt><trkpt lat="43.46334" lon="12.1031283"><ele>408.6666666666667</ele><time>2026-04-23T16:50:58.033Z</time></trkpt><trkpt lat="43.463415" lon="12.1031933"><ele>408.83333333333337</ele><time>2026-04-23T16:51:00.033Z</time></trkpt><trkpt lat="43.463475" lon="12.1032733"><ele>409.0</ele><time>2026-04-23T16:51:02.081Z</time></trkpt><trkpt lat="43.4635267" lon="12.10336"><ele>409.00000000000006</ele><time>2026-04-23T16:51:04.03Z</time></trkpt><trkpt lat="43.4635667" lon="12.1034467"><ele>409.0</ele><time>2026-04-23T16:51:06.036Z</time></trkpt><trkpt lat="43.4636033" lon="12.103525"><ele>409.0</ele><time>2026-04-23T16:51:08.073Z</time></trkpt><trkpt lat="43.463645" lon="12.1036233"><ele>409.0</ele><time>2026-04-23T16:51:10.016Z</time></trkpt><trkpt lat="43.4636967" lon="12.10372"><ele>409.00000000000006</ele><time>2026-04-23T16:51:12.028Z</time></trkpt><trkpt lat="43.46374" lon="12.103825"><ele>409.0</ele><time>2026-04-23T16:51:14.069Z</time></trkpt><trkpt lat="43.4637867" lon="12.1039233"><ele>408.33333333333337</ele><time>2026-04-23T16:51:16.031Z</time></trkpt><trkpt lat="43.4638417" lon="12.10402"><ele>407.6666666666667</ele><time>2026-04-23T16:51:18.027Z</time></trkpt><trkpt lat="43.4639017" lon="12.1040983"><ele>407.0</ele><time>2026-04-23T16:51:20.069Z</time></trkpt><trkpt lat="43.4639583" lon="12.10417"><ele>406.33333333333337</ele><time>2026-04-23T16:51:22.036Z</time></trkpt><trkpt lat="43.4640133" lon="12.10424"><ele>405.6666666666667</ele><time>2026-04-23T16:51:24.023Z</time></trkpt><trkpt lat="43.46407" lon="12.1043117"><ele>405.0</ele><time>2026-04-23T16:51:26.09Z</time></trkpt><trkpt lat="43.4641233" lon="12.1043883"><ele>405.0</ele><time>2026-04-23T16:51:28.021Z</time></trkpt><trkpt lat="43.464175" lon="12.10447"><ele>405.0</ele><time>2026-04-23T16:51:30.032Z</time></trkpt><trkpt lat="43.464235" lon="12.1045583"><ele>405.0</ele><time>2026-04-23T16:51:32.082Z</time></trkpt><trkpt lat="43.4643" lon="12.1046783"><ele>405.0</ele><time>2026-04-23T16:51:34.035Z</time></trkpt><trkpt lat="43.46436" lon="12.10483"><ele>405.0</ele><time>2026-04-23T16:51:36.036Z</time></trkpt><trkpt lat="43.4643883" lon="12.1049167"><ele>405.1666666666667</ele><time>2026-04-23T16:51:37.031Z</time></trkpt><trkpt lat="43.4644167" lon="12.1050067"><ele>405.33333333333337</ele><time>2026-04-23T16:51:38.071Z</time></trkpt><trkpt lat="43.46444" lon="12.1051"><ele>405.5</ele><time>2026-04-23T16:51:39.037Z</time></trkpt><trkpt lat="43.464475" lon="12.1051983"><ele>405.6666666666667</ele><time>2026-04-23T16:51:40.031Z</time></trkpt><trkpt lat="43.4645183" lon="12.105305"><ele>405.83333333333337</ele><time>2026-04-23T16:51:41.032Z</time></trkpt><trkpt lat="43.4645567" lon="12.1054133"><ele>406.0</ele><time>2026-04-23T16:51:42.033Z</time></trkpt><trkpt lat="43.4645883" lon="12.10553"><ele>402.8</ele><time>2026-04-23T16:51:43.036Z</time></trkpt><trkpt lat="43.4646167" lon="12.1056617"><ele>399.6</ele><time>2026-04-23T16:51:44.062Z</time></trkpt><trkpt lat="43.4646517" lon="12.1057983"><ele>396.4</ele><time>2026-04-23T16:51:45.032Z</time></trkpt><trkpt lat="43.4646983" lon="12.1059283"><ele>393.2</ele><time>2026-04-23T16:51:46.038Z</time></trkpt><trkpt lat="43.4647517" lon="12.1060567"><ele>390.0</ele><time>2026-04-23T16:51:47.028Z</time></trkpt><trkpt lat="43.4647967" lon="12.1061767"><ele>389.8333333333333</ele><time>2026-04-23T16:51:48.037Z</time></trkpt><trkpt lat="43.4648283" lon="12.106295"><ele>389.66666666666663</ele><time>2026-04-23T16:51:49.033Z</time></trkpt><trkpt lat="43.464845" lon="12.1064017"><ele>389.5</ele><time>2026-04-23T16:51:50.073Z</time></trkpt><trkpt lat="43.46486" lon="12.10651"><ele>389.3333333333333</ele><time>2026-04-23T16:51:51.03Z</time></trkpt><trkpt lat="43.4648717" lon="12.1066167"><ele>389.16666666666663</ele><time>2026-04-23T16:51:52.034Z</time></trkpt><trkpt lat="43.4648783" lon="12.106725"><ele>389.0</ele><time>2026-04-23T16:51:53.04Z</time></trkpt><trkpt lat="43.46488" lon="12.1068333"><ele>389.16666666666663</ele><time>2026-04-23T16:51:54.037Z</time></trkpt><trkpt lat="43.4648767" lon="12.10694"><ele>389.3333333333333</ele><time>2026-04-23T16:51:55.039Z</time></trkpt><trkpt lat="43.464875" lon="12.107045"><ele>389.5</ele><time>2026-04-23T16:51:56.03Z</time></trkpt><trkpt lat="43.46488" lon="12.1071533"><ele>389.66666666666663</ele><time>2026-04-23T16:51:57.021Z</time></trkpt><trkpt lat="43.4648917" lon="12.1072583"><ele>389.8333333333333</ele><time>2026-04-23T16:51:58.026Z</time></trkpt><trkpt lat="43.464915" lon="12.1073583"><ele>390.0</ele><time>2026-04-23T16:51:59.029Z</time></trkpt><trkpt lat="43.4649483" lon="12.1074483"><ele>390.0</ele><time>2026-04-23T16:52:00.04Z</time></trkpt><trkpt lat="43.4649883" lon="12.107535"><ele>390.0</ele><time>2026-04-23T16:52:01.037Z</time></trkpt><trkpt lat="43.465025" lon="12.1076183"><ele>390.0</ele><time>2026-04-23T16:52:02.078Z</time></trkpt><trkpt lat="43.4650667" lon="12.1077"><ele>390.0</ele><time>2026-04-23T16:52:03.041Z</time></trkpt><trkpt lat="43.4651083" lon="12.1077783"><ele>390.0</ele><time>2026-04-23T16:52:04.032Z</time></trkpt><trkpt lat="43.4651467" lon="12.1078533"><ele>390.0</ele><time>2026-04-23T16:52:05.036Z</time></trkpt><trkpt lat="43.4651867" lon="12.107925"><ele>390.0</ele><time>2026-04-23T16:52:06.04Z</time></trkpt><trkpt lat="43.465225" lon="12.1079967"><ele>390.0</ele><time>2026-04-23T16:52:07.04Z</time></trkpt><trkpt lat="43.465265" lon="12.1080683"><ele>390.0</ele><time>2026-04-23T16:52:08.067Z</time></trkpt><trkpt lat="43.4653033" lon="12.10814"><ele>390.0</ele><time>2026-04-23T16:52:09.037Z</time></trkpt><trkpt lat="43.4653383" lon="12.1082133"><ele>390.0</ele><time>2026-04-23T16:52:10.036Z</time></trkpt><trkpt lat="43.4654083" lon="12.1083417"><ele>390.0</ele><time>2026-04-23T16:52:12.037Z</time></trkpt><trkpt lat="43.46547" lon="12.10846"><ele>390.0</ele><time>2026-04-23T16:52:14.072Z</time></trkpt><trkpt lat="43.4655267" lon="12.1085667"><ele>390.5</ele><time>2026-04-23T16:52:16.019Z</time></trkpt><trkpt lat="43.4655817" lon="12.1086633"><ele>391.0</ele><time>2026-04-23T16:52:18.027Z</time></trkpt><trkpt lat="43.4656317" lon="12.1087533"><ele>391.5</ele><time>2026-04-23T16:52:20.052Z</time></trkpt><trkpt lat="43.4656733" lon="12.1088433"><ele>392.0</ele><time>2026-04-23T16:52:22.024Z</time></trkpt><trkpt lat="43.4657133" lon="12.1089317"><ele>392.5</ele><time>2026-04-23T16:52:24.018Z</time></trkpt><trkpt lat="43.4657533" lon="12.1090033"><ele>393.0</ele><time>2026-04-23T16:52:26.097Z</time></trkpt><trkpt lat="43.4657983" lon="12.1090983"><ele>393.0</ele><time>2026-04-23T16:52:29.035Z</time></trkpt><trkpt lat="43.4658533" lon="12.1091867"><ele>393.0</ele><time>2026-04-23T16:52:32.034Z</time></trkpt><trkpt lat="43.4659" lon="12.1092817"><ele>393.0</ele><time>2026-04-23T16:52:35.038Z</time></trkpt><trkpt lat="43.4659283" lon="12.1093667"><ele>393.0</ele><time>2026-04-23T16:52:38.055Z</time></trkpt><trkpt lat="43.46597" lon="12.10945"><ele>393.0</ele><time>2026-04-23T16:52:41.034Z</time></trkpt><trkpt lat="43.4660233" lon="12.1095317"><ele>393.0</ele><time>2026-04-23T16:52:44.071Z</time></trkpt><trkpt lat="43.4660783" lon="12.10961"><ele>393.0</ele><time>2026-04-23T16:52:47.037Z</time></trkpt><trkpt lat="43.4661183" lon="12.1097017"><ele>393.0</ele><time>2026-04-23T16:52:50.054Z</time></trkpt><trkpt lat="43.4661683" lon="12.109795"><ele>393.0</ele><time>2026-04-23T16:52:53.038Z</time></trkpt><trkpt lat="43.4662117" lon="12.10989"><ele>393.0</ele><time>2026-04-23T16:52:56.092Z</time></trkpt><trkpt lat="43.4662583" lon="12.1099967"><ele>393.0</ele><time>2026-04-23T16:52:59.034Z</time></trkpt><trkpt lat="43.4663083" lon="12.1100883"><ele>393.0</ele><time>2026-04-23T16:53:02.068Z</time></trkpt><trkpt lat="43.46636" lon="12.1101817"><ele>392.59999999999997</ele><time>2026-04-23T16:53:05.034Z</time></trkpt><trkpt lat="43.46642" lon="12.11029"><ele>392.2</ele><time>2026-04-23T16:53:08.06Z</time></trkpt><trkpt lat="43.4664683" lon="12.1103817"><ele>391.8</ele><time>2026-04-23T16:53:10.032Z</time></trkpt><trkpt lat="43.4665233" lon="12.1104717"><ele>391.4</ele><time>2026-04-23T16:53:12.016Z</time></trkpt><trkpt lat="43.46659" lon="12.110555"><ele>391.0</ele><time>2026-04-23T16:53:14.051Z</time></trkpt><trkpt lat="43.4666683" lon="12.1106317"><ele>391.0</ele><time>2026-04-23T16:53:16.039Z</time></trkpt><trkpt lat="43.46675" lon="12.1107167"><ele>391.0</ele><time>2026-04-23T16:53:18.036Z</time></trkpt><trkpt lat="43.4668217" lon="12.11082"><ele>391.0</ele><time>2026-04-23T16:53:20.073Z</time></trkpt><trkpt lat="43.4669067" lon="12.11095"><ele>391.0</ele><time>2026-04-23T16:53:22.036Z</time></trkpt><trkpt lat="43.4669533" lon="12.1110217"><ele>391.0</ele><time>2026-04-23T16:53:23.037Z</time></trkpt><trkpt lat="43.4670017" lon="12.1110967"><ele>390.83333333333337</ele><time>2026-04-23T16:53:24.034Z</time></trkpt><trkpt lat="43.4670533" lon="12.1111767"><ele>390.6666666666667</ele><time>2026-04-23T16:53:25.041Z</time></trkpt><trkpt lat="43.4671083" lon="12.111255"><ele>390.5</ele><time>2026-04-23T16:53:26.037Z</time></trkpt><trkpt lat="43.4671583" lon="12.11133"><ele>390.33333333333337</ele><time>2026-04-23T16:53:27.035Z</time></trkpt><trkpt lat="43.467225" lon="12.111395"><ele>390.1666666666667</ele><time>2026-04-23T16:53:28.032Z</time></trkpt><trkpt lat="43.4672967" lon="12.111455"><ele>390.0</ele><time>2026-04-23T16:53:29.038Z</time></trkpt><trkpt lat="43.4673667" lon="12.1115167"><ele>391.0</ele><time>2026-04-23T16:53:30.04Z</time></trkpt><trkpt lat="43.4674267" lon="12.111585"><ele>392.0</ele><time>2026-04-23T16:53:31.041Z</time></trkpt><trkpt lat="43.4674767" lon="12.1116483"><ele>393.0</ele><time>2026-04-23T16:53:32.082Z</time></trkpt><trkpt lat="43.4675533" lon="12.1117467"><ele>394.0</ele><time>2026-04-23T16:53:34.037Z</time></trkpt><trkpt lat="43.4676167" lon="12.11182"><ele>395.0</ele><time>2026-04-23T16:53:37.035Z</time></trkpt><trkpt lat="43.4676717" lon="12.1118717"><ele>396.0</ele><time>2026-04-23T16:53:41.036Z</time></trkpt><trkpt lat="43.4677233" lon="12.111925"><ele>396.0</ele><time>2026-04-23T16:53:45.033Z</time></trkpt><trkpt lat="43.4677817" lon="12.1119883"><ele>396.0</ele><time>2026-04-23T16:53:50.058Z</time></trkpt><trkpt lat="43.4678317" lon="12.11205"><ele>396.0</ele><time>2026-04-23T16:53:56.097Z</time></trkpt><trkpt lat="43.4678817" lon="12.112105"><ele>396.0</ele><time>2026-04-23T16:54:01.036Z</time></trkpt><trkpt lat="43.467935" lon="12.112165"><ele>396.0</ele><time>2026-04-23T16:54:06.032Z</time></trkpt><trkpt lat="43.46798" lon="12.1122317"><ele>396.0</ele><time>2026-04-23T16:54:11.029Z</time></trkpt><trkpt lat="43.4680383" lon="12.1123"><ele>396.0</ele><time>2026-04-23T16:54:16.035Z</time></trkpt><trkpt lat="43.4680967" lon="12.1123567"><ele>397.42857142857144</ele><time>2026-04-23T16:54:21.032Z</time></trkpt><trkpt lat="43.46816" lon="12.112415"><ele>398.85714285714283</ele><time>2026-04-23T16:54:26.079Z</time></trkpt><trkpt lat="43.4682083" lon="12.1124917"><ele>400.2857142857143</ele><time>2026-04-23T16:54:30.03Z</time></trkpt><trkpt lat="43.46824" lon="12.1125717"><ele>401.7142857142857</ele><time>2026-04-23T16:54:34.034Z</time></trkpt><trkpt lat="43.4682683" lon="12.11265"><ele>403.1428571428571</ele><time>2026-04-23T16:54:38.055Z</time></trkpt><trkpt lat="43.46829" lon="12.11274"><ele>404.57142857142856</ele><time>2026-04-23T16:54:43.034Z</time></trkpt><trkpt lat="43.4683117" lon="12.112825"><ele>406.0</ele><time>2026-04-23T16:54:48.037Z</time></trkpt><trkpt lat="43.46834" lon="12.1129183"><ele>406.0</ele><time>2026-04-23T16:54:54.035Z</time></trkpt><trkpt lat="43.4683683" lon="12.1130133"><ele>406.0</ele><time>2026-04-23T16:55:00.033Z</time></trkpt><trkpt lat="43.4683983" lon="12.1130967"><ele>406.0</ele><time>2026-04-23T16:55:05.019Z</time></trkpt><trkpt lat="43.4684333" lon="12.1131717"><ele>406.0</ele><time>2026-04-23T16:55:09.032Z</time></trkpt><trkpt lat="43.4684733" lon="12.1132433"><ele>406.0</ele><time>2026-04-23T16:55:13.033Z</time></trkpt><trkpt lat="43.4685133" lon="12.1133117"><ele>406.0</ele><time>2026-04-23T16:55:17.016Z</time></trkpt><trkpt lat="43.4685717" lon="12.1133667"><ele>406.0</ele><time>2026-04-23T16:55:21.035Z</time></trkpt><trkpt lat="43.46862" lon="12.1134383"><ele>407.14285714285717</ele><time>2026-04-23T16:55:25.033Z</time></trkpt><trkpt lat="43.4686683" lon="12.113505"><ele>408.2857142857143</ele><time>2026-04-23T16:55:29.021Z</time></trkpt><trkpt lat="43.46872" lon="12.113575"><ele>409.42857142857144</ele><time>2026-04-23T16:55:33.026Z</time></trkpt><trkpt lat="43.46877" lon="12.1136483"><ele>410.57142857142856</ele><time>2026-04-23T16:55:37.038Z</time></trkpt><trkpt lat="43.468825" lon="12.113715"><ele>411.7142857142857</ele><time>2026-04-23T16:55:41.02Z</time></trkpt><trkpt lat="43.4688733" lon="12.1137867"><ele>412.8571428571429</ele><time>2026-04-23T16:55:45.034Z</time></trkpt><trkpt lat="43.4689067" lon="12.1138667"><ele>414.0</ele><time>2026-04-23T16:55:49.033Z</time></trkpt><trkpt lat="43.4689567" lon="12.1139517"><ele>414.00000000000006</ele><time>2026-04-23T16:55:53.033Z</time></trkpt><trkpt lat="43.4689983" lon="12.1140317"><ele>414.0</ele><time>2026-04-23T16:55:56.037Z</time></trkpt><trkpt lat="43.4690433" lon="12.114115"><ele>414.0</ele><time>2026-04-23T16:55:59.021Z</time></trkpt><trkpt lat="43.469085" lon="12.114195"><ele>414.0</ele><time>2026-04-23T16:56:02.08Z</time></trkpt><trkpt lat="43.4691233" lon="12.11428"><ele>414.0</ele><time>2026-04-23T16:56:05.031Z</time></trkpt><trkpt lat="43.46916" lon="12.1143617"><ele>414.00000000000006</ele><time>2026-04-23T16:56:08.07Z</time></trkpt><trkpt lat="43.4692033" lon="12.1144467"><ele>414.0</ele><time>2026-04-23T16:56:11.031Z</time></trkpt><trkpt lat="43.4692517" lon="12.1145367"><ele>415.3333333333333</ele><time>2026-04-23T16:56:14.071Z</time></trkpt><trkpt lat="43.4692867" lon="12.1146167"><ele>416.66666666666663</ele><time>2026-04-23T16:56:16.035Z</time></trkpt><trkpt lat="43.4693267" lon="12.114705"><ele>418.0</ele><time>2026-04-23T16:56:18.019Z</time></trkpt><trkpt lat="43.4693633" lon="12.11481"><ele>419.3333333333333</ele><time>2026-04-23T16:56:20.07Z</time></trkpt><trkpt lat="43.4694033" lon="12.1149183"><ele>420.66666666666663</ele><time>2026-04-23T16:56:22.018Z</time></trkpt><trkpt lat="43.4694583" lon="12.11503"><ele>422.0</ele><time>2026-04-23T16:56:24.033Z</time></trkpt><trkpt lat="43.4695333" lon="12.11513"><ele>421.0</ele><time>2026-04-23T16:56:26.08Z</time></trkpt><trkpt lat="43.4696317" lon="12.1152233"><ele>420.0</ele><time>2026-04-23T16:56:28.033Z</time></trkpt><trkpt lat="43.4696817" lon="12.1152817"><ele>419.0</ele><time>2026-04-23T16:56:29.034Z</time></trkpt><trkpt lat="43.469735" lon="12.1153317"><ele>418.0</ele><time>2026-04-23T16:56:30.034Z</time></trkpt><trkpt lat="43.4698283" lon="12.1154233"><ele>417.0</ele><time>2026-04-23T16:56:32.082Z</time></trkpt><trkpt lat="43.4699167" lon="12.1155083"><ele>417.0</ele><time>2026-04-23T16:56:34.034Z</time></trkpt><trkpt lat="43.4700267" lon="12.115575"><ele>417.0</ele><time>2026-04-23T16:56:36.032Z</time></trkpt><trkpt lat="43.4700833" lon="12.115625"><ele>417.0</ele><time>2026-04-23T16:56:37.034Z</time></trkpt><trkpt lat="43.4701467" lon="12.1156767"><ele>417.0</ele><time>2026-04-23T16:56:38.072Z</time></trkpt><trkpt lat="43.47021" lon="12.11573"><ele>417.0</ele><time>2026-04-23T16:56:39.035Z</time></trkpt><trkpt lat="43.470275" lon="12.1157833"><ele>417.0</ele><time>2026-04-23T16:56:40.031Z</time></trkpt><trkpt lat="43.47033" lon="12.1158367"><ele>417.1666666666667</ele><time>2026-04-23T16:56:41.033Z</time></trkpt><trkpt lat="43.4703867" lon="12.1158883"><ele>417.33333333333337</ele><time>2026-04-23T16:56:42.033Z</time></trkpt><trkpt lat="43.4704483" lon="12.115935"><ele>417.5</ele><time>2026-04-23T16:56:43.035Z</time></trkpt><trkpt lat="43.4705067" lon="12.11598"><ele>417.6666666666667</ele><time>2026-04-23T16:56:44.068Z</time></trkpt><trkpt lat="43.47059" lon="12.1160817"><ele>417.83333333333337</ele><time>2026-04-23T16:56:46.026Z</time></trkpt><trkpt lat="43.4706333" lon="12.1162183"><ele>418.0</ele><time>2026-04-23T16:56:48.033Z</time></trkpt><trkpt lat="43.470665" lon="12.1163733"><ele>415.79999999999995</ele><time>2026-04-23T16:56:50.072Z</time></trkpt><trkpt lat="43.470685" lon="12.11651"><ele>413.6</ele><time>2026-04-23T16:56:52.037Z</time></trkpt><trkpt lat="43.4706967" lon="12.1166383"><ele>411.4</ele><time>2026-04-23T16:56:54.035Z</time></trkpt><trkpt lat="43.470705" lon="12.1167633"><ele>409.20000000000005</ele><time>2026-04-23T16:56:56.077Z</time></trkpt><trkpt lat="43.4707167" lon="12.1169133"><ele>407.0</ele><time>2026-04-23T16:56:58.032Z</time></trkpt><trkpt lat="43.4707267" lon="12.117005"><ele>407.0</ele><time>2026-04-23T16:56:59.035Z</time></trkpt><trkpt lat="43.4707383" lon="12.1170933"><ele>407.0</ele><time>2026-04-23T16:57:00.034Z</time></trkpt><trkpt lat="43.4707617" lon="12.11726"><ele>407.0</ele><time>2026-04-23T16:57:02.035Z</time></trkpt><trkpt lat="43.4707717" lon="12.1174233"><ele>407.0</ele><time>2026-04-23T16:57:04.036Z</time></trkpt><trkpt lat="43.47077" lon="12.117555"><ele>407.0</ele><time>2026-04-23T16:57:06.024Z</time></trkpt><trkpt lat="43.470785" lon="12.1177117"><ele>406.7142857142857</ele><time>2026-04-23T16:57:08.068Z</time></trkpt><trkpt lat="43.4707883" lon="12.1178033"><ele>406.42857142857144</ele><time>2026-04-23T16:57:09.032Z</time></trkpt><trkpt lat="43.47079" lon="12.1178983"><ele>406.1428571428571</ele><time>2026-04-23T16:57:10.034Z</time></trkpt><trkpt lat="43.4707933" lon="12.118"><ele>405.8571428571429</ele><time>2026-04-23T16:57:11.032Z</time></trkpt><trkpt lat="43.4708017" lon="12.1181033"><ele>405.57142857142856</ele><time>2026-04-23T16:57:12.037Z</time></trkpt><trkpt lat="43.4708117" lon="12.118205"><ele>405.2857142857143</ele><time>2026-04-23T16:57:13.034Z</time></trkpt><trkpt lat="43.4708133" lon="12.118305"><ele>405.0</ele><time>2026-04-23T16:57:14.072Z</time></trkpt><trkpt lat="43.4708167" lon="12.1184067"><ele>403.8333333333333</ele><time>2026-04-23T16:57:15.034Z</time></trkpt><trkpt lat="43.4708267" lon="12.1185133"><ele>402.66666666666663</ele><time>2026-04-23T16:57:16.037Z</time></trkpt><trkpt lat="43.4708433" lon="12.1186283"><ele>401.5</ele><time>2026-04-23T16:57:17.033Z</time></trkpt><trkpt lat="43.47086" lon="12.11874"><ele>400.3333333333333</ele><time>2026-04-23T16:57:18.034Z</time></trkpt><trkpt lat="43.4708733" lon="12.1188533"><ele>399.16666666666663</ele><time>2026-04-23T16:57:19.033Z</time></trkpt><trkpt lat="43.4708883" lon="12.1189683"><ele>398.0</ele><time>2026-04-23T16:57:20.07Z</time></trkpt><trkpt lat="43.4709017" lon="12.119085"><ele>396.8333333333333</ele><time>2026-04-23T16:57:21.035Z</time></trkpt><trkpt lat="43.470915" lon="12.1192017"><ele>395.66666666666663</ele><time>2026-04-23T16:57:22.035Z</time></trkpt><trkpt lat="43.470925" lon="12.11932"><ele>394.5</ele><time>2026-04-23T16:57:23.04Z</time></trkpt><trkpt lat="43.4709333" lon="12.1194383"><ele>393.33333333333337</ele><time>2026-04-23T16:57:24.03Z</time></trkpt><trkpt lat="43.4709433" lon="12.1195567"><ele>392.1666666666667</ele><time>2026-04-23T16:57:25.033Z</time></trkpt><trkpt lat="43.470955" lon="12.119675"><ele>391.0</ele><time>2026-04-23T16:57:26.092Z</time></trkpt><trkpt lat="43.4709633" lon="12.1197867"><ele>391.00000000000006</ele><time>2026-04-23T16:57:27.029Z</time></trkpt><trkpt lat="43.4709583" lon="12.119895"><ele>391.0</ele><time>2026-04-23T16:57:28.033Z</time></trkpt><trkpt lat="43.470935" lon="12.1199917"><ele>391.0</ele><time>2026-04-23T16:57:29.034Z</time></trkpt><trkpt lat="43.470905" lon="12.1200817"><ele>391.0</ele><time>2026-04-23T16:57:30.034Z</time></trkpt><trkpt lat="43.4708783" lon="12.120165"><ele>391.00000000000006</ele><time>2026-04-23T16:57:31.032Z</time></trkpt><trkpt lat="43.4708417" lon="12.1202983"><ele>391.0</ele><time>2026-04-23T16:57:33.032Z</time></trkpt><trkpt lat="43.470825" lon="12.12039"><ele>391.1428571428571</ele><time>2026-04-23T16:57:35.024Z</time></trkpt><trkpt lat="43.470815" lon="12.12048"><ele>391.2857142857143</ele><time>2026-04-23T16:57:38.071Z</time></trkpt><trkpt lat="43.4708133" lon="12.1205733"><ele>391.42857142857144</ele><time>2026-04-23T16:57:41.021Z</time></trkpt><trkpt lat="43.4708133" lon="12.120675"><ele>391.57142857142856</ele><time>2026-04-23T16:57:45.019Z</time></trkpt><trkpt lat="43.4708083" lon="12.120775"><ele>391.7142857142857</ele><time>2026-04-23T16:57:49.018Z</time></trkpt><trkpt lat="43.4708133" lon="12.1208833"><ele>391.85714285714283</ele><time>2026-04-23T16:57:53.031Z</time></trkpt><trkpt lat="43.4708233" lon="12.12097"><ele>392.0</ele><time>2026-04-23T16:57:56.024Z</time></trkpt><trkpt lat="43.470845" lon="12.1210583"><ele>391.99999999999994</ele><time>2026-04-23T16:57:59.028Z</time></trkpt><trkpt lat="43.4708867" lon="12.1211567"><ele>392.0</ele><time>2026-04-23T16:58:02.078Z</time></trkpt><trkpt lat="43.47093" lon="12.1212267"><ele>392.0</ele><time>2026-04-23T16:58:04.025Z</time></trkpt><trkpt lat="43.4709883" lon="12.1213067"><ele>392.0</ele><time>2026-04-23T16:58:06.018Z</time></trkpt><trkpt lat="43.4710617" lon="12.121405"><ele>391.99999999999994</ele><time>2026-04-23T16:58:08.07Z</time></trkpt><trkpt lat="43.471145" lon="12.121495"><ele>392.0</ele><time>2026-04-23T16:58:10.037Z</time></trkpt><trkpt lat="43.4712233" lon="12.1215783"><ele>391.66666666666663</ele><time>2026-04-23T16:58:12.034Z</time></trkpt><trkpt lat="43.4712967" lon="12.1216567"><ele>391.3333333333333</ele><time>2026-04-23T16:58:14.071Z</time></trkpt><trkpt lat="43.4713667" lon="12.1217267"><ele>391.0</ele><time>2026-04-23T16:58:16.021Z</time></trkpt><trkpt lat="43.4714183" lon="12.1217833"><ele>390.66666666666663</ele><time>2026-04-23T16:58:18.031Z</time></trkpt><trkpt lat="43.47148" lon="12.1218417"><ele>390.3333333333333</ele><time>2026-04-23T16:58:21.03Z</time></trkpt><trkpt lat="43.4715433" lon="12.1219167"><ele>390.0</ele><time>2026-04-23T16:58:25.031Z</time></trkpt><trkpt lat="43.4715933" lon="12.1219717"><ele>390.0</ele><time>2026-04-23T16:58:28.034Z</time></trkpt><trkpt lat="43.4716367" lon="12.1220383"><ele>390.0</ele><time>2026-04-23T16:58:31.03Z</time></trkpt><trkpt lat="43.4716917" lon="12.122115"><ele>390.0</ele><time>2026-04-23T16:58:35.024Z</time></trkpt><trkpt lat="43.4717533" lon="12.1221817"><ele>390.0</ele><time>2026-04-23T16:58:39.031Z</time></trkpt><trkpt lat="43.47182" lon="12.122225"><ele>390.0</ele><time>2026-04-23T16:58:44.075Z</time></trkpt><trkpt lat="43.4718733" lon="12.1222717"><ele>390.0</ele><time>2026-04-23T16:58:48.036Z</time></trkpt><trkpt lat="43.4719367" lon="12.1223167"><ele>390.0</ele><time>2026-04-23T16:58:52.029Z</time></trkpt><trkpt lat="43.4720083" lon="12.12238"><ele>390.0</ele><time>2026-04-23T16:58:55.034Z</time></trkpt><trkpt lat="43.4720783" lon="12.1224633"><ele>390.0</ele><time>2026-04-23T16:58:58.031Z</time></trkpt><trkpt lat="43.4721417" lon="12.122525"><ele>390.0</ele><time>2026-04-23T16:59:00.037Z</time></trkpt><trkpt lat="43.4722117" lon="12.1225417"><ele>390.0</ele><time>2026-04-23T16:59:02.077Z</time></trkpt><trkpt lat="43.4722783" lon="12.122555"><ele>390.0</ele><time>2026-04-23T16:59:06.022Z</time></trkpt><trkpt lat="43.472325" lon="12.1226133"><ele>390.0</ele><time>2026-04-23T16:59:12.029Z</time></trkpt><trkpt lat="43.4724033" lon="12.12263"><ele>390.0</ele><time>2026-04-23T16:59:23.026Z</time></trkpt><trkpt lat="43.4725183" lon="12.1226817"><ele>390.0</ele><time>2026-04-23T16:59:38.054Z</time></trkpt><trkpt lat="43.4725767" lon="12.1227267"><ele>390.0</ele><time>2026-04-23T16:59:47.033Z</time></trkpt><trkpt lat="43.4726383" lon="12.122775"><ele>390.0</ele><time>2026-04-23T16:59:53.019Z</time></trkpt><trkpt lat="43.4726967" lon="12.12281"><ele>390.0</ele><time>2026-04-23T16:59:58.031Z</time></trkpt><trkpt lat="43.4727583" lon="12.1228567"><ele>390.0</ele><time>2026-04-23T17:00:03.032Z</time></trkpt><trkpt lat="43.4728133" lon="12.1229017"><ele>390.0</ele><time>2026-04-23T17:00:07.033Z</time></trkpt><trkpt lat="43.4728667" lon="12.1229717"><ele>390.0</ele><time>2026-04-23T17:00:13.017Z</time></trkpt><trkpt lat="43.4729317" lon="12.123015"><ele>390.0</ele><time>2026-04-23T17:00:19.023Z</time></trkpt><trkpt lat="43.472995" lon="12.12305"><ele>390.0</ele><time>2026-04-23T17:00:25.032Z</time></trkpt><trkpt lat="43.4730583" lon="12.12309"><ele>390.0</ele><time>2026-04-23T17:00:31.03Z</time></trkpt><trkpt lat="43.4731317" lon="12.1231283"><ele>390.0</ele><time>2026-04-23T17:00:36.018Z</time></trkpt><trkpt lat="43.4732067" lon="12.12317"><ele>390.0</ele><time>2026-04-23T17:00:39.035Z</time></trkpt><trkpt lat="43.4732683" lon="12.1232133"><ele>389.57142857142856</ele><time>2026-04-23T17:00:41.996Z</time></trkpt><trkpt lat="43.473345" lon="12.1232617"><ele>389.1428571428571</ele><time>2026-04-23T17:00:45.007Z</time></trkpt><trkpt lat="43.4734067" lon="12.1232817"><ele>388.7142857142857</ele><time>2026-04-23T17:00:47.013Z</time></trkpt><trkpt lat="43.473475" lon="12.1232933"><ele>388.2857142857143</ele><time>2026-04-23T17:00:49.017Z</time></trkpt><trkpt lat="43.47354" lon="12.1233133"><ele>387.8571428571429</ele><time>2026-04-23T17:00:51.007Z</time></trkpt><trkpt lat="43.47361" lon="12.1233367"><ele>387.42857142857144</ele><time>2026-04-23T17:00:53.011Z</time></trkpt><trkpt lat="43.4736867" lon="12.1233667"><ele>387.0</ele><time>2026-04-23T17:00:55.032Z</time></trkpt><trkpt lat="43.4737567" lon="12.12341"><ele>386.7142857142857</ele><time>2026-04-23T17:00:57.036Z</time></trkpt><trkpt lat="43.4738217" lon="12.12345"><ele>386.42857142857144</ele><time>2026-04-23T17:00:59.021Z</time></trkpt><trkpt lat="43.4738767" lon="12.1234983"><ele>386.1428571428571</ele><time>2026-04-23T17:01:02.08Z</time></trkpt><trkpt lat="43.4739" lon="12.12358"><ele>385.8571428571429</ele><time>2026-04-23T17:01:05.034Z</time></trkpt><trkpt lat="43.473945" lon="12.1236767"><ele>385.57142857142856</ele><time>2026-04-23T17:01:08.068Z</time></trkpt><trkpt lat="43.4739867" lon="12.123755"><ele>385.2857142857143</ele><time>2026-04-23T17:01:10.031Z</time></trkpt><trkpt lat="43.4739933" lon="12.1238633"><ele>385.0</ele><time>2026-04-23T17:01:13.02Z</time></trkpt><trkpt lat="43.4739733" lon="12.1239583"><ele>384.7142857142857</ele><time>2026-04-23T17:01:16.033Z</time></trkpt><trkpt lat="43.473975" lon="12.1240633"><ele>384.42857142857144</ele><time>2026-04-23T17:01:21.021Z</time></trkpt><trkpt lat="43.4740617" lon="12.12412"><ele>384.1428571428571</ele><time>2026-04-23T17:01:24.035Z</time></trkpt><trkpt lat="43.474125" lon="12.1241533"><ele>383.8571428571429</ele><time>2026-04-23T17:01:26.036Z</time></trkpt><trkpt lat="43.4741917" lon="12.1241867"><ele>383.57142857142856</ele><time>2026-04-23T17:01:29.022Z</time></trkpt><trkpt lat="43.4742533" lon="12.1242083"><ele>383.2857142857143</ele><time>2026-04-23T17:01:32.062Z</time></trkpt><trkpt lat="43.4743167" lon="12.1242233"><ele>383.0</ele><time>2026-04-23T17:01:35.035Z</time></trkpt><trkpt lat="43.4743817" lon="12.12426"><ele>383.0</ele><time>2026-04-23T17:01:39.019Z</time></trkpt><trkpt lat="43.474455" lon="12.12429"><ele>383.0</ele><time>2026-04-23T17:01:43.035Z</time></trkpt><trkpt lat="43.47452" lon="12.1243117"><ele>383.0</ele><time>2026-04-23T17:01:48.033Z</time></trkpt><trkpt lat="43.4745767" lon="12.1243867"><ele>383.0</ele><time>2026-04-23T17:01:53.036Z</time></trkpt><trkpt lat="43.4746167" lon="12.1244683"><ele>383.0</ele><time>2026-04-23T17:01:57.028Z</time></trkpt><trkpt lat="43.4746483" lon="12.1245633"><ele>383.0</ele><time>2026-04-23T17:02:01.031Z</time></trkpt><trkpt lat="43.4746717" lon="12.1246467"><ele>383.0</ele><time>2026-04-23T17:02:04.018Z</time></trkpt><trkpt lat="43.4746933" lon="12.1247317"><ele>382.83333333333337</ele><time>2026-04-23T17:02:07.031Z</time></trkpt><trkpt lat="43.4747317" lon="12.124805"><ele>382.6666666666667</ele><time>2026-04-23T17:02:10.034Z</time></trkpt><trkpt lat="43.4748017" lon="12.1247883"><ele>382.5</ele><time>2026-04-23T17:02:14.071Z</time></trkpt><trkpt lat="43.4748683" lon="12.124755"><ele>382.3333333333333</ele><time>2026-04-23T17:02:18.037Z</time></trkpt><trkpt lat="43.4749083" lon="12.12484"><ele>382.16666666666663</ele><time>2026-04-23T17:02:23.03Z</time></trkpt><trkpt lat="43.4749083" lon="12.12497"><ele>382.0</ele><time>2026-04-23T17:02:26.089Z</time></trkpt><trkpt lat="43.47493" lon="12.1250683"><ele>382.0</ele><time>2026-04-23T17:02:28.019Z</time></trkpt><trkpt lat="43.4749617" lon="12.1251717"><ele>382.0</ele><time>2026-04-23T17:02:31.027Z</time></trkpt><trkpt lat="43.47499" lon="12.1252717"><ele>382.0</ele><time>2026-04-23T17:02:33.031Z</time></trkpt><trkpt lat="43.4750283" lon="12.12538"><ele>382.0</ele><time>2026-04-23T17:02:35.031Z</time></trkpt><trkpt lat="43.4750633" lon="12.12547"><ele>382.0</ele><time>2026-04-23T17:02:37.035Z</time></trkpt><trkpt lat="43.4750933" lon="12.12557"><ele>382.0</ele><time>2026-04-23T17:02:40.023Z</time></trkpt><trkpt lat="43.475085" lon="12.1256583"><ele>382.0</ele><time>2026-04-23T17:02:43.03Z</time></trkpt><trkpt lat="43.475035" lon="12.1257267"><ele>382.0</ele><time>2026-04-23T17:02:46.019Z</time></trkpt><trkpt lat="43.47499" lon="12.1258117"><ele>382.0</ele><time>2026-04-23T17:02:49.032Z</time></trkpt><trkpt lat="43.47503" lon="12.125905"><ele>382.0</ele><time>2026-04-23T17:02:52.033Z</time></trkpt><trkpt lat="43.4751083" lon="12.1259683"><ele>382.0</ele><time>2026-04-23T17:02:55.032Z</time></trkpt><trkpt lat="43.4751933" lon="12.1260017"><ele>382.0</ele><time>2026-04-23T17:02:58.021Z</time></trkpt><trkpt lat="43.4752583" lon="12.1260333"><ele>380.0</ele><time>2026-04-23T17:03:00.026Z</time></trkpt><trkpt lat="43.4753167" lon="12.1260833"><ele>378.0</ele><time>2026-04-23T17:03:02.032Z</time></trkpt><trkpt lat="43.4753933" lon="12.1261283"><ele>376.0</ele><time>2026-04-23T17:03:05.031Z</time></trkpt><trkpt lat="43.4754367" lon="12.1261917"><ele>374.0</ele><time>2026-04-23T17:03:07.019Z</time></trkpt><trkpt lat="43.4754817" lon="12.126265"><ele>372.0</ele><time>2026-04-23T17:03:09.009Z</time></trkpt><trkpt lat="43.475535" lon="12.12635"><ele>370.0</ele><time>2026-04-23T17:03:11.02Z</time></trkpt><trkpt lat="43.4755867" lon="12.1264367"><ele>368.0</ele><time>2026-04-23T17:03:13.018Z</time></trkpt><trkpt lat="43.4756633" lon="12.1265133"><ele>365.59999999999997</ele><time>2026-04-23T17:03:16.034Z</time></trkpt><trkpt lat="43.47573" lon="12.1265417"><ele>363.2</ele><time>2026-04-23T17:03:18.036Z</time></trkpt><trkpt lat="43.4758333" lon="12.1265517"><ele>360.8</ele><time>2026-04-23T17:03:20.061Z</time></trkpt><trkpt lat="43.475945" lon="12.1265567"><ele>358.4</ele><time>2026-04-23T17:03:22.032Z</time></trkpt><trkpt lat="43.4760467" lon="12.1265567"><ele>356.0</ele><time>2026-04-23T17:03:24.033Z</time></trkpt><trkpt lat="43.4761317" lon="12.1265617"><ele>356.0</ele><time>2026-04-23T17:03:26.019Z</time></trkpt><trkpt lat="43.4761983" lon="12.12654"><ele>356.0</ele><time>2026-04-23T17:03:28.024Z</time></trkpt><trkpt lat="43.4762683" lon="12.1265067"><ele>356.0</ele><time>2026-04-23T17:03:30.024Z</time></trkpt><trkpt lat="43.476355" lon="12.1264633"><ele>356.0</ele><time>2026-04-23T17:03:32.076Z</time></trkpt><trkpt lat="43.4764483" lon="12.1264167"><ele>356.0</ele><time>2026-04-23T17:03:34.035Z</time></trkpt><trkpt lat="43.47653" lon="12.126365"><ele>356.0</ele><time>2026-04-23T17:03:36.035Z</time></trkpt><trkpt lat="43.4765883" lon="12.1263283"><ele>353.0</ele><time>2026-04-23T17:03:38.051Z</time></trkpt><trkpt lat="43.4766333" lon="12.1264133"><ele>350.0</ele><time>2026-04-23T17:03:41.032Z</time></trkpt><trkpt lat="43.4766467" lon="12.126515"><ele>347.0</ele><time>2026-04-23T17:03:43.03Z</time></trkpt><trkpt lat="43.47667" lon="12.1266467"><ele>344.0</ele><time>2026-04-23T17:03:45.032Z</time></trkpt><trkpt lat="43.4767167" lon="12.126765"><ele>341.0</ele><time>2026-04-23T17:03:47.032Z</time></trkpt><trkpt lat="43.4767733" lon="12.1268367"><ele>338.0</ele><time>2026-04-23T17:03:49.02Z</time></trkpt><trkpt lat="43.4768583" lon="12.1268717"><ele>337.1666666666667</ele><time>2026-04-23T17:03:51.032Z</time></trkpt><trkpt lat="43.476925" lon="12.1269267"><ele>336.33333333333337</ele><time>2026-04-23T17:03:53.021Z</time></trkpt><trkpt lat="43.47697" lon="12.1269983"><ele>335.5</ele><time>2026-04-23T17:03:55.032Z</time></trkpt><trkpt lat="43.4769733" lon="12.1271217"><ele>334.6666666666667</ele><time>2026-04-23T17:03:58.021Z</time></trkpt><trkpt lat="43.4769333" lon="12.1272167"><ele>333.8333333333333</ele><time>2026-04-23T17:04:00.031Z</time></trkpt><trkpt lat="43.47687" lon="12.1273167"><ele>333.0</ele><time>2026-04-23T17:04:02.081Z</time></trkpt><trkpt lat="43.47679" lon="12.1274267"><ele>331.5</ele><time>2026-04-23T17:04:04.029Z</time></trkpt><trkpt lat="43.4767067" lon="12.1275667"><ele>330.0</ele><time>2026-04-23T17:04:06.033Z</time></trkpt><trkpt lat="43.4766667" lon="12.12764"><ele>328.5</ele><time>2026-04-23T17:04:07.032Z</time></trkpt><trkpt lat="43.476625" lon="12.12771"><ele>327.0</ele><time>2026-04-23T17:04:08.066Z</time></trkpt><trkpt lat="43.476575" lon="12.1277833"><ele>325.5</ele><time>2026-04-23T17:04:09.033Z</time></trkpt><trkpt lat="43.4765217" lon="12.12785"><ele>324.0</ele><time>2026-04-23T17:04:10.032Z</time></trkpt><trkpt lat="43.4764717" lon="12.1279133"><ele>324.0</ele><time>2026-04-23T17:04:11.035Z</time></trkpt><trkpt lat="43.4763983" lon="12.1280117"><ele>324.0</ele><time>2026-04-23T17:04:13.036Z</time></trkpt><trkpt lat="43.4763417" lon="12.1280917"><ele>324.0</ele><time>2026-04-23T17:04:15.031Z</time></trkpt><trkpt lat="43.4763117" lon="12.1282"><ele>324.0</ele><time>2026-04-23T17:04:18.028Z</time></trkpt><trkpt lat="43.47636" lon="12.1282733"><ele>324.0</ele><time>2026-04-23T17:04:21.029Z</time></trkpt><trkpt lat="43.47643" lon="12.128275"><ele>324.0</ele><time>2026-04-23T17:04:24.034Z</time></trkpt><trkpt lat="43.476495" lon="12.128255"><ele>324.0</ele><time>2026-04-23T17:04:27.017Z</time></trkpt><trkpt lat="43.4765633" lon="12.128235"><ele>324.0</ele><time>2026-04-23T17:04:30.005Z</time></trkpt><trkpt lat="43.476645" lon="12.1282133"><ele>324.0</ele><time>2026-04-23T17:04:34.013Z</time></trkpt><trkpt lat="43.476725" lon="12.1281933"><ele>324.0</ele><time>2026-04-23T17:04:38.05Z</time></trkpt><trkpt lat="43.4767983" lon="12.1281733"><ele>324.0</ele><time>2026-04-23T17:04:41.011Z</time></trkpt><trkpt lat="43.4768617" lon="12.1281583"><ele>324.0</ele><time>2026-04-23T17:04:43.03Z</time></trkpt><trkpt lat="43.4769283" lon="12.128135"><ele>324.0</ele><time>2026-04-23T17:04:45.019Z</time></trkpt><trkpt lat="43.4770167" lon="12.1280983"><ele>324.0</ele><time>2026-04-23T17:04:48.037Z</time></trkpt><trkpt lat="43.4771" lon="12.12805"><ele>324.0</ele><time>2026-04-23T17:04:51.029Z</time></trkpt><trkpt lat="43.4771883" lon="12.1280033"><ele>324.0</ele><time>2026-04-23T17:04:54.03Z</time></trkpt><trkpt lat="43.4772483" lon="12.1279683"><ele>324.0</ele><time>2026-04-23T17:04:56.074Z</time></trkpt><trkpt lat="43.4773133" lon="12.1279283"><ele>324.0</ele><time>2026-04-23T17:04:58.018Z</time></trkpt><trkpt lat="43.47738" lon="12.1278833"><ele>324.0</ele><time>2026-04-23T17:05:00.036Z</time></trkpt><trkpt lat="43.4774533" lon="12.1278417"><ele>322.1666666666667</ele><time>2026-04-23T17:05:02.029Z</time></trkpt><trkpt lat="43.4775267" lon="12.127795"><ele>320.3333333333333</ele><time>2026-04-23T17:05:04.027Z</time></trkpt><trkpt lat="43.4775967" lon="12.1277367"><ele>318.5</ele><time>2026-04-23T17:05:06.03Z</time></trkpt><trkpt lat="43.4776667" lon="12.1276717"><ele>316.66666666666663</ele><time>2026-04-23T17:05:08.048Z</time></trkpt><trkpt lat="43.4777333" lon="12.1276017"><ele>314.8333333333333</ele><time>2026-04-23T17:05:10.017Z</time></trkpt><trkpt lat="43.4777983" lon="12.127525"><ele>313.0</ele><time>2026-04-23T17:05:12.031Z</time></trkpt><trkpt lat="43.4778633" lon="12.1274483"><ele>312.3333333333333</ele><time>2026-04-23T17:05:14.054Z</time></trkpt><trkpt lat="43.47793" lon="12.12737"><ele>311.66666666666663</ele><time>2026-04-23T17:05:16.032Z</time></trkpt><trkpt lat="43.477995" lon="12.1272967"><ele>311.0</ele><time>2026-04-23T17:05:18.031Z</time></trkpt><trkpt lat="43.47806" lon="12.1272183"><ele>310.3333333333333</ele><time>2026-04-23T17:05:20.053Z</time></trkpt><trkpt lat="43.47812" lon="12.1271433"><ele>309.6666666666667</ele><time>2026-04-23T17:05:22.03Z</time></trkpt><trkpt lat="43.4781717" lon="12.1270517"><ele>309.0</ele><time>2026-04-23T17:05:25.032Z</time></trkpt><trkpt lat="43.4782133" lon="12.126965"><ele>309.0</ele><time>2026-04-23T17:05:29.033Z</time></trkpt><trkpt lat="43.4782567" lon="12.1268983"><ele>309.0</ele><time>2026-04-23T17:05:36.031Z</time></trkpt><trkpt lat="43.478315" lon="12.126955"><ele>309.0</ele><time>2026-04-23T17:05:39.029Z</time></trkpt><trkpt lat="43.478385" lon="12.1270483"><ele>309.0</ele><time>2026-04-23T17:05:41.034Z</time></trkpt><trkpt lat="43.4784717" lon="12.1271833"><ele>309.0</ele><time>2026-04-23T17:05:43.035Z</time></trkpt><trkpt lat="43.4785167" lon="12.1272617"><ele>309.0</ele><time>2026-04-23T17:05:44.068Z</time></trkpt><trkpt lat="43.4785583" lon="12.1273367"><ele>308.2</ele><time>2026-04-23T17:05:45.033Z</time></trkpt><trkpt lat="43.4785883" lon="12.127415"><ele>307.4</ele><time>2026-04-23T17:05:46.031Z</time></trkpt><trkpt lat="43.4786267" lon="12.1275633"><ele>306.6</ele><time>2026-04-23T17:05:48.032Z</time></trkpt><trkpt lat="43.47868" lon="12.1277017"><ele>305.8</ele><time>2026-04-23T17:05:50.065Z</time></trkpt><trkpt lat="43.4787483" lon="12.1278317"><ele>305.0</ele><time>2026-04-23T17:05:52.031Z</time></trkpt><trkpt lat="43.4787983" lon="12.1279817"><ele>305.0</ele><time>2026-04-23T17:05:54.03Z</time></trkpt><trkpt lat="43.4787783" lon="12.1281183"><ele>305.0</ele><time>2026-04-23T17:05:56.092Z</time></trkpt><trkpt lat="43.4787283" lon="12.128225"><ele>305.0</ele><time>2026-04-23T17:05:58.03Z</time></trkpt><trkpt lat="43.4786833" lon="12.1283233"><ele>305.0</ele><time>2026-04-23T17:06:00.019Z</time></trkpt><trkpt lat="43.4786517" lon="12.1284217"><ele>305.0</ele><time>2026-04-23T17:06:02.067Z</time></trkpt><trkpt lat="43.4786333" lon="12.1285133"><ele>305.0</ele><time>2026-04-23T17:06:04.031Z</time></trkpt><trkpt lat="43.4786283" lon="12.128605"><ele>304.5714285714286</ele><time>2026-04-23T17:06:06.012Z</time></trkpt><trkpt lat="43.4786283" lon="12.1286983"><ele>304.1428571428571</ele><time>2026-04-23T17:06:08.068Z</time></trkpt><trkpt lat="43.47863" lon="12.1287883"><ele>303.7142857142857</ele><time>2026-04-23T17:06:10.032Z</time></trkpt><trkpt lat="43.478635" lon="12.1289117"><ele>303.28571428571433</ele><time>2026-04-23T17:06:13.031Z</time></trkpt><trkpt lat="43.47864" lon="12.1290067"><ele>302.8571428571429</ele><time>2026-04-23T17:06:16.019Z</time></trkpt><trkpt lat="43.4786383" lon="12.129105"><ele>302.42857142857144</ele><time>2026-04-23T17:06:19.012Z</time></trkpt><trkpt lat="43.4786267" lon="12.12922"><ele>302.0</ele><time>2026-04-23T17:06:22.037Z</time></trkpt><trkpt lat="43.4786133" lon="12.12931"><ele>302.00000000000006</ele><time>2026-04-23T17:06:24.029Z</time></trkpt><trkpt lat="43.4785917" lon="12.12943"><ele>302.0</ele><time>2026-04-23T17:06:27.03Z</time></trkpt><trkpt lat="43.478575" lon="12.129545"><ele>302.0</ele><time>2026-04-23T17:06:30.03Z</time></trkpt><trkpt lat="43.478565" lon="12.1296367"><ele>302.0</ele><time>2026-04-23T17:06:32.067Z</time></trkpt><trkpt lat="43.478545" lon="12.1297267"><ele>302.0</ele><time>2026-04-23T17:06:34.025Z</time></trkpt><trkpt lat="43.4785317" lon="12.1298183"><ele>302.00000000000006</ele><time>2026-04-23T17:06:36.03Z</time></trkpt><trkpt lat="43.4785183" lon="12.1299083"><ele>302.0</ele><time>2026-04-23T17:06:38.065Z</time></trkpt><trkpt lat="43.47851" lon="12.1299983"><ele>302.14285714285717</ele><time>2026-04-23T17:06:40.032Z</time></trkpt><trkpt lat="43.478505" lon="12.130085"><ele>302.2857142857143</ele><time>2026-04-23T17:06:42.034Z</time></trkpt><trkpt lat="43.4784967" lon="12.130175"><ele>302.42857142857144</ele><time>2026-04-23T17:06:44.054Z</time></trkpt><trkpt lat="43.4784867" lon="12.1302683"><ele>302.57142857142856</ele><time>2026-04-23T17:06:46.031Z</time></trkpt><trkpt lat="43.4784783" lon="12.1303967"><ele>302.7142857142857</ele><time>2026-04-23T17:06:49.032Z</time></trkpt><trkpt lat="43.4784783" lon="12.1304867"><ele>302.8571428571429</ele><time>2026-04-23T17:06:51.03Z</time></trkpt><trkpt lat="43.4784883" lon="12.1306133"><ele>303.0</ele><time>2026-04-23T17:06:54.02Z</time></trkpt><trkpt lat="43.4784983" lon="12.1307"><ele>303.0</ele><time>2026-04-23T17:06:56.078Z</time></trkpt><trkpt lat="43.4785067" lon="12.1308283"><ele>303.0</ele><time>2026-04-23T17:06:59.033Z</time></trkpt><trkpt lat="43.478535" lon="12.1309483"><ele>303.0</ele><time>2026-04-23T17:07:02.094Z</time></trkpt><trkpt lat="43.4785917" lon="12.130995"><ele>303.0</ele><time>2026-04-23T17:07:04.035Z</time></trkpt><trkpt lat="43.47866" lon="12.131015"><ele>303.0</ele><time>2026-04-23T17:07:06.02Z</time></trkpt><trkpt lat="43.478725" lon="12.1310367"><ele>303.0</ele><time>2026-04-23T17:07:08.061Z</time></trkpt><trkpt lat="43.4787983" lon="12.13106"><ele>302.6666666666667</ele><time>2026-04-23T17:07:10.031Z</time></trkpt><trkpt lat="43.4788767" lon="12.13109"><ele>302.3333333333333</ele><time>2026-04-23T17:07:12.035Z</time></trkpt><trkpt lat="43.47896" lon="12.1311133"><ele>302.0</ele><time>2026-04-23T17:07:14.071Z</time></trkpt><trkpt lat="43.47904" lon="12.13113"><ele>301.66666666666663</ele><time>2026-04-23T17:07:16.03Z</time></trkpt><trkpt lat="43.4791233" lon="12.1311433"><ele>301.3333333333333</ele><time>2026-04-23T17:07:18.035Z</time></trkpt><trkpt lat="43.479215" lon="12.13115"><ele>301.0</ele><time>2026-04-23T17:07:20.068Z</time></trkpt><trkpt lat="43.4793133" lon="12.1311567"><ele>301.0</ele><time>2026-04-23T17:07:22.035Z</time></trkpt><trkpt lat="43.479415" lon="12.1311583"><ele>301.0</ele><time>2026-04-23T17:07:24.03Z</time></trkpt><trkpt lat="43.47951" lon="12.13116"><ele>301.0</ele><time>2026-04-23T17:07:26.095Z</time></trkpt><trkpt lat="43.4796083" lon="12.1311617"><ele>301.0</ele><time>2026-04-23T17:07:28.032Z</time></trkpt><trkpt lat="43.4797017" lon="12.1311667"><ele>301.0</ele><time>2026-04-23T17:07:30.032Z</time></trkpt><trkpt lat="43.4797817" lon="12.13118"><ele>300.85714285714283</ele><time>2026-04-23T17:07:32.079Z</time></trkpt><trkpt lat="43.479845" lon="12.1312017"><ele>300.7142857142857</ele><time>2026-04-23T17:07:34.034Z</time></trkpt><trkpt lat="43.479905" lon="12.1312433"><ele>300.57142857142856</ele><time>2026-04-23T17:07:36.035Z</time></trkpt><trkpt lat="43.47996" lon="12.1313167"><ele>300.42857142857144</ele><time>2026-04-23T17:07:38.05Z</time></trkpt><trkpt lat="43.4799933" lon="12.1313983"><ele>300.2857142857143</ele><time>2026-04-23T17:07:40.031Z</time></trkpt><trkpt lat="43.48001" lon="12.1314933"><ele>300.1428571428571</ele><time>2026-04-23T17:07:42.033Z</time></trkpt><trkpt lat="43.4800217" lon="12.13159"><ele>300.0</ele><time>2026-04-23T17:07:44.067Z</time></trkpt><trkpt lat="43.48004" lon="12.131685"><ele>300.4285714285714</ele><time>2026-04-23T17:07:46.03Z</time></trkpt><trkpt lat="43.480055" lon="12.1317783"><ele>300.85714285714283</ele><time>2026-04-23T17:07:48.03Z</time></trkpt><trkpt lat="43.480075" lon="12.131865"><ele>301.2857142857143</ele><time>2026-04-23T17:07:50.05Z</time></trkpt><trkpt lat="43.4801" lon="12.131945"><ele>301.71428571428567</ele><time>2026-04-23T17:07:52.022Z</time></trkpt><trkpt lat="43.4801183" lon="12.1320333"><ele>302.1428571428571</ele><time>2026-04-23T17:07:54.032Z</time></trkpt><trkpt lat="43.48014" lon="12.1321217"><ele>302.57142857142856</ele><time>2026-04-23T17:07:56.035Z</time></trkpt><trkpt lat="43.48016" lon="12.1322083"><ele>303.0</ele><time>2026-04-23T17:07:58.035Z</time></trkpt><trkpt lat="43.4801833" lon="12.1323333"><ele>304.0</ele><time>2026-04-23T17:08:01.033Z</time></trkpt><trkpt lat="43.4802017" lon="12.1324567"><ele>305.0</ele><time>2026-04-23T17:08:04.032Z</time></trkpt><trkpt lat="43.48023" lon="12.132575"><ele>306.0</ele><time>2026-04-23T17:08:07.033Z</time></trkpt><trkpt lat="43.4802517" lon="12.1326583"><ele>307.0</ele><time>2026-04-23T17:08:09.026Z</time></trkpt><trkpt lat="43.4802817" lon="12.1327733"><ele>308.0</ele><time>2026-04-23T17:08:12.033Z</time></trkpt><trkpt lat="43.4803267" lon="12.132865"><ele>309.0</ele><time>2026-04-23T17:08:15.017Z</time></trkpt><trkpt lat="43.4803767" lon="12.1329233"><ele>308.0</ele><time>2026-04-23T17:08:18.017Z</time></trkpt><trkpt lat="43.4804383" lon="12.1329717"><ele>307.0</ele><time>2026-04-23T17:08:21.033Z</time></trkpt><trkpt lat="43.4805133" lon="12.13301"><ele>306.0</ele><time>2026-04-23T17:08:24.028Z</time></trkpt><trkpt lat="43.4805833" lon="12.1330483"><ele>305.0</ele><time>2026-04-23T17:08:27.032Z</time></trkpt><trkpt lat="43.4806567" lon="12.1330883"><ele>304.0</ele><time>2026-04-23T17:08:30.033Z</time></trkpt><trkpt lat="43.4807217" lon="12.13312"><ele>303.0</ele><time>2026-04-23T17:08:32.065Z</time></trkpt><trkpt lat="43.4808" lon="12.1331483"><ele>303.0</ele><time>2026-04-23T17:08:34.016Z</time></trkpt><trkpt lat="43.4808717" lon="12.1331783"><ele>303.0</ele><time>2026-04-23T17:08:36.02Z</time></trkpt><trkpt lat="43.4809467" lon="12.1332167"><ele>303.0</ele><time>2026-04-23T17:08:38.051Z</time></trkpt><trkpt lat="43.48102" lon="12.1332533"><ele>303.0</ele><time>2026-04-23T17:08:40.018Z</time></trkpt><trkpt lat="43.4810917" lon="12.1332967"><ele>303.0</ele><time>2026-04-23T17:08:42.029Z</time></trkpt><trkpt lat="43.4811517" lon="12.1333283"><ele>303.0</ele><time>2026-04-23T17:08:44.066Z</time></trkpt><trkpt lat="43.4812367" lon="12.1333617"><ele>303.1666666666667</ele><time>2026-04-23T17:08:47.032Z</time></trkpt><trkpt lat="43.4813083" lon="12.1333933"><ele>303.3333333333333</ele><time>2026-04-23T17:08:50.065Z</time></trkpt><trkpt lat="43.481375" lon="12.133435"><ele>303.5</ele><time>2026-04-23T17:08:53.033Z</time></trkpt><trkpt lat="43.4814383" lon="12.1334783"><ele>303.66666666666663</ele><time>2026-04-23T17:08:56.069Z</time></trkpt><trkpt lat="43.4815" lon="12.1335267"><ele>303.8333333333333</ele><time>2026-04-23T17:08:59.03Z</time></trkpt><trkpt lat="43.4815783" lon="12.1335633"><ele>304.0</ele><time>2026-04-23T17:09:02.077Z</time></trkpt><trkpt lat="43.4816517" lon="12.1336033"><ele>304.0</ele><time>2026-04-23T17:09:05.014Z</time></trkpt><trkpt lat="43.48172" lon="12.1336483"><ele>304.0</ele><time>2026-04-23T17:09:08.065Z</time></trkpt><trkpt lat="43.4817883" lon="12.133685"><ele>304.0</ele><time>2026-04-23T17:09:11.031Z</time></trkpt><trkpt lat="43.4818517" lon="12.1337317"><ele>304.0</ele><time>2026-04-23T17:09:14.066Z</time></trkpt><trkpt lat="43.4819117" lon="12.1337833"><ele>304.0</ele><time>2026-04-23T17:09:17.037Z</time></trkpt><trkpt lat="43.48198" lon="12.1338383"><ele>304.0</ele><time>2026-04-23T17:09:20.066Z</time></trkpt><trkpt lat="43.482045" lon="12.1339083"><ele>303.57142857142856</ele><time>2026-04-23T17:09:24.03Z</time></trkpt><trkpt lat="43.4821017" lon="12.1339833"><ele>303.14285714285717</ele><time>2026-04-23T17:09:28.034Z</time></trkpt><trkpt lat="43.4821533" lon="12.1340417"><ele>302.7142857142857</ele><time>2026-04-23T17:09:31.03Z</time></trkpt><trkpt lat="43.48221" lon="12.1341083"><ele>302.2857142857143</ele><time>2026-04-23T17:09:35.034Z</time></trkpt><trkpt lat="43.4822667" lon="12.1341633"><ele>301.8571428571429</ele><time>2026-04-23T17:09:38.06Z</time></trkpt><trkpt lat="43.4823283" lon="12.1342417"><ele>301.42857142857144</ele><time>2026-04-23T17:09:42.036Z</time></trkpt><trkpt lat="43.4823783" lon="12.1343033"><ele>301.0</ele><time>2026-04-23T17:09:45.035Z</time></trkpt><trkpt lat="43.4824233" lon="12.13437"><ele>302.66666666666663</ele><time>2026-04-23T17:09:48.032Z</time></trkpt><trkpt lat="43.4824667" lon="12.134465"><ele>304.3333333333333</ele><time>2026-04-23T17:09:52.031Z</time></trkpt><trkpt lat="43.4825083" lon="12.1345533"><ele>306.0</ele><time>2026-04-23T17:09:56.089Z</time></trkpt><trkpt lat="43.4825517" lon="12.1346517"><ele>307.6666666666667</ele><time>2026-04-23T17:10:00.03Z</time></trkpt><trkpt lat="43.4825817" lon="12.1347467"><ele>309.33333333333337</ele><time>2026-04-23T17:10:03.024Z</time></trkpt><trkpt lat="43.4826167" lon="12.134855"><ele>311.0</ele><time>2026-04-23T17:10:06.035Z</time></trkpt><trkpt lat="43.4826467" lon="12.1349333"><ele>310.4285714285714</ele><time>2026-04-23T17:10:08.066Z</time></trkpt><trkpt lat="43.4826783" lon="12.1350167"><ele>309.8571428571429</ele><time>2026-04-23T17:10:10.026Z</time></trkpt><trkpt lat="43.4827133" lon="12.1350983"><ele>309.2857142857143</ele><time>2026-04-23T17:10:12.029Z</time></trkpt><trkpt lat="43.482755" lon="12.13517"><ele>308.71428571428567</ele><time>2026-04-23T17:10:14.067Z</time></trkpt><trkpt lat="43.4828" lon="12.1352383"><ele>308.1428571428571</ele><time>2026-04-23T17:10:16.029Z</time></trkpt><trkpt lat="43.4828767" lon="12.13531"><ele>307.57142857142856</ele><time>2026-04-23T17:10:19.029Z</time></trkpt><trkpt lat="43.48294" lon="12.135325"><ele>307.0</ele><time>2026-04-23T17:10:21.034Z</time></trkpt><trkpt lat="43.4830083" lon="12.1353283"><ele>306.99999999999994</ele><time>2026-04-23T17:10:23.028Z</time></trkpt><trkpt lat="43.483075" lon="12.135315"><ele>307.0</ele><time>2026-04-23T17:10:25.034Z</time></trkpt><trkpt lat="43.483145" lon="12.1352917"><ele>307.0</ele><time>2026-04-23T17:10:27.029Z</time></trkpt><trkpt lat="43.483215" lon="12.13527"><ele>307.0</ele><time>2026-04-23T17:10:29.029Z</time></trkpt><trkpt lat="43.4832833" lon="12.1352383"><ele>307.0</ele><time>2026-04-23T17:10:31.027Z</time></trkpt><trkpt lat="43.48334" lon="12.1351933"><ele>306.99999999999994</ele><time>2026-04-23T17:10:33.031Z</time></trkpt><trkpt lat="43.48339" lon="12.13514"><ele>307.0</ele><time>2026-04-23T17:10:35.028Z</time></trkpt><trkpt lat="43.4834383" lon="12.1350833"><ele>307.0</ele><time>2026-04-23T17:10:37.034Z</time></trkpt><trkpt lat="43.4834983" lon="12.13505"><ele>307.0</ele><time>2026-04-23T17:10:39.031Z</time></trkpt><trkpt lat="43.4835633" lon="12.1350167"><ele>307.0</ele><time>2026-04-23T17:10:41.029Z</time></trkpt><trkpt lat="43.4836217" lon="12.1349533"><ele>307.0</ele><time>2026-04-23T17:10:43.03Z</time></trkpt><trkpt lat="43.4837033" lon="12.1348867"><ele>307.0</ele><time>2026-04-23T17:10:45.027Z</time></trkpt><trkpt lat="43.4838133" lon="12.1348183"><ele>307.0</ele><time>2026-04-23T17:10:47.032Z</time></trkpt><trkpt lat="43.4838733" lon="12.1347867"><ele>305.57142857142856</ele><time>2026-04-23T17:10:48.032Z</time></trkpt><trkpt lat="43.483935" lon="12.134755"><ele>304.1428571428571</ele><time>2026-04-23T17:10:49.029Z</time></trkpt><trkpt lat="43.483995" lon="12.1347233"><ele>302.7142857142857</ele><time>2026-04-23T17:10:50.059Z</time></trkpt><trkpt lat="43.4840567" lon="12.13469"><ele>301.2857142857143</ele><time>2026-04-23T17:10:51.029Z</time></trkpt><trkpt lat="43.4841217" lon="12.1346567"><ele>299.8571428571429</ele><time>2026-04-23T17:10:52.032Z</time></trkpt><trkpt lat="43.4841867" lon="12.1346233"><ele>298.42857142857144</ele><time>2026-04-23T17:10:53.032Z</time></trkpt><trkpt lat="43.4842533" lon="12.1345883"><ele>297.0</ele><time>2026-04-23T17:10:54.021Z</time></trkpt><trkpt lat="43.4843167" lon="12.1345517"><ele>297.0</ele><time>2026-04-23T17:10:55.027Z</time></trkpt><trkpt lat="43.4843783" lon="12.1345133"><ele>297.0</ele><time>2026-04-23T17:10:56.079Z</time></trkpt><trkpt lat="43.48444" lon="12.134475"><ele>297.0</ele><time>2026-04-23T17:10:57.03Z</time></trkpt><trkpt lat="43.4844983" lon="12.1344367"><ele>297.0</ele><time>2026-04-23T17:10:58.028Z</time></trkpt><trkpt lat="43.4846117" lon="12.1343667"><ele>297.0</ele><time>2026-04-23T17:11:00.034Z</time></trkpt><trkpt lat="43.484715" lon="12.1343"><ele>297.0</ele><time>2026-04-23T17:11:02.077Z</time></trkpt><trkpt lat="43.4848117" lon="12.13424"><ele>296.4</ele><time>2026-04-23T17:11:04.029Z</time></trkpt><trkpt lat="43.4849017" lon="12.1341967"><ele>295.79999999999995</ele><time>2026-04-23T17:11:06.03Z</time></trkpt><trkpt lat="43.4849917" lon="12.13415"><ele>295.2</ele><time>2026-04-23T17:11:08.07Z</time></trkpt><trkpt lat="43.48508" lon="12.1341183"><ele>294.59999999999997</ele><time>2026-04-23T17:11:10.032Z</time></trkpt><trkpt lat="43.4851683" lon="12.1341017"><ele>294.0</ele><time>2026-04-23T17:11:12.033Z</time></trkpt><trkpt lat="43.4852533" lon="12.1340917"><ele>294.0</ele><time>2026-04-23T17:11:14.068Z</time></trkpt><trkpt lat="43.48534" lon="12.1341033"><ele>294.0</ele><time>2026-04-23T17:11:16.03Z</time></trkpt><trkpt lat="43.4854183" lon="12.1341217"><ele>294.0</ele><time>2026-04-23T17:11:18.037Z</time></trkpt><trkpt lat="43.4855017" lon="12.134145"><ele>294.0</ele><time>2026-04-23T17:11:20.049Z</time></trkpt><trkpt lat="43.4855917" lon="12.1341567"><ele>294.0</ele><time>2026-04-23T17:11:22.03Z</time></trkpt><trkpt lat="43.485685" lon="12.1341483"><ele>294.0</ele><time>2026-04-23T17:11:24.035Z</time></trkpt><trkpt lat="43.48576" lon="12.1341583"><ele>294.2</ele><time>2026-04-23T17:11:26.088Z</time></trkpt><trkpt lat="43.4858483" lon="12.1342033"><ele>294.4</ele><time>2026-04-23T17:11:29.029Z</time></trkpt><trkpt lat="43.485915" lon="12.13423"><ele>294.6</ele><time>2026-04-23T17:11:31.035Z</time></trkpt><trkpt lat="43.4860083" lon="12.134205"><ele>294.8</ele><time>2026-04-23T17:11:33.029Z</time></trkpt><trkpt lat="43.4861083" lon="12.1341433"><ele>295.0</ele><time>2026-04-23T17:11:35.03Z</time></trkpt><trkpt lat="43.4862067" lon="12.1340917"><ele>295.66666666666663</ele><time>2026-04-23T17:11:37.03Z</time></trkpt><trkpt lat="43.4862983" lon="12.1340583"><ele>296.3333333333333</ele><time>2026-04-23T17:11:39.031Z</time></trkpt><trkpt lat="43.4863867" lon="12.1340317"><ele>297.0</ele><time>2026-04-23T17:11:41.018Z</time></trkpt><trkpt lat="43.4864733" lon="12.1340167"><ele>297.6666666666667</ele><time>2026-04-23T17:11:43.028Z</time></trkpt><trkpt lat="43.4865583" lon="12.134005"><ele>298.33333333333337</ele><time>2026-04-23T17:11:45.023Z</time></trkpt><trkpt lat="43.48664" lon="12.1339967"><ele>299.0</ele><time>2026-04-23T17:11:47.02Z</time></trkpt><trkpt lat="43.486725" lon="12.133985"><ele>299.0</ele><time>2026-04-23T17:11:49.029Z</time></trkpt><trkpt lat="43.4868017" lon="12.1339783"><ele>299.0</ele><time>2026-04-23T17:11:51.013Z</time></trkpt><trkpt lat="43.4868767" lon="12.13398"><ele>299.0</ele><time>2026-04-23T17:11:53.032Z</time></trkpt><trkpt lat="43.4869483" lon="12.133995"><ele>299.0</ele><time>2026-04-23T17:11:55.031Z</time></trkpt><trkpt lat="43.4870067" lon="12.134035"><ele>299.0</ele><time>2026-04-23T17:11:57.033Z</time></trkpt><trkpt lat="43.487065" lon="12.1341217"><ele>299.0</ele><time>2026-04-23T17:12:00.028Z</time></trkpt><trkpt lat="43.487085" lon="12.1342067"><ele>299.0</ele><time>2026-04-23T17:12:03.032Z</time></trkpt><trkpt lat="43.4871167" lon="12.1342817"><ele>300.6666666666667</ele><time>2026-04-23T17:12:06.032Z</time></trkpt><trkpt lat="43.48718" lon="12.1342883"><ele>302.33333333333337</ele><time>2026-04-23T17:12:10.034Z</time></trkpt><trkpt lat="43.4872067" lon="12.1341917"><ele>304.0</ele><time>2026-04-23T17:12:13.03Z</time></trkpt><trkpt lat="43.4872" lon="12.1340767"><ele>305.6666666666667</ele><time>2026-04-23T17:12:16.034Z</time></trkpt><trkpt lat="43.4871917" lon="12.1339617"><ele>307.3333333333333</ele><time>2026-04-23T17:12:19.031Z</time></trkpt><trkpt lat="43.48718" lon="12.1338483"><ele>309.0</ele><time>2026-04-23T17:12:22.015Z</time></trkpt><trkpt lat="43.4871717" lon="12.1337317"><ele>309.8333333333333</ele><time>2026-04-23T17:12:25.031Z</time></trkpt><trkpt lat="43.4871583" lon="12.133605"><ele>310.6666666666667</ele><time>2026-04-23T17:12:28.031Z</time></trkpt><trkpt lat="43.4871483" lon="12.133515"><ele>311.5</ele><time>2026-04-23T17:12:30.033Z</time></trkpt><trkpt lat="43.48714" lon="12.1333917"><ele>312.33333333333337</ele><time>2026-04-23T17:12:33.028Z</time></trkpt><trkpt lat="43.4871617" lon="12.1332717"><ele>313.1666666666667</ele><time>2026-04-23T17:12:36.032Z</time></trkpt><trkpt lat="43.4872183" lon="12.133205"><ele>314.0</ele><time>2026-04-23T17:12:39.029Z</time></trkpt><trkpt lat="43.4872783" lon="12.1331317"><ele>314.57142857142856</ele><time>2026-04-23T17:12:43.031Z</time></trkpt><trkpt lat="43.48731" lon="12.1330333"><ele>315.1428571428571</ele><time>2026-04-23T17:12:47.031Z</time></trkpt><trkpt lat="43.4873283" lon="12.1329367"><ele>315.71428571428567</ele><time>2026-04-23T17:12:51.008Z</time></trkpt><trkpt lat="43.48733" lon="12.1328333"><ele>316.2857142857143</ele><time>2026-04-23T17:12:54.997Z</time></trkpt><trkpt lat="43.48737" lon="12.13276"><ele>316.8571428571429</ele><time>2026-04-23T17:12:59.011Z</time></trkpt><trkpt lat="43.4873583" lon="12.132665"><ele>317.4285714285714</ele><time>2026-04-23T17:13:02.062Z</time></trkpt><trkpt lat="43.4873617" lon="12.1325583"><ele>318.0</ele><time>2026-04-23T17:13:06.028Z</time></trkpt><trkpt lat="43.4873617" lon="12.1324483"><ele>317.57142857142856</ele><time>2026-04-23T17:13:10.019Z</time></trkpt><trkpt lat="43.4873783" lon="12.1323517"><ele>317.14285714285717</ele><time>2026-04-23T17:13:14.066Z</time></trkpt><trkpt lat="43.4874033" lon="12.132255"><ele>316.7142857142857</ele><time>2026-04-23T17:13:18.034Z</time></trkpt><trkpt lat="43.4874267" lon="12.1321733"><ele>316.2857142857143</ele><time>2026-04-23T17:13:21.006Z</time></trkpt><trkpt lat="43.487465" lon="12.1320983"><ele>315.8571428571429</ele><time>2026-04-23T17:13:24.027Z</time></trkpt><trkpt lat="43.4875283" lon="12.1320283"><ele>315.42857142857144</ele><time>2026-04-23T17:13:28.033Z</time></trkpt><trkpt lat="43.4875833" lon="12.1319833"><ele>315.0</ele><time>2026-04-23T17:13:31.032Z</time></trkpt><trkpt lat="43.487655" lon="12.1319383"><ele>315.0</ele><time>2026-04-23T17:13:35.027Z</time></trkpt><trkpt lat="43.487725" lon="12.131885"><ele>315.0</ele><time>2026-04-23T17:13:39.029Z</time></trkpt><trkpt lat="43.4877967" lon="12.1318417"><ele>315.0</ele><time>2026-04-23T17:13:43.032Z</time></trkpt><trkpt lat="43.4878667" lon="12.1317817"><ele>315.0</ele><time>2026-04-23T17:13:47.032Z</time></trkpt><trkpt lat="43.4879283" lon="12.1317283"><ele>315.0</ele><time>2026-04-23T17:13:51.033Z</time></trkpt><trkpt lat="43.4879783" lon="12.1316733"><ele>315.0</ele><time>2026-04-23T17:13:54.031Z</time></trkpt><trkpt lat="43.4880083" lon="12.1315883"><ele>315.0</ele><time>2026-04-23T17:13:57.018Z</time></trkpt><trkpt lat="43.4880317" lon="12.1314967"><ele>315.42857142857144</ele><time>2026-04-23T17:14:00.011Z</time></trkpt><trkpt lat="43.4880383" lon="12.131405"><ele>315.8571428571429</ele><time>2026-04-23T17:14:03.013Z</time></trkpt><trkpt lat="43.4880183" lon="12.1313183"><ele>316.2857142857143</ele><time>2026-04-23T17:14:06.02Z</time></trkpt><trkpt lat="43.487995" lon="12.131205"><ele>316.7142857142857</ele><time>2026-04-23T17:14:10.023Z</time></trkpt><trkpt lat="43.4879667" lon="12.1311217"><ele>317.14285714285717</ele><time>2026-04-23T17:14:13.031Z</time></trkpt><trkpt lat="43.487935" lon="12.1310367"><ele>317.57142857142856</ele><time>2026-04-23T17:14:16.03Z</time></trkpt><trkpt lat="43.48789" lon="12.13094"><ele>318.0</ele><time>2026-04-23T17:14:20.056Z</time></trkpt><trkpt lat="43.487835" lon="12.1308567"><ele>318.0</ele><time>2026-04-23T17:14:24.03Z</time></trkpt><trkpt lat="43.487785" lon="12.1307633"><ele>318.0</ele><time>2026-04-23T17:14:28.026Z</time></trkpt><trkpt lat="43.48775" lon="12.1306833"><ele>318.0</ele><time>2026-04-23T17:14:31.03Z</time></trkpt><trkpt lat="43.4877267" lon="12.1305967"><ele>318.0</ele><time>2026-04-23T17:14:34.036Z</time></trkpt><trkpt lat="43.4877233" lon="12.1304867"><ele>318.0</ele><time>2026-04-23T17:14:38.055Z</time></trkpt><trkpt lat="43.4877383" lon="12.1303967"><ele>318.0</ele><time>2026-04-23T17:14:41.03Z</time></trkpt><trkpt lat="43.4877633" lon="12.130285"><ele>318.2857142857143</ele><time>2026-04-23T17:14:45.016Z</time></trkpt><trkpt lat="43.4877933" lon="12.1302083"><ele>318.5714285714286</ele><time>2026-04-23T17:14:48.029Z</time></trkpt><trkpt lat="43.487845" lon="12.13012"><ele>318.8571428571429</ele><time>2026-04-23T17:14:52.031Z</time></trkpt><trkpt lat="43.4879117" lon="12.1300767"><ele>319.1428571428571</ele><time>2026-04-23T17:14:56.075Z</time></trkpt><trkpt lat="43.4879817" lon="12.1300333"><ele>319.42857142857144</ele><time>2026-04-23T17:15:00.034Z</time></trkpt><trkpt lat="43.4880467" lon="12.1300083"><ele>319.7142857142857</ele><time>2026-04-23T17:15:04.031Z</time></trkpt><trkpt lat="43.488125" lon="12.1299867"><ele>320.0</ele><time>2026-04-23T17:15:08.057Z</time></trkpt><trkpt lat="43.48819" lon="12.1299633"><ele>321.33333333333337</ele><time>2026-04-23T17:15:11.031Z</time></trkpt><trkpt lat="43.4882667" lon="12.129935"><ele>322.6666666666667</ele><time>2026-04-23T17:15:15.029Z</time></trkpt><trkpt lat="43.4883417" lon="12.1299133"><ele>324.0</ele><time>2026-04-23T17:15:19.022Z</time></trkpt><trkpt lat="43.488415" lon="12.129885"><ele>325.3333333333333</ele><time>2026-04-23T17:15:23.033Z</time></trkpt><trkpt lat="43.48849" lon="12.1298583"><ele>326.66666666666663</ele><time>2026-04-23T17:15:27.036Z</time></trkpt><trkpt lat="43.4885633" lon="12.12983"><ele>328.0</ele><time>2026-04-23T17:15:31.019Z</time></trkpt><trkpt lat="43.4886267" lon="12.1298083"><ele>327.99999999999994</ele><time>2026-04-23T17:15:34.027Z</time></trkpt><trkpt lat="43.4886983" lon="12.1297783"><ele>328.0</ele><time>2026-04-23T17:15:38.066Z</time></trkpt><trkpt lat="43.4887783" lon="12.1297417"><ele>328.0</ele><time>2026-04-23T17:15:42.018Z</time></trkpt><trkpt lat="43.4888433" lon="12.12972"><ele>328.0</ele><time>2026-04-23T17:15:45.032Z</time></trkpt><trkpt lat="43.4889033" lon="12.1296933"><ele>328.0</ele><time>2026-04-23T17:15:48.033Z</time></trkpt><trkpt lat="43.4889833" lon="12.1296617"><ele>327.99999999999994</ele><time>2026-04-23T17:15:52.029Z</time></trkpt><trkpt lat="43.4890467" lon="12.1296317"><ele>328.0</ele><time>2026-04-23T17:15:55.02Z</time></trkpt><trkpt lat="43.4891083" lon="12.129605"><ele>329.4285714285714</ele><time>2026-04-23T17:15:58.035Z</time></trkpt><trkpt lat="43.4891833" lon="12.1295767"><ele>330.85714285714283</ele><time>2026-04-23T17:16:02.077Z</time></trkpt><trkpt lat="43.4892617" lon="12.1295483"><ele>332.2857142857143</ele><time>2026-04-23T17:16:06.019Z</time></trkpt><trkpt lat="43.4893367" lon="12.12952"><ele>333.71428571428567</ele><time>2026-04-23T17:16:10.029Z</time></trkpt><trkpt lat="43.4893983" lon="12.1294933"><ele>335.1428571428571</ele><time>2026-04-23T17:16:13.031Z</time></trkpt><trkpt lat="43.489475" lon="12.1294567"><ele>336.57142857142856</ele><time>2026-04-23T17:16:17.018Z</time></trkpt><trkpt lat="43.4895383" lon="12.12943"><ele>338.0</ele><time>2026-04-23T17:16:20.059Z</time></trkpt><trkpt lat="43.4896183" lon="12.1293983"><ele>338.7142857142857</ele><time>2026-04-23T17:16:24.026Z</time></trkpt><trkpt lat="43.4896817" lon="12.1293667"><ele>339.42857142857144</ele><time>2026-04-23T17:16:27.033Z</time></trkpt><trkpt lat="43.4897417" lon="12.1293383"><ele>340.1428571428571</ele><time>2026-04-23T17:16:30.022Z</time></trkpt><trkpt lat="43.4898017" lon="12.1293083"><ele>340.8571428571429</ele><time>2026-04-23T17:16:33.028Z</time></trkpt><trkpt lat="43.4898783" lon="12.12927"><ele>341.57142857142856</ele><time>2026-04-23T17:16:37.03Z</time></trkpt><trkpt lat="43.48994" lon="12.12925"><ele>342.2857142857143</ele><time>2026-04-23T17:16:40.034Z</time></trkpt><trkpt lat="43.4900017" lon="12.1292183"><ele>343.0</ele><time>2026-04-23T17:16:43.021Z</time></trkpt><trkpt lat="43.4900833" lon="12.1291917"><ele>343.0</ele><time>2026-04-23T17:16:47.026Z</time></trkpt><trkpt lat="43.490145" lon="12.12916"><ele>343.0</ele><time>2026-04-23T17:16:50.066Z</time></trkpt><trkpt lat="43.4902083" lon="12.129135"><ele>343.0</ele><time>2026-04-23T17:16:53.02Z</time></trkpt><trkpt lat="43.4902733" lon="12.129105"><ele>343.0</ele><time>2026-04-23T17:16:56.095Z</time></trkpt><trkpt lat="43.4903417" lon="12.1290817"><ele>343.0</ele><time>2026-04-23T17:16:59.031Z</time></trkpt><trkpt lat="43.49041" lon="12.1290583"><ele>343.0</ele><time>2026-04-23T17:17:02.076Z</time></trkpt><trkpt lat="43.490475" lon="12.129035"><ele>343.0</ele><time>2026-04-23T17:17:05.018Z</time></trkpt><trkpt lat="43.4905367" lon="12.129005"><ele>344.14285714285717</ele><time>2026-04-23T17:17:08.067Z</time></trkpt><trkpt lat="43.4906017" lon="12.1289783"><ele>345.2857142857143</ele><time>2026-04-23T17:17:11.029Z</time></trkpt><trkpt lat="43.4906667" lon="12.1289467"><ele>346.42857142857144</ele><time>2026-04-23T17:17:14.066Z</time></trkpt><trkpt lat="43.4907283" lon="12.1289233"><ele>347.57142857142856</ele><time>2026-04-23T17:17:17.016Z</time></trkpt><trkpt lat="43.490795" lon="12.128895"><ele>348.7142857142857</ele><time>2026-04-23T17:17:20.069Z</time></trkpt><trkpt lat="43.4908583" lon="12.128865"><ele>349.8571428571429</ele><time>2026-04-23T17:17:23.03Z</time></trkpt><trkpt lat="43.4909383" lon="12.1288367"><ele>351.0</ele><time>2026-04-23T17:17:27.019Z</time></trkpt><trkpt lat="43.4910183" lon="12.1288083"><ele>351.00000000000006</ele><time>2026-04-23T17:17:31.029Z</time></trkpt><trkpt lat="43.4911" lon="12.1287783"><ele>351.0</ele><time>2026-04-23T17:17:35.031Z</time></trkpt><trkpt lat="43.49116" lon="12.1287517"><ele>351.0</ele><time>2026-04-23T17:17:38.058Z</time></trkpt><trkpt lat="43.49122" lon="12.128725"><ele>351.0</ele><time>2026-04-23T17:17:41.017Z</time></trkpt><trkpt lat="43.4912817" lon="12.12869"><ele>351.0</ele><time>2026-04-23T17:17:44.068Z</time></trkpt><trkpt lat="43.4913617" lon="12.1286683"><ele>351.00000000000006</ele><time>2026-04-23T17:17:48.034Z</time></trkpt><trkpt lat="43.4914233" lon="12.1286483"><ele>351.0</ele><time>2026-04-23T17:17:51.022Z</time></trkpt><trkpt lat="43.4915017" lon="12.1286067"><ele>352.00000000000006</ele><time>2026-04-23T17:17:55.031Z</time></trkpt><trkpt lat="43.491565" lon="12.12858"><ele>353.0</ele><time>2026-04-23T17:17:58.035Z</time></trkpt><trkpt lat="43.4916433" lon="12.1285367"><ele>354.0</ele><time>2026-04-23T17:18:02.08Z</time></trkpt><trkpt lat="43.49171" lon="12.1285083"><ele>355.0</ele><time>2026-04-23T17:18:05.03Z</time></trkpt><trkpt lat="43.4917767" lon="12.128485"><ele>356.0</ele><time>2026-04-23T17:18:08.07Z</time></trkpt><trkpt lat="43.4918433" lon="12.128455"><ele>357.00000000000006</ele><time>2026-04-23T17:18:11.032Z</time></trkpt><trkpt lat="43.4919117" lon="12.1284283"><ele>358.0</ele><time>2026-04-23T17:18:14.046Z</time></trkpt><trkpt lat="43.4919767" lon="12.1283983"><ele>358.0</ele><time>2026-04-23T17:18:17.032Z</time></trkpt><trkpt lat="43.4920467" lon="12.1283683"><ele>358.0</ele><time>2026-04-23T17:18:20.07Z</time></trkpt><trkpt lat="43.4921217" lon="12.1283383"><ele>358.0</ele><time>2026-04-23T17:18:23.033Z</time></trkpt><trkpt lat="43.4921967" lon="12.12831"><ele>358.0</ele><time>2026-04-23T17:18:26.078Z</time></trkpt><trkpt lat="43.49227" lon="12.1282767"><ele>358.0</ele><time>2026-04-23T17:18:29.017Z</time></trkpt><trkpt lat="43.4923433" lon="12.1282467"><ele>358.0</ele><time>2026-04-23T17:18:32.081Z</time></trkpt><trkpt lat="43.4924133" lon="12.1282233"><ele>358.5714285714286</ele><time>2026-04-23T17:18:35.03Z</time></trkpt><trkpt lat="43.4924817" lon="12.12819"><ele>359.14285714285717</ele><time>2026-04-23T17:18:38.058Z</time></trkpt><trkpt lat="43.4925483" lon="12.128155"><ele>359.7142857142857</ele><time>2026-04-23T17:18:41.033Z</time></trkpt><trkpt lat="43.492615" lon="12.1281283"><ele>360.28571428571433</ele><time>2026-04-23T17:18:44.063Z</time></trkpt><trkpt lat="43.4926767" lon="12.1281"><ele>360.85714285714283</ele><time>2026-04-23T17:18:47.03Z</time></trkpt><trkpt lat="43.4927567" lon="12.1280667"><ele>361.42857142857144</ele><time>2026-04-23T17:18:51.017Z</time></trkpt><trkpt lat="43.4928367" lon="12.128035"><ele>362.0</ele><time>2026-04-23T17:18:55.031Z</time></trkpt><trkpt lat="43.4929133" lon="12.1279983"><ele>364.1666666666667</ele><time>2026-04-23T17:18:59.032Z</time></trkpt><trkpt lat="43.4929967" lon="12.1279733"><ele>366.33333333333337</ele><time>2026-04-23T17:19:03.024Z</time></trkpt><trkpt lat="43.4930583" lon="12.1279483"><ele>368.5</ele><time>2026-04-23T17:19:06.032Z</time></trkpt><trkpt lat="43.4931383" lon="12.12792"><ele>370.6666666666667</ele><time>2026-04-23T17:19:10.029Z</time></trkpt><trkpt lat="43.4932133" lon="12.1278883"><ele>372.8333333333333</ele><time>2026-04-23T17:19:14.054Z</time></trkpt><trkpt lat="43.493295" lon="12.1278667"><ele>375.0</ele><time>2026-04-23T17:19:18.03Z</time></trkpt><trkpt lat="43.493355" lon="12.1278367"><ele>375.0</ele><time>2026-04-23T17:19:21.032Z</time></trkpt><trkpt lat="43.4934183" lon="12.1278067"><ele>375.0</ele><time>2026-04-23T17:19:24.034Z</time></trkpt><trkpt lat="43.49348" lon="12.12778"><ele>375.0</ele><time>2026-04-23T17:19:27.026Z</time></trkpt><trkpt lat="43.4935433" lon="12.1277567"><ele>375.0</ele><time>2026-04-23T17:19:30.032Z</time></trkpt><trkpt lat="43.49361" lon="12.12773"><ele>375.0</ele><time>2026-04-23T17:19:33.031Z</time></trkpt><trkpt lat="43.4936767" lon="12.1277017"><ele>375.0</ele><time>2026-04-23T17:19:36.008Z</time></trkpt><trkpt lat="43.4937433" lon="12.1276733"><ele>375.0</ele><time>2026-04-23T17:19:39.03Z</time></trkpt><trkpt lat="43.4938133" lon="12.127645"><ele>375.2857142857143</ele><time>2026-04-23T17:19:42.031Z</time></trkpt><trkpt lat="43.4938783" lon="12.1276033"><ele>375.57142857142856</ele><time>2026-04-23T17:19:45.032Z</time></trkpt><trkpt lat="43.4939433" lon="12.1275517"><ele>375.85714285714283</ele><time>2026-04-23T17:19:48.02Z</time></trkpt><trkpt lat="43.4940033" lon="12.1274883"><ele>376.1428571428571</ele><time>2026-04-23T17:19:51.025Z</time></trkpt><trkpt lat="43.494055" lon="12.1274217"><ele>376.42857142857144</ele><time>2026-04-23T17:19:54.03Z</time></trkpt><trkpt lat="43.4941067" lon="12.1273583"><ele>376.71428571428567</ele><time>2026-04-23T17:19:57.028Z</time></trkpt><trkpt lat="43.4941617" lon="12.1272967"><ele>377.0</ele><time>2026-04-23T17:20:00.022Z</time></trkpt><trkpt lat="43.4942117" lon="12.1272333"><ele>377.4285714285714</ele><time>2026-04-23T17:20:03.05Z</time></trkpt><trkpt lat="43.4942583" lon="12.127155"><ele>377.85714285714283</ele><time>2026-04-23T17:20:06.01Z</time></trkpt><trkpt lat="43.4943017" lon="12.1270883"><ele>378.2857142857143</ele><time>2026-04-23T17:20:09.014Z</time></trkpt><trkpt lat="43.494355" lon="12.127025"><ele>378.71428571428567</ele><time>2026-04-23T17:20:12.015Z</time></trkpt><trkpt lat="43.4944083" lon="12.1269583"><ele>379.14285714285717</ele><time>2026-04-23T17:20:15.003Z</time></trkpt><trkpt lat="43.49445" lon="12.1268783"><ele>379.57142857142856</ele><time>2026-04-23T17:20:18.02Z</time></trkpt><trkpt lat="43.494485" lon="12.12679"><ele>380.0</ele><time>2026-04-23T17:20:21.026Z</time></trkpt><trkpt lat="43.494515" lon="12.1267"><ele>380.0</ele><time>2026-04-23T17:20:24.031Z</time></trkpt><trkpt lat="43.4945367" lon="12.1266083"><ele>380.0</ele><time>2026-04-23T17:20:27.03Z</time></trkpt><trkpt lat="43.4945483" lon="12.12652"><ele>380.0</ele><time>2026-04-23T17:20:30.026Z</time></trkpt><trkpt lat="43.49455" lon="12.1264283"><ele>380.0</ele><time>2026-04-23T17:20:33.028Z</time></trkpt><trkpt lat="43.4945517" lon="12.1263367"><ele>380.0</ele><time>2026-04-23T17:20:36.033Z</time></trkpt><trkpt lat="43.4945567" lon="12.1262283"><ele>380.0</ele><time>2026-04-23T17:20:40.032Z</time></trkpt><trkpt lat="43.4945633" lon="12.1261183"><ele>380.0</ele><time>2026-04-23T17:20:44.063Z</time></trkpt><trkpt lat="43.4945667" lon="12.1260167"><ele>380.57142857142856</ele><time>2026-04-23T17:20:48.019Z</time></trkpt><trkpt lat="43.4945683" lon="12.12592"><ele>381.14285714285717</ele><time>2026-04-23T17:20:52.03Z</time></trkpt><trkpt lat="43.4945633" lon="12.1258167"><ele>381.71428571428567</ele><time>2026-04-23T17:20:56.038Z</time></trkpt><trkpt lat="43.49457" lon="12.1257117"><ele>382.2857142857143</ele><time>2026-04-23T17:21:00.035Z</time></trkpt><trkpt lat="43.494575" lon="12.12562"><ele>382.85714285714283</ele><time>2026-04-23T17:21:03.034Z</time></trkpt><trkpt lat="43.494585" lon="12.1255217"><ele>383.4285714285714</ele><time>2026-04-23T17:21:06.02Z</time></trkpt><trkpt lat="43.4945883" lon="12.1254233"><ele>384.0</ele><time>2026-04-23T17:21:09.032Z</time></trkpt><trkpt lat="43.4945833" lon="12.1253167"><ele>384.6666666666667</ele><time>2026-04-23T17:21:13.032Z</time></trkpt><trkpt lat="43.4945817" lon="12.12521"><ele>385.33333333333337</ele><time>2026-04-23T17:21:17.019Z</time></trkpt><trkpt lat="43.494585" lon="12.1251017"><ele>386.0</ele><time>2026-04-23T17:21:21.029Z</time></trkpt><trkpt lat="43.4945983" lon="12.1249967"><ele>386.6666666666667</ele><time>2026-04-23T17:21:25.022Z</time></trkpt><trkpt lat="43.494615" lon="12.1248883"><ele>387.33333333333337</ele><time>2026-04-23T17:21:29.021Z</time></trkpt><trkpt lat="43.4946367" lon="12.124805"><ele>388.0</ele><time>2026-04-23T17:21:32.079Z</time></trkpt><trkpt lat="43.494685" lon="12.1247133"><ele>390.00000000000006</ele><time>2026-04-23T17:21:36.033Z</time></trkpt><trkpt lat="43.4947333" lon="12.1246367"><ele>392.0</ele><time>2026-04-23T17:21:39.029Z</time></trkpt><trkpt lat="43.4947867" lon="12.1245617"><ele>394.0</ele><time>2026-04-23T17:21:42.03Z</time></trkpt><trkpt lat="43.494845" lon="12.1244833"><ele>396.0</ele><time>2026-04-23T17:21:45.032Z</time></trkpt><trkpt lat="43.4948983" lon="12.1244167"><ele>398.00000000000006</ele><time>2026-04-23T17:21:48.014Z</time></trkpt><trkpt lat="43.4949567" lon="12.1243367"><ele>400.0</ele><time>2026-04-23T17:21:51.018Z</time></trkpt><trkpt lat="43.4950117" lon="12.1242567"><ele>400.00000000000006</ele><time>2026-04-23T17:21:54.028Z</time></trkpt><trkpt lat="43.4950667" lon="12.1241733"><ele>400.0</ele><time>2026-04-23T17:21:57.033Z</time></trkpt><trkpt lat="43.4951217" lon="12.1240817"><ele>400.0</ele><time>2026-04-23T17:22:00.032Z</time></trkpt><trkpt lat="43.4951783" lon="12.1239933"><ele>400.0</ele><time>2026-04-23T17:22:03.025Z</time></trkpt><trkpt lat="43.495225" lon="12.123885"><ele>400.00000000000006</ele><time>2026-04-23T17:22:06.035Z</time></trkpt><trkpt lat="43.495255" lon="12.1238033"><ele>400.0</ele><time>2026-04-23T17:22:08.063Z</time></trkpt><trkpt lat="43.4952867" lon="12.123725"><ele>400.33333333333337</ele><time>2026-04-23T17:22:10.029Z</time></trkpt><trkpt lat="43.4953183" lon="12.1236383"><ele>400.6666666666667</ele><time>2026-04-23T17:22:12.03Z</time></trkpt><trkpt lat="43.49535" lon="12.12354"><ele>401.0</ele><time>2026-04-23T17:22:14.066Z</time></trkpt><trkpt lat="43.4953883" lon="12.1234383"><ele>401.33333333333337</ele><time>2026-04-23T17:22:16.019Z</time></trkpt><trkpt lat="43.495425" lon="12.1233283"><ele>401.6666666666667</ele><time>2026-04-23T17:22:18.028Z</time></trkpt><trkpt lat="43.49547" lon="12.123225"><ele>402.0</ele><time>2026-04-23T17:22:20.069Z</time></trkpt><trkpt lat="43.4955283" lon="12.1231333"><ele>401.3333333333333</ele><time>2026-04-23T17:22:22.023Z</time></trkpt><trkpt lat="43.4955867" lon="12.1230517"><ele>400.66666666666663</ele><time>2026-04-23T17:22:24.028Z</time></trkpt><trkpt lat="43.4956483" lon="12.12298"><ele>400.0</ele><time>2026-04-23T17:22:26.091Z</time></trkpt><trkpt lat="43.4957067" lon="12.1229017"><ele>399.3333333333333</ele><time>2026-04-23T17:22:28.02Z</time></trkpt><trkpt lat="43.495765" lon="12.12283"><ele>398.66666666666663</ele><time>2026-04-23T17:22:30.031Z</time></trkpt><trkpt lat="43.4958317" lon="12.1227533"><ele>398.0</ele><time>2026-04-23T17:22:32.039Z</time></trkpt><trkpt lat="43.495905" lon="12.1226767"><ele>397.99999999999994</ele><time>2026-04-23T17:22:34.029Z</time></trkpt><trkpt lat="43.49597" lon="12.122595"><ele>398.0</ele><time>2026-04-23T17:22:36.034Z</time></trkpt><trkpt lat="43.4960383" lon="12.1225283"><ele>398.0</ele><time>2026-04-23T17:22:38.056Z</time></trkpt><trkpt lat="43.4961117" lon="12.1224533"><ele>398.0</ele><time>2026-04-23T17:22:40.029Z</time></trkpt><trkpt lat="43.49619" lon="12.122385"><ele>397.99999999999994</ele><time>2026-04-23T17:22:42.029Z</time></trkpt><trkpt lat="43.49627" lon="12.1223267"><ele>398.0</ele><time>2026-04-23T17:22:44.067Z</time></trkpt><trkpt lat="43.4963517" lon="12.12227"><ele>397.66666666666663</ele><time>2026-04-23T17:22:46.023Z</time></trkpt><trkpt lat="43.4964317" lon="12.122215"><ele>397.3333333333333</ele><time>2026-04-23T17:22:48.032Z</time></trkpt><trkpt lat="43.4965133" lon="12.122165"><ele>397.0</ele><time>2026-04-23T17:22:50.05Z</time></trkpt><trkpt lat="43.4965883" lon="12.1221133"><ele>396.66666666666663</ele><time>2026-04-23T17:22:52.014Z</time></trkpt><trkpt lat="43.496665" lon="12.1220833"><ele>396.3333333333333</ele><time>2026-04-23T17:22:54.018Z</time></trkpt><trkpt lat="43.4967317" lon="12.12207"><ele>396.0</ele><time>2026-04-23T17:22:56.033Z</time></trkpt><trkpt lat="43.4968217" lon="12.1220483"><ele>396.0</ele><time>2026-04-23T17:22:59.03Z</time></trkpt><trkpt lat="43.4969017" lon="12.1220117"><ele>396.0</ele><time>2026-04-23T17:23:01.021Z</time></trkpt><trkpt lat="43.4969733" lon="12.121985"><ele>396.0</ele><time>2026-04-23T17:23:03.035Z</time></trkpt><trkpt lat="43.4970433" lon="12.1219583"><ele>396.0</ele><time>2026-04-23T17:23:05.034Z</time></trkpt><trkpt lat="43.4971067" lon="12.12193"><ele>396.0</ele><time>2026-04-23T17:23:07.036Z</time></trkpt><trkpt lat="43.4971933" lon="12.1218883"><ele>396.0</ele><time>2026-04-23T17:23:10.033Z</time></trkpt><trkpt lat="43.4972717" lon="12.12184"><ele>397.8333333333333</ele><time>2026-04-23T17:23:13.031Z</time></trkpt><trkpt lat="43.497355" lon="12.1218067"><ele>399.66666666666663</ele><time>2026-04-23T17:23:16.031Z</time></trkpt><trkpt lat="43.4974267" lon="12.1217717"><ele>401.5</ele><time>2026-04-23T17:23:19.033Z</time></trkpt><trkpt lat="43.4975117" lon="12.1217483"><ele>403.3333333333333</ele><time>2026-04-23T17:23:23.016Z</time></trkpt><trkpt lat="43.49759" lon="12.1217233"><ele>405.16666666666663</ele><time>2026-04-23T17:23:27.014Z</time></trkpt><trkpt lat="43.4976617" lon="12.1216733"><ele>407.0</ele><time>2026-04-23T17:23:31.022Z</time></trkpt><trkpt lat="43.4977183" lon="12.1216283"><ele>407.00000000000006</ele><time>2026-04-23T17:23:34.03Z</time></trkpt><trkpt lat="43.4977883" lon="12.1215967"><ele>407.0</ele><time>2026-04-23T17:23:37.017Z</time></trkpt><trkpt lat="43.4978617" lon="12.1215667"><ele>407.0</ele><time>2026-04-23T17:23:40.032Z</time></trkpt><trkpt lat="43.4979217" lon="12.1215333"><ele>407.0</ele><time>2026-04-23T17:23:43.033Z</time></trkpt><trkpt lat="43.4979867" lon="12.1214883"><ele>407.0</ele><time>2026-04-23T17:23:46.02Z</time></trkpt><trkpt lat="43.4980567" lon="12.1214517"><ele>407.00000000000006</ele><time>2026-04-23T17:23:49.036Z</time></trkpt><trkpt lat="43.4981217" lon="12.1214467"><ele>407.0</ele><time>2026-04-23T17:23:52.008Z</time></trkpt><trkpt lat="43.4982033" lon="12.1214417"><ele>407.8333333333333</ele><time>2026-04-23T17:23:55.032Z</time></trkpt><trkpt lat="43.4982783" lon="12.1213783"><ele>408.66666666666663</ele><time>2026-04-23T17:23:58.012Z</time></trkpt><trkpt lat="43.4983367" lon="12.1212833"><ele>409.5</ele><time>2026-04-23T17:24:01.033Z</time></trkpt><trkpt lat="43.498375" lon="12.1211667"><ele>410.33333333333337</ele><time>2026-04-23T17:24:04.029Z</time></trkpt><trkpt lat="43.4984033" lon="12.12105"><ele>411.1666666666667</ele><time>2026-04-23T17:24:07.03Z</time></trkpt><trkpt lat="43.4984233" lon="12.120965"><ele>412.0</ele><time>2026-04-23T17:24:09.025Z</time></trkpt><trkpt lat="43.498445" lon="12.1208733"><ele>412.00000000000006</ele><time>2026-04-23T17:24:11.027Z</time></trkpt><trkpt lat="43.49846" lon="12.1207783"><ele>412.0</ele><time>2026-04-23T17:24:13.032Z</time></trkpt><trkpt lat="43.4984733" lon="12.1206917"><ele>412.0</ele><time>2026-04-23T17:24:15.016Z</time></trkpt><trkpt lat="43.4984833" lon="12.1205733"><ele>412.0</ele><time>2026-04-23T17:24:18.034Z</time></trkpt><trkpt lat="43.4984783" lon="12.1204633"><ele>412.00000000000006</ele><time>2026-04-23T17:24:21.026Z</time></trkpt><trkpt lat="43.498445" lon="12.120365"><ele>412.0</ele><time>2026-04-23T17:24:25.027Z</time></trkpt><trkpt lat="43.49841" lon="12.1202817"><ele>412.99999999999994</ele><time>2026-04-23T17:24:29.019Z</time></trkpt><trkpt lat="43.4983783" lon="12.1202067"><ele>414.0</ele><time>2026-04-23T17:24:33.029Z</time></trkpt><trkpt lat="43.4983417" lon="12.1201317"><ele>415.0</ele><time>2026-04-23T17:24:37.029Z</time></trkpt><trkpt lat="43.4982867" lon="12.120065"><ele>416.0</ele><time>2026-04-23T17:24:41.02Z</time></trkpt><trkpt lat="43.4982367" lon="12.1200017"><ele>417.0</ele><time>2026-04-23T17:24:45.028Z</time></trkpt><trkpt lat="43.4981783" lon="12.1199467"><ele>417.99999999999994</ele><time>2026-04-23T17:24:50.065Z</time></trkpt><trkpt lat="43.49813" lon="12.119865"><ele>419.0</ele><time>2026-04-23T17:24:55.034Z</time></trkpt><trkpt lat="43.4980717" lon="12.1197683"><ele>419.85714285714283</ele><time>2026-04-23T17:25:02.077Z</time></trkpt><trkpt lat="43.4980217" lon="12.11969"><ele>420.7142857142857</ele><time>2026-04-23T17:25:06.017Z</time></trkpt><trkpt lat="43.497975" lon="12.119625"><ele>421.57142857142856</ele><time>2026-04-23T17:25:10.031Z</time></trkpt><trkpt lat="43.4979317" lon="12.1195483"><ele>422.42857142857144</ele><time>2026-04-23T17:25:15.022Z</time></trkpt><trkpt lat="43.4978917" lon="12.1194617"><ele>423.2857142857143</ele><time>2026-04-23T17:25:19.023Z</time></trkpt><trkpt lat="43.4978433" lon="12.119385"><ele>424.1428571428571</ele><time>2026-04-23T17:25:23.03Z</time></trkpt><trkpt lat="43.4977867" lon="12.11932"><ele>425.0</ele><time>2026-04-23T17:25:27.029Z</time></trkpt><trkpt lat="43.49774" lon="12.119245"><ele>425.0</ele><time>2026-04-23T17:25:31.029Z</time></trkpt><trkpt lat="43.4976917" lon="12.1191767"><ele>425.0</ele><time>2026-04-23T17:25:35.028Z</time></trkpt><trkpt lat="43.4976583" lon="12.1190967"><ele>425.0</ele><time>2026-04-23T17:25:39.028Z</time></trkpt><trkpt lat="43.497605" lon="12.1190117"><ele>425.0</ele><time>2026-04-23T17:25:43.031Z</time></trkpt><trkpt lat="43.4975717" lon="12.118935"><ele>425.0</ele><time>2026-04-23T17:25:46.029Z</time></trkpt><trkpt lat="43.4975567" lon="12.11885"><ele>425.0</ele><time>2026-04-23T17:25:49.034Z</time></trkpt><trkpt lat="43.497575" lon="12.1187417"><ele>425.0</ele><time>2026-04-23T17:25:53.033Z</time></trkpt><trkpt lat="43.49764" lon="12.1187"><ele>427.49999999999994</ele><time>2026-04-23T17:25:57.033Z</time></trkpt><trkpt lat="43.497715" lon="12.1187217"><ele>430.0</ele><time>2026-04-23T17:26:01.029Z</time></trkpt><trkpt lat="43.4977883" lon="12.1187583"><ele>432.5</ele><time>2026-04-23T17:26:05.024Z</time></trkpt><trkpt lat="43.497845" lon="12.118825"><ele>435.0</ele><time>2026-04-23T17:26:09.034Z</time></trkpt><trkpt lat="43.4979" lon="12.1188867"><ele>437.49999999999994</ele><time>2026-04-23T17:26:13.03Z</time></trkpt><trkpt lat="43.4979633" lon="12.1189367"><ele>440.0</ele><time>2026-04-23T17:26:17.032Z</time></trkpt><trkpt lat="43.4980317" lon="12.1189967"><ele>439.57142857142856</ele><time>2026-04-23T17:26:21.032Z</time></trkpt><trkpt lat="43.4981" lon="12.1190467"><ele>439.1428571428571</ele><time>2026-04-23T17:26:25.029Z</time></trkpt><trkpt lat="43.4981633" lon="12.1190783"><ele>438.71428571428567</ele><time>2026-04-23T17:26:28.031Z</time></trkpt><trkpt lat="43.4982333" lon="12.1190933"><ele>438.2857142857143</ele><time>2026-04-23T17:26:31.028Z</time></trkpt><trkpt lat="43.4983017" lon="12.1190917"><ele>437.8571428571429</ele><time>2026-04-23T17:26:34.028Z</time></trkpt><trkpt lat="43.498375" lon="12.1190467"><ele>437.4285714285714</ele><time>2026-04-23T17:26:38.05Z</time></trkpt><trkpt lat="43.49842" lon="12.118985"><ele>437.0</ele><time>2026-04-23T17:26:41.028Z</time></trkpt><trkpt lat="43.4984583" lon="12.1189017"><ele>439.49999999999994</ele><time>2026-04-23T17:26:45.031Z</time></trkpt><trkpt lat="43.498475" lon="12.1188117"><ele>442.0</ele><time>2026-04-23T17:26:49.032Z</time></trkpt><trkpt lat="43.4985683" lon="12.1187133"><ele>444.5</ele><time>2026-04-23T17:27:00.031Z</time></trkpt><trkpt lat="43.49861" lon="12.1186433"><ele>447.0</ele><time>2026-04-23T17:27:02.068Z</time></trkpt><trkpt lat="43.4986533" lon="12.1185417"><ele>449.49999999999994</ele><time>2026-04-23T17:27:04.033Z</time></trkpt><trkpt lat="43.4987033" lon="12.1184417"><ele>452.0</ele><time>2026-04-23T17:27:06.036Z</time></trkpt><trkpt lat="43.4987433" lon="12.1183433"><ele>448.8333333333333</ele><time>2026-04-23T17:27:08.064Z</time></trkpt><trkpt lat="43.4987967" lon="12.1182533"><ele>445.66666666666663</ele><time>2026-04-23T17:27:10.029Z</time></trkpt><trkpt lat="43.498855" lon="12.1181767"><ele>442.5</ele><time>2026-04-23T17:27:12.029Z</time></trkpt><trkpt lat="43.4989217" lon="12.118115"><ele>439.33333333333337</ele><time>2026-04-23T17:27:14.065Z</time></trkpt><trkpt lat="43.4989883" lon="12.11806"><ele>436.1666666666667</ele><time>2026-04-23T17:27:16.027Z</time></trkpt><trkpt lat="43.499045" lon="12.118"><ele>433.0</ele><time>2026-04-23T17:27:18.034Z</time></trkpt><trkpt lat="43.4990983" lon="12.11793"><ele>433.0</ele><time>2026-04-23T17:27:20.069Z</time></trkpt><trkpt lat="43.4991667" lon="12.117845"><ele>432.99999999999994</ele><time>2026-04-23T17:27:22.032Z</time></trkpt><trkpt lat="43.4992467" lon="12.1177233"><ele>432.99999999999994</ele><time>2026-04-23T17:27:24.025Z</time></trkpt><trkpt lat="43.4993283" lon="12.1176183"><ele>433.0</ele><time>2026-04-23T17:27:26.09Z</time></trkpt><trkpt lat="43.4994233" lon="12.1175233"><ele>433.0</ele><time>2026-04-23T17:27:28.027Z</time></trkpt><trkpt lat="43.4995183" lon="12.1174333"><ele>428.59999999999997</ele><time>2026-04-23T17:27:30.027Z</time></trkpt><trkpt lat="43.4996133" lon="12.1173583"><ele>424.19999999999993</ele><time>2026-04-23T17:27:32.084Z</time></trkpt><trkpt lat="43.4997017" lon="12.1173017"><ele>419.8</ele><time>2026-04-23T17:27:34.033Z</time></trkpt><trkpt lat="43.4998017" lon="12.1172667"><ele>415.4</ele><time>2026-04-23T17:27:36.029Z</time></trkpt><trkpt lat="43.4999167" lon="12.1172383"><ele>411.0</ele><time>2026-04-23T17:27:38.07Z</time></trkpt><trkpt lat="43.500035" lon="12.11722"><ele>411.0</ele><time>2026-04-23T17:27:40.035Z</time></trkpt><trkpt lat="43.5001183" lon="12.117205"><ele>411.0</ele><time>2026-04-23T17:27:42.03Z</time></trkpt><trkpt lat="43.5001983" lon="12.117195"><ele>411.0</ele><time>2026-04-23T17:27:44.054Z</time></trkpt><trkpt lat="43.500275" lon="12.11718"><ele>411.0</ele><time>2026-04-23T17:27:46.027Z</time></trkpt><trkpt lat="43.500365" lon="12.1171333"><ele>411.0</ele><time>2026-04-23T17:27:48.032Z</time></trkpt><trkpt lat="43.5004667" lon="12.1170717"><ele>411.0</ele><time>2026-04-23T17:27:50.071Z</time></trkpt><trkpt lat="43.50056" lon="12.1170083"><ele>408.4</ele><time>2026-04-23T17:27:52.03Z</time></trkpt><trkpt lat="43.500645" lon="12.1169367"><ele>405.8</ele><time>2026-04-23T17:27:54.03Z</time></trkpt><trkpt lat="43.5007083" lon="12.1168633"><ele>403.2</ele><time>2026-04-23T17:27:56.021Z</time></trkpt><trkpt lat="43.5007933" lon="12.1167933"><ele>400.59999999999997</ele><time>2026-04-23T17:27:58.03Z</time></trkpt><trkpt lat="43.50089" lon="12.11671"><ele>398.0</ele><time>2026-04-23T17:28:00.032Z</time></trkpt><trkpt lat="43.50099" lon="12.1166283"><ele>397.0</ele><time>2026-04-23T17:28:02.035Z</time></trkpt><trkpt lat="43.5010867" lon="12.116555"><ele>396.0</ele><time>2026-04-23T17:28:04.032Z</time></trkpt><trkpt lat="43.501175" lon="12.1164683"><ele>395.0</ele><time>2026-04-23T17:28:06.028Z</time></trkpt><trkpt lat="43.5012367" lon="12.116415"><ele>394.0</ele><time>2026-04-23T17:28:08.053Z</time></trkpt><trkpt lat="43.5012683" lon="12.11631"><ele>393.0</ele><time>2026-04-23T17:28:11.033Z</time></trkpt><trkpt lat="43.5012617" lon="12.1162017"><ele>390.2</ele><time>2026-04-23T17:28:13.026Z</time></trkpt><trkpt lat="43.5012733" lon="12.11608"><ele>387.4</ele><time>2026-04-23T17:28:15.031Z</time></trkpt><trkpt lat="43.5013283" lon="12.1159783"><ele>384.59999999999997</ele><time>2026-04-23T17:28:17.034Z</time></trkpt><trkpt lat="43.5014083" lon="12.115895"><ele>381.79999999999995</ele><time>2026-04-23T17:28:19.03Z</time></trkpt><trkpt lat="43.50151" lon="12.115855"><ele>379.0</ele><time>2026-04-23T17:28:21.031Z</time></trkpt><trkpt lat="43.501605" lon="12.115835"><ele>379.0</ele><time>2026-04-23T17:28:23.036Z</time></trkpt><trkpt lat="43.5016783" lon="12.1158933"><ele>379.0</ele><time>2026-04-23T17:28:25.034Z</time></trkpt><trkpt lat="43.5017183" lon="12.116015"><ele>379.0</ele><time>2026-04-23T17:28:27.031Z</time></trkpt><trkpt lat="43.5017517" lon="12.11613"><ele>379.0</ele><time>2026-04-23T17:28:29.025Z</time></trkpt><trkpt lat="43.5017667" lon="12.1162233"><ele>379.0</ele><time>2026-04-23T17:28:31.017Z</time></trkpt><trkpt lat="43.5017633" lon="12.1163183"><ele>379.0</ele><time>2026-04-23T17:28:33.03Z</time></trkpt><trkpt lat="43.5017483" lon="12.1164183"><ele>379.0</ele><time>2026-04-23T17:28:35.036Z</time></trkpt><trkpt lat="43.5017283" lon="12.1165033"><ele>379.0</ele><time>2026-04-23T17:28:37.019Z</time></trkpt><trkpt lat="43.5017967" lon="12.1165433"><ele>379.0</ele><time>2026-04-23T17:28:43.031Z</time></trkpt><trkpt lat="43.5018533" lon="12.1164933"><ele>379.0</ele><time>2026-04-23T17:28:45.03Z</time></trkpt><trkpt lat="43.5019283" lon="12.1164417"><ele>379.0</ele><time>2026-04-23T17:28:47.024Z</time></trkpt><trkpt lat="43.502005" lon="12.116395"><ele>379.0</ele><time>2026-04-23T17:28:49.005Z</time></trkpt><trkpt lat="43.5020883" lon="12.1163533"><ele>377.00000000000006</ele><time>2026-04-23T17:28:51.019Z</time></trkpt><trkpt lat="43.502155" lon="12.116305"><ele>375.0</ele><time>2026-04-23T17:28:53.032Z</time></trkpt><trkpt lat="43.502225" lon="12.116235"><ele>373.0</ele><time>2026-04-23T17:28:56.096Z</time></trkpt><trkpt lat="43.5022867" lon="12.1161717"><ele>371.0</ele><time>2026-04-23T17:28:59.032Z</time></trkpt><trkpt lat="43.5023367" lon="12.1160967"><ele>369.0</ele><time>2026-04-23T17:29:02.07Z</time></trkpt><trkpt lat="43.5023767" lon="12.116025"><ele>367.00000000000006</ele><time>2026-04-23T17:29:05.035Z</time></trkpt><trkpt lat="43.5024167" lon="12.115945"><ele>365.0</ele><time>2026-04-23T17:29:08.035Z</time></trkpt><trkpt lat="43.502455" lon="12.1158517"><ele>365.00000000000006</ele><time>2026-04-23T17:29:11.012Z</time></trkpt><trkpt lat="43.50251" lon="12.1157967"><ele>365.0</ele><time>2026-04-23T17:29:16.011Z</time></trkpt><trkpt lat="43.5025567" lon="12.1157017"><ele>365.0</ele><time>2026-04-23T17:29:21.031Z</time></trkpt><trkpt lat="43.502595" lon="12.115605"><ele>365.0</ele><time>2026-04-23T17:29:26.091Z</time></trkpt><trkpt lat="43.502625" lon="12.115525"><ele>365.0</ele><time>2026-04-23T17:29:30.031Z</time></trkpt><trkpt lat="43.5026783" lon="12.1154467"><ele>365.00000000000006</ele><time>2026-04-23T17:29:34.034Z</time></trkpt><trkpt lat="43.50274" lon="12.1153917"><ele>365.0</ele><time>2026-04-23T17:29:37.026Z</time></trkpt><trkpt lat="43.5028033" lon="12.1153283"><ele>365.83333333333337</ele><time>2026-04-23T17:29:41.03Z</time></trkpt><trkpt lat="43.5028683" lon="12.1152833"><ele>366.6666666666667</ele><time>2026-04-23T17:29:44.067Z</time></trkpt><trkpt lat="43.5029483" lon="12.1152433"><ele>367.5</ele><time>2026-04-23T17:29:47.038Z</time></trkpt><trkpt lat="43.503025" lon="12.1152017"><ele>368.3333333333333</ele><time>2026-04-23T17:29:50.067Z</time></trkpt><trkpt lat="43.50309" lon="12.1151383"><ele>369.16666666666663</ele><time>2026-04-23T17:29:53.034Z</time></trkpt><trkpt lat="43.5031317" lon="12.1150567"><ele>370.0</ele><time>2026-04-23T17:29:56.092Z</time></trkpt><trkpt lat="43.5031583" lon="12.1149667"><ele>369.85714285714283</ele><time>2026-04-23T17:29:59.02Z</time></trkpt><trkpt lat="43.5031567" lon="12.1148583"><ele>369.7142857142857</ele><time>2026-04-23T17:30:03.02Z</time></trkpt><trkpt lat="43.5031567" lon="12.1147633"><ele>369.57142857142856</ele><time>2026-04-23T17:30:07.034Z</time></trkpt><trkpt lat="43.5031617" lon="12.11466"><ele>369.42857142857144</ele><time>2026-04-23T17:30:11.036Z</time></trkpt><trkpt lat="43.5031517" lon="12.1145483"><ele>369.2857142857143</ele><time>2026-04-23T17:30:15.015Z</time></trkpt><trkpt lat="43.5031517" lon="12.1144567"><ele>369.1428571428571</ele><time>2026-04-23T17:30:18.029Z</time></trkpt><trkpt lat="43.5031533" lon="12.1143667"><ele>369.0</ele><time>2026-04-23T17:30:21.027Z</time></trkpt><trkpt lat="43.5031367" lon="12.1142767"><ele>369.0</ele><time>2026-04-23T17:30:24.032Z</time></trkpt><trkpt lat="43.5031317" lon="12.11417"><ele>369.0</ele><time>2026-04-23T17:30:27.029Z</time></trkpt><trkpt lat="43.5031117" lon="12.1140517"><ele>369.0</ele><time>2026-04-23T17:30:30.032Z</time></trkpt><trkpt lat="43.503105" lon="12.1139567"><ele>369.0</ele><time>2026-04-23T17:30:33.031Z</time></trkpt><trkpt lat="43.5031017" lon="12.1138533"><ele>369.0</ele><time>2026-04-23T17:30:36.03Z</time></trkpt><trkpt lat="43.5031" lon="12.11375"><ele>369.0</ele><time>2026-04-23T17:30:39.028Z</time></trkpt><trkpt lat="43.5030783" lon="12.11366"><ele>367.8333333333333</ele><time>2026-04-23T17:30:42.028Z</time></trkpt><trkpt lat="43.503085" lon="12.1135533"><ele>366.6666666666667</ele><time>2026-04-23T17:30:45.032Z</time></trkpt><trkpt lat="43.5030833" lon="12.1134383"><ele>365.5</ele><time>2026-04-23T17:30:48.028Z</time></trkpt><trkpt lat="43.50308" lon="12.113325"><ele>364.33333333333337</ele><time>2026-04-23T17:30:51.028Z</time></trkpt><trkpt lat="43.50308" lon="12.11323"><ele>363.1666666666667</ele><time>2026-04-23T17:30:53.034Z</time></trkpt><trkpt lat="43.5030717" lon="12.1131067"><ele>362.0</ele><time>2026-04-23T17:30:56.075Z</time></trkpt><trkpt lat="43.5030533" lon="12.1130167"><ele>361.83333333333337</ele><time>2026-04-23T17:30:59.036Z</time></trkpt><trkpt lat="43.5030483" lon="12.1129083"><ele>361.6666666666667</ele><time>2026-04-23T17:31:04.032Z</time></trkpt><trkpt lat="43.5030433" lon="12.11279"><ele>361.5</ele><time>2026-04-23T17:31:08.068Z</time></trkpt><trkpt lat="43.5030383" lon="12.1126933"><ele>361.3333333333333</ele><time>2026-04-23T17:31:11.035Z</time></trkpt><trkpt lat="43.5030233" lon="12.11259"><ele>361.16666666666663</ele><time>2026-04-23T17:31:14.052Z</time></trkpt><trkpt lat="43.503" lon="12.112485"><ele>361.0</ele><time>2026-04-23T17:31:17.027Z</time></trkpt><trkpt lat="43.5029883" lon="12.1123817"><ele>360.5</ele><time>2026-04-23T17:31:20.069Z</time></trkpt><trkpt lat="43.5029867" lon="12.11228"><ele>360.0</ele><time>2026-04-23T17:31:23.031Z</time></trkpt><trkpt lat="43.5030083" lon="12.1121883"><ele>359.5</ele><time>2026-04-23T17:31:25.029Z</time></trkpt><trkpt lat="43.5030567" lon="12.112035"><ele>359.0</ele><time>2026-04-23T17:31:27.032Z</time></trkpt><trkpt lat="43.50309" lon="12.1119433"><ele>358.5</ele><time>2026-04-23T17:31:28.032Z</time></trkpt><trkpt lat="43.5031267" lon="12.1118517"><ele>358.0</ele><time>2026-04-23T17:31:29.036Z</time></trkpt><trkpt lat="43.5031567" lon="12.1117633"><ele>358.00000000000006</ele><time>2026-04-23T17:31:30.034Z</time></trkpt><trkpt lat="43.503185" lon="12.11168"><ele>358.0</ele><time>2026-04-23T17:31:31.032Z</time></trkpt><trkpt lat="43.5032133" lon="12.1116"><ele>358.0</ele><time>2026-04-23T17:31:32.08Z</time></trkpt><trkpt lat="43.5032433" lon="12.11152"><ele>358.0</ele><time>2026-04-23T17:31:33.031Z</time></trkpt><trkpt lat="43.5032733" lon="12.1114417"><ele>358.0</ele><time>2026-04-23T17:31:34.03Z</time></trkpt><trkpt lat="43.5033017" lon="12.1113633"><ele>358.00000000000006</ele><time>2026-04-23T17:31:35.033Z</time></trkpt><trkpt lat="43.5033367" lon="12.1112833"><ele>358.0</ele><time>2026-04-23T17:31:36.031Z</time></trkpt><trkpt lat="43.503375" lon="12.1112017"><ele>357.66666666666663</ele><time>2026-04-23T17:31:37.031Z</time></trkpt><trkpt lat="43.5034167" lon="12.1111183"><ele>357.3333333333333</ele><time>2026-04-23T17:31:38.067Z</time></trkpt><trkpt lat="43.5034633" lon="12.1110383"><ele>357.0</ele><time>2026-04-23T17:31:39.027Z</time></trkpt><trkpt lat="43.5035117" lon="12.110965"><ele>356.6666666666667</ele><time>2026-04-23T17:31:40.036Z</time></trkpt><trkpt lat="43.503565" lon="12.1108917"><ele>356.33333333333337</ele><time>2026-04-23T17:31:41.033Z</time></trkpt><trkpt lat="43.503625" lon="12.1108217"><ele>356.0</ele><time>2026-04-23T17:31:42.033Z</time></trkpt><trkpt lat="43.5036883" lon="12.1107517"><ele>353.5</ele><time>2026-04-23T17:31:43.034Z</time></trkpt><trkpt lat="43.503755" lon="12.1106817"><ele>351.0</ele><time>2026-04-23T17:31:44.067Z</time></trkpt><trkpt lat="43.5038167" lon="12.1106183"><ele>348.5</ele><time>2026-04-23T17:31:45.029Z</time></trkpt><trkpt lat="43.5038833" lon="12.1105567"><ele>346.0</ele><time>2026-04-23T17:31:46.03Z</time></trkpt><trkpt lat="43.5039533" lon="12.1105"><ele>343.5</ele><time>2026-04-23T17:31:47.03Z</time></trkpt><trkpt lat="43.5040233" lon="12.1104517"><ele>341.0</ele><time>2026-04-23T17:31:48.032Z</time></trkpt><trkpt lat="43.5040933" lon="12.1104167"><ele>341.0</ele><time>2026-04-23T17:31:49.041Z</time></trkpt><trkpt lat="43.5041633" lon="12.1103817"><ele>341.0</ele><time>2026-04-23T17:31:50.069Z</time></trkpt><trkpt lat="43.5042283" lon="12.1103467"><ele>341.0</ele><time>2026-04-23T17:31:51.027Z</time></trkpt><trkpt lat="43.5042883" lon="12.110305"><ele>341.0</ele><time>2026-04-23T17:31:52.031Z</time></trkpt><trkpt lat="43.5043483" lon="12.11024"><ele>341.0</ele><time>2026-04-23T17:31:53.036Z</time></trkpt><trkpt lat="43.5044033" lon="12.1101633"><ele>341.0</ele><time>2026-04-23T17:31:54.034Z</time></trkpt><trkpt lat="43.5044617" lon="12.1100733"><ele>341.0</ele><time>2026-04-23T17:31:55.032Z</time></trkpt><trkpt lat="43.5045133" lon="12.1099867"><ele>341.0</ele><time>2026-04-23T17:31:56.093Z</time></trkpt><trkpt lat="43.5045683" lon="12.1098967"><ele>341.0</ele><time>2026-04-23T17:31:57.029Z</time></trkpt><trkpt lat="43.50462" lon="12.1098"><ele>341.0</ele><time>2026-04-23T17:31:58.034Z</time></trkpt><trkpt lat="43.5046683" lon="12.10971"><ele>341.0</ele><time>2026-04-23T17:31:59.031Z</time></trkpt><trkpt lat="43.504715" lon="12.1096183"><ele>341.0</ele><time>2026-04-23T17:32:00.032Z</time></trkpt><trkpt lat="43.5047633" lon="12.109535"><ele>339.0</ele><time>2026-04-23T17:32:01.035Z</time></trkpt><trkpt lat="43.5048167" lon="12.1094617"><ele>337.0</ele><time>2026-04-23T17:32:02.088Z</time></trkpt><trkpt lat="43.5048683" lon="12.109395"><ele>335.0</ele><time>2026-04-23T17:32:03.025Z</time></trkpt><trkpt lat="43.50492" lon="12.1093317"><ele>333.0</ele><time>2026-04-23T17:32:04.031Z</time></trkpt><trkpt lat="43.5049717" lon="12.10928"><ele>331.0</ele><time>2026-04-23T17:32:05.026Z</time></trkpt><trkpt lat="43.5050183" lon="12.109205"><ele>329.0</ele><time>2026-04-23T17:32:06.031Z</time></trkpt><trkpt lat="43.50506" lon="12.109125"><ele>327.0</ele><time>2026-04-23T17:32:07.033Z</time></trkpt><trkpt lat="43.5050917" lon="12.109045"><ele>326.5</ele><time>2026-04-23T17:32:08.077Z</time></trkpt><trkpt lat="43.505115" lon="12.1089517"><ele>326.0</ele><time>2026-04-23T17:32:09.03Z</time></trkpt><trkpt lat="43.5051333" lon="12.108845"><ele>325.5</ele><time>2026-04-23T17:32:10.039Z</time></trkpt><trkpt lat="43.5051467" lon="12.1087333"><ele>325.0</ele><time>2026-04-23T17:32:11.032Z</time></trkpt><trkpt lat="43.5051567" lon="12.1086217"><ele>324.5</ele><time>2026-04-23T17:32:12.031Z</time></trkpt><trkpt lat="43.5051667" lon="12.1085133"><ele>324.0</ele><time>2026-04-23T17:32:13.032Z</time></trkpt><trkpt lat="43.50518" lon="12.1084133"><ele>324.0</ele><time>2026-04-23T17:32:14.063Z</time></trkpt><trkpt lat="43.5052" lon="12.1083283"><ele>324.0</ele><time>2026-04-23T17:32:15.032Z</time></trkpt><trkpt lat="43.5052783" lon="12.1082"><ele>324.0</ele><time>2026-04-23T17:32:17.033Z</time></trkpt><trkpt lat="43.50539" lon="12.1081167"><ele>324.0</ele><time>2026-04-23T17:32:19.022Z</time></trkpt><trkpt lat="43.5054517" lon="12.1080867"><ele>324.0</ele><time>2026-04-23T17:32:20.067Z</time></trkpt><trkpt lat="43.5055133" lon="12.1080667"><ele>324.0</ele><time>2026-04-23T17:32:21.028Z</time></trkpt><trkpt lat="43.5055767" lon="12.1080517"><ele>322.42857142857144</ele><time>2026-04-23T17:32:22.033Z</time></trkpt><trkpt lat="43.505645" lon="12.1080517"><ele>320.85714285714283</ele><time>2026-04-23T17:32:23.034Z</time></trkpt><trkpt lat="43.5057183" lon="12.1080683"><ele>319.2857142857143</ele><time>2026-04-23T17:32:24.033Z</time></trkpt><trkpt lat="43.5057933" lon="12.108095"><ele>317.7142857142857</ele><time>2026-04-23T17:32:25.04Z</time></trkpt><trkpt lat="43.5058633" lon="12.1081233"><ele>316.14285714285717</ele><time>2026-04-23T17:32:26.09Z</time></trkpt><trkpt lat="43.5059367" lon="12.1081517"><ele>314.57142857142856</ele><time>2026-04-23T17:32:27.031Z</time></trkpt><trkpt lat="43.5060117" lon="12.10818"><ele>313.0</ele><time>2026-04-23T17:32:28.027Z</time></trkpt><trkpt lat="43.5060917" lon="12.1082033"><ele>313.0</ele><time>2026-04-23T17:32:29.033Z</time></trkpt><trkpt lat="43.506175" lon="12.108225"><ele>313.0</ele><time>2026-04-23T17:32:30.029Z</time></trkpt><trkpt lat="43.5062567" lon="12.1082433"><ele>313.0</ele><time>2026-04-23T17:32:31.028Z</time></trkpt><trkpt lat="43.5063433" lon="12.108255"><ele>313.0</ele><time>2026-04-23T17:32:32.08Z</time></trkpt><trkpt lat="43.5064283" lon="12.1082567"><ele>313.0</ele><time>2026-04-23T17:32:33.031Z</time></trkpt><trkpt lat="43.5065117" lon="12.1082517"><ele>313.0</ele><time>2026-04-23T17:32:34.04Z</time></trkpt><trkpt lat="43.5065967" lon="12.1082483"><ele>311.66666666666663</ele><time>2026-04-23T17:32:35.034Z</time></trkpt><trkpt lat="43.506685" lon="12.10825"><ele>310.3333333333333</ele><time>2026-04-23T17:32:36.031Z</time></trkpt><trkpt lat="43.5067717" lon="12.1082533"><ele>309.0</ele><time>2026-04-23T17:32:37.043Z</time></trkpt><trkpt lat="43.506855" lon="12.1082617"><ele>307.6666666666667</ele><time>2026-04-23T17:32:38.067Z</time></trkpt><trkpt lat="43.5069383" lon="12.1082733"><ele>306.33333333333337</ele><time>2026-04-23T17:32:39.03Z</time></trkpt><trkpt lat="43.5070183" lon="12.1082883"><ele>305.0</ele><time>2026-04-23T17:32:40.034Z</time></trkpt><trkpt lat="43.5071" lon="12.1083133"><ele>304.33333333333337</ele><time>2026-04-23T17:32:41.034Z</time></trkpt><trkpt lat="43.5071817" lon="12.108345"><ele>303.6666666666667</ele><time>2026-04-23T17:32:42.034Z</time></trkpt><trkpt lat="43.5072633" lon="12.1083717"><ele>303.0</ele><time>2026-04-23T17:32:43.034Z</time></trkpt><trkpt lat="43.5073417" lon="12.1083917"><ele>302.3333333333333</ele><time>2026-04-23T17:32:44.068Z</time></trkpt><trkpt lat="43.5074217" lon="12.1083967"><ele>301.66666666666663</ele><time>2026-04-23T17:32:45.03Z</time></trkpt><trkpt lat="43.5075" lon="12.1083817"><ele>301.0</ele><time>2026-04-23T17:32:46.034Z</time></trkpt><trkpt lat="43.5075767" lon="12.1083483"><ele>301.0</ele><time>2026-04-23T17:32:47.034Z</time></trkpt><trkpt lat="43.507645" lon="12.1083017"><ele>301.0</ele><time>2026-04-23T17:32:48.031Z</time></trkpt><trkpt lat="43.5077133" lon="12.1082483"><ele>301.0</ele><time>2026-04-23T17:32:49.038Z</time></trkpt><trkpt lat="43.5077783" lon="12.1081917"><ele>301.0</ele><time>2026-04-23T17:32:50.066Z</time></trkpt><trkpt lat="43.5078433" lon="12.108135"><ele>301.0</ele><time>2026-04-23T17:32:51.033Z</time></trkpt><trkpt lat="43.50791" lon="12.1080833"><ele>301.0</ele><time>2026-04-23T17:32:52.033Z</time></trkpt><trkpt lat="43.50798" lon="12.1080433"><ele>300.85714285714283</ele><time>2026-04-23T17:32:53.032Z</time></trkpt><trkpt lat="43.508055" lon="12.10802"><ele>300.7142857142857</ele><time>2026-04-23T17:32:54.035Z</time></trkpt><trkpt lat="43.50813" lon="12.108015"><ele>300.57142857142856</ele><time>2026-04-23T17:32:55.04Z</time></trkpt><trkpt lat="43.508205" lon="12.1080217"><ele>300.42857142857144</ele><time>2026-04-23T17:32:56.034Z</time></trkpt><trkpt lat="43.5082783" lon="12.1080317"><ele>300.2857142857143</ele><time>2026-04-23T17:32:57.035Z</time></trkpt><trkpt lat="43.5083483" lon="12.1080467"><ele>300.1428571428571</ele><time>2026-04-23T17:32:58.032Z</time></trkpt><trkpt lat="43.508415" lon="12.1080617"><ele>300.0</ele><time>2026-04-23T17:32:59.038Z</time></trkpt><trkpt lat="43.5084783" lon="12.1080767"><ele>300.0</ele><time>2026-04-23T17:33:00.03Z</time></trkpt><trkpt lat="43.5085417" lon="12.1080917"><ele>300.0</ele><time>2026-04-23T17:33:01.029Z</time></trkpt><trkpt lat="43.508605" lon="12.108105"><ele>300.0</ele><time>2026-04-23T17:33:02.022Z</time></trkpt><trkpt lat="43.5087217" lon="12.10813"><ele>300.0</ele><time>2026-04-23T17:33:04.03Z</time></trkpt><trkpt lat="43.5088317" lon="12.10815"><ele>300.0</ele><time>2026-04-23T17:33:06.03Z</time></trkpt><trkpt lat="43.508935" lon="12.1081767"><ele>300.0</ele><time>2026-04-23T17:33:08.068Z</time></trkpt><trkpt lat="43.5090383" lon="12.108195"><ele>300.0</ele><time>2026-04-23T17:33:10.033Z</time></trkpt><trkpt lat="43.50914" lon="12.108215"><ele>300.0</ele><time>2026-04-23T17:33:12.031Z</time></trkpt><trkpt lat="43.50924" lon="12.1082317"><ele>300.0</ele><time>2026-04-23T17:33:14.069Z</time></trkpt><trkpt lat="43.509335" lon="12.10825"><ele>300.0</ele><time>2026-04-23T17:33:16.036Z</time></trkpt><trkpt lat="43.5094333" lon="12.108265"><ele>300.0</ele><time>2026-04-23T17:33:18.032Z</time></trkpt><trkpt lat="43.5095383" lon="12.1082767"><ele>300.0</ele><time>2026-04-23T17:33:20.07Z</time></trkpt><trkpt lat="43.50964" lon="12.1082983"><ele>300.0</ele><time>2026-04-23T17:33:22.04Z</time></trkpt><trkpt lat="43.5097467" lon="12.10832"><ele>300.0</ele><time>2026-04-23T17:33:24.033Z</time></trkpt><trkpt lat="43.5098483" lon="12.10834"><ele>300.0</ele><time>2026-04-23T17:33:26.002Z</time></trkpt><trkpt lat="43.5099517" lon="12.1083567"><ele>300.2</ele><time>2026-04-23T17:33:28.04Z</time></trkpt><trkpt lat="43.510055" lon="12.108375"><ele>300.4</ele><time>2026-04-23T17:33:30.035Z</time></trkpt><trkpt lat="43.5101633" lon="12.1083967"><ele>300.6</ele><time>2026-04-23T17:33:32.079Z</time></trkpt><trkpt lat="43.5102733" lon="12.1084133"><ele>300.8</ele><time>2026-04-23T17:33:34.03Z</time></trkpt><trkpt lat="43.5103817" lon="12.1084367"><ele>301.0</ele><time>2026-04-23T17:33:36.035Z</time></trkpt><trkpt lat="43.5104883" lon="12.1084633"><ele>301.2</ele><time>2026-04-23T17:33:38.071Z</time></trkpt><trkpt lat="43.5105967" lon="12.108485"><ele>301.40000000000003</ele><time>2026-04-23T17:33:40.037Z</time></trkpt><trkpt lat="43.5107033" lon="12.108505"><ele>301.6</ele><time>2026-04-23T17:33:42.025Z</time></trkpt><trkpt lat="43.510805" lon="12.10853"><ele>301.8</ele><time>2026-04-23T17:33:44.069Z</time></trkpt><trkpt lat="43.5109083" lon="12.1085567"><ele>302.0</ele><time>2026-04-23T17:33:46.034Z</time></trkpt><trkpt lat="43.5110083" lon="12.10858"><ele>302.0</ele><time>2026-04-23T17:33:48.034Z</time></trkpt><trkpt lat="43.5110967" lon="12.108595"><ele>302.0</ele><time>2026-04-23T17:33:50.077Z</time></trkpt><trkpt lat="43.5111717" lon="12.108595"><ele>302.0</ele><time>2026-04-23T17:33:52.03Z</time></trkpt><trkpt lat="43.5112517" lon="12.1085533"><ele>302.0</ele><time>2026-04-23T17:33:55.032Z</time></trkpt><trkpt lat="43.5113167" lon="12.1085167"><ele>302.0</ele><time>2026-04-23T17:33:57.015Z</time></trkpt><trkpt lat="43.5113967" lon="12.1084717"><ele>302.0</ele><time>2026-04-23T17:33:59.023Z</time></trkpt><trkpt lat="43.5114883" lon="12.10843"><ele>302.0</ele><time>2026-04-23T17:34:01.025Z</time></trkpt><trkpt lat="43.511595" lon="12.1083717"><ele>302.0</ele><time>2026-04-23T17:34:03.029Z</time></trkpt><trkpt lat="43.5117067" lon="12.1083117"><ele>302.0</ele><time>2026-04-23T17:34:05.032Z</time></trkpt><trkpt lat="43.5118117" lon="12.10825"><ele>302.0</ele><time>2026-04-23T17:34:07.033Z</time></trkpt><trkpt lat="43.5118967" lon="12.1081583"><ele>302.0</ele><time>2026-04-23T17:34:09.034Z</time></trkpt><trkpt lat="43.5119383" lon="12.1080267"><ele>302.0</ele><time>2026-04-23T17:34:11.033Z</time></trkpt><trkpt lat="43.5119467" lon="12.1079033"><ele>302.0</ele><time>2026-04-23T17:34:13.03Z</time></trkpt><trkpt lat="43.5119417" lon="12.107785"><ele>302.0</ele><time>2026-04-23T17:34:15.018Z</time></trkpt><trkpt lat="43.51194" lon="12.10766"><ele>302.0</ele><time>2026-04-23T17:34:17.034Z</time></trkpt><trkpt lat="43.5119383" lon="12.107525"><ele>302.0</ele><time>2026-04-23T17:34:19.032Z</time></trkpt><trkpt lat="43.5119433" lon="12.107405"><ele>302.0</ele><time>2026-04-23T17:34:21.033Z</time></trkpt><trkpt lat="43.511945" lon="12.1072883"><ele>302.0</ele><time>2026-04-23T17:34:23.03Z</time></trkpt><trkpt lat="43.5119467" lon="12.1071717"><ele>302.0</ele><time>2026-04-23T17:34:25.018Z</time></trkpt><trkpt lat="43.5119533" lon="12.1070583"><ele>302.0</ele><time>2026-04-23T17:34:27.031Z</time></trkpt><trkpt lat="43.5119683" lon="12.1069417"><ele>302.0</ele><time>2026-04-23T17:34:29.029Z</time></trkpt><trkpt lat="43.511985" lon="12.1068283"><ele>302.0</ele><time>2026-04-23T17:34:31.029Z</time></trkpt><trkpt lat="43.5119967" lon="12.10671"><ele>302.0</ele><time>2026-04-23T17:34:33.033Z</time></trkpt><trkpt lat="43.5120167" lon="12.1065967"><ele>302.0</ele><time>2026-04-23T17:34:35.025Z</time></trkpt><trkpt lat="43.51205" lon="12.1064933"><ele>302.0</ele><time>2026-04-23T17:34:37.01Z</time></trkpt><trkpt lat="43.5120883" lon="12.1063917"><ele>302.0</ele><time>2026-04-23T17:34:39.008Z</time></trkpt><trkpt lat="43.51214" lon="12.1063"><ele>302.0</ele><time>2026-04-23T17:34:41.019Z</time></trkpt><trkpt lat="43.51221" lon="12.1062367"><ele>302.33333333333337</ele><time>2026-04-23T17:34:42.999Z</time></trkpt><trkpt lat="43.5122767" lon="12.10622"><ele>302.6666666666667</ele><time>2026-04-23T17:34:44.999Z</time></trkpt><trkpt lat="43.512365" lon="12.1062067"><ele>303.0</ele><time>2026-04-23T17:34:47.018Z</time></trkpt><trkpt lat="43.51245" lon="12.106225"><ele>303.3333333333333</ele><time>2026-04-23T17:34:49.031Z</time></trkpt><trkpt lat="43.51253" lon="12.1062517"><ele>303.66666666666663</ele><time>2026-04-23T17:34:51.03Z</time></trkpt><trkpt lat="43.51261" lon="12.10628"><ele>304.0</ele><time>2026-04-23T17:34:53.031Z</time></trkpt><trkpt lat="43.5126883" lon="12.1063133"><ele>304.0</ele><time>2026-04-23T17:34:55.02Z</time></trkpt><trkpt lat="43.5127617" lon="12.10635"><ele>304.0</ele><time>2026-04-23T17:34:57.014Z</time></trkpt><trkpt lat="43.5128367" lon="12.1063933"><ele>304.0</ele><time>2026-04-23T17:34:59.031Z</time></trkpt><trkpt lat="43.5129083" lon="12.10644"><ele>304.0</ele><time>2026-04-23T17:35:01.019Z</time></trkpt><trkpt lat="43.5129767" lon="12.1064917"><ele>304.0</ele><time>2026-04-23T17:35:03.035Z</time></trkpt><trkpt lat="43.513045" lon="12.1065283"><ele>304.0</ele><time>2026-04-23T17:35:05.032Z</time></trkpt><trkpt lat="43.5131133" lon="12.1065433"><ele>305.16666666666663</ele><time>2026-04-23T17:35:07.018Z</time></trkpt><trkpt lat="43.5131867" lon="12.1065467"><ele>306.3333333333333</ele><time>2026-04-23T17:35:09.031Z</time></trkpt><trkpt lat="43.5132767" lon="12.1065267"><ele>307.5</ele><time>2026-04-23T17:35:12.033Z</time></trkpt><trkpt lat="43.513355" lon="12.1064967"><ele>308.6666666666667</ele><time>2026-04-23T17:35:15.031Z</time></trkpt><trkpt lat="43.5134233" lon="12.1064583"><ele>309.83333333333337</ele><time>2026-04-23T17:35:18.02Z</time></trkpt><trkpt lat="43.5134967" lon="12.10642"><ele>311.0</ele><time>2026-04-23T17:35:21.029Z</time></trkpt><trkpt lat="43.5135567" lon="12.1063533"><ele>311.0</ele><time>2026-04-23T17:35:24.03Z</time></trkpt><trkpt lat="43.513575" lon="12.10624"><ele>311.0</ele><time>2026-04-23T17:35:27.032Z</time></trkpt><trkpt lat="43.5135583" lon="12.106155"><ele>311.0</ele><time>2026-04-23T17:35:29.03Z</time></trkpt><trkpt lat="43.513535" lon="12.1060633"><ele>311.0</ele><time>2026-04-23T17:35:31.017Z</time></trkpt><trkpt lat="43.513505" lon="12.1059667"><ele>311.0</ele><time>2026-04-23T17:35:33.029Z</time></trkpt><trkpt lat="43.51348" lon="12.1058617"><ele>311.0</ele><time>2026-04-23T17:35:35.032Z</time></trkpt><trkpt lat="43.5134533" lon="12.1057583"><ele>312.33333333333337</ele><time>2026-04-23T17:35:37.031Z</time></trkpt><trkpt lat="43.51342" lon="12.1056533"><ele>313.6666666666667</ele><time>2026-04-23T17:35:39.028Z</time></trkpt><trkpt lat="43.5133833" lon="12.1055517"><ele>315.0</ele><time>2026-04-23T17:35:41.029Z</time></trkpt><trkpt lat="43.513355" lon="12.10545"><ele>316.3333333333333</ele><time>2026-04-23T17:35:43.017Z</time></trkpt><trkpt lat="43.513325" lon="12.10535"><ele>317.66666666666663</ele><time>2026-04-23T17:35:45.029Z</time></trkpt><trkpt lat="43.5132967" lon="12.10525"><ele>319.0</ele><time>2026-04-23T17:35:47.034Z</time></trkpt><trkpt lat="43.5132667" lon="12.10515"><ele>319.0</ele><time>2026-04-23T17:35:49.034Z</time></trkpt><trkpt lat="43.51323" lon="12.1050467"><ele>319.0</ele><time>2026-04-23T17:35:51.029Z</time></trkpt><trkpt lat="43.513195" lon="12.10494"><ele>319.0</ele><time>2026-04-23T17:35:53.031Z</time></trkpt><trkpt lat="43.513165" lon="12.1048383"><ele>319.0</ele><time>2026-04-23T17:35:55.019Z</time></trkpt><trkpt lat="43.51314" lon="12.1047317"><ele>319.0</ele><time>2026-04-23T17:35:57.031Z</time></trkpt><trkpt lat="43.513115" lon="12.1046217"><ele>319.0</ele><time>2026-04-23T17:35:59.03Z</time></trkpt><trkpt lat="43.5130883" lon="12.1045067"><ele>319.79999999999995</ele><time>2026-04-23T17:36:01.028Z</time></trkpt><trkpt lat="43.513055" lon="12.1043917"><ele>320.59999999999997</ele><time>2026-04-23T17:36:03.027Z</time></trkpt><trkpt lat="43.513025" lon="12.1042833"><ele>321.4</ele><time>2026-04-23T17:36:05.033Z</time></trkpt><trkpt lat="43.51299" lon="12.1041633"><ele>322.2</ele><time>2026-04-23T17:36:07.029Z</time></trkpt><trkpt lat="43.5129583" lon="12.1040467"><ele>323.0</ele><time>2026-04-23T17:36:09.03Z</time></trkpt><trkpt lat="43.512925" lon="12.10392"><ele>320.79999999999995</ele><time>2026-04-23T17:36:11.029Z</time></trkpt><trkpt lat="43.512895" lon="12.1037933"><ele>318.59999999999997</ele><time>2026-04-23T17:36:13.038Z</time></trkpt><trkpt lat="43.5128733" lon="12.1036683"><ele>316.4</ele><time>2026-04-23T17:36:15.029Z</time></trkpt><trkpt lat="43.5128483" lon="12.10354"><ele>314.2</ele><time>2026-04-23T17:36:17.038Z</time></trkpt><trkpt lat="43.5128233" lon="12.103415"><ele>312.0</ele><time>2026-04-23T17:36:19.034Z</time></trkpt><trkpt lat="43.5127917" lon="12.1032833"><ele>312.8</ele><time>2026-04-23T17:36:21.03Z</time></trkpt><trkpt lat="43.51276" lon="12.1031483"><ele>313.6</ele><time>2026-04-23T17:36:23.032Z</time></trkpt><trkpt lat="43.5127283" lon="12.10301"><ele>314.40000000000003</ele><time>2026-04-23T17:36:25.032Z</time></trkpt><trkpt lat="43.5127017" lon="12.10287"><ele>315.2</ele><time>2026-04-23T17:36:27.02Z</time></trkpt><trkpt lat="43.512675" lon="12.10273"><ele>316.0</ele><time>2026-04-23T17:36:29.033Z</time></trkpt><trkpt lat="43.5126483" lon="12.1025933"><ele>316.0</ele><time>2026-04-23T17:36:31.036Z</time></trkpt><trkpt lat="43.5126233" lon="12.1024567"><ele>316.0</ele><time>2026-04-23T17:36:33.03Z</time></trkpt><trkpt lat="43.5126" lon="12.1023217"><ele>316.0</ele><time>2026-04-23T17:36:35.032Z</time></trkpt><trkpt lat="43.5125767" lon="12.1021833"><ele>316.0</ele><time>2026-04-23T17:36:37.049Z</time></trkpt><trkpt lat="43.51255" lon="12.1020467"><ele>316.0</ele><time>2026-04-23T17:36:39.034Z</time></trkpt><trkpt lat="43.5125217" lon="12.1019033"><ele>315.8</ele><time>2026-04-23T17:36:41.032Z</time></trkpt><trkpt lat="43.512495" lon="12.1017617"><ele>315.6</ele><time>2026-04-23T17:36:43.034Z</time></trkpt><trkpt lat="43.51247" lon="12.1016183"><ele>315.4</ele><time>2026-04-23T17:36:45.032Z</time></trkpt><trkpt lat="43.5124467" lon="12.1014783"><ele>315.2</ele><time>2026-04-23T17:36:47.032Z</time></trkpt><trkpt lat="43.5124217" lon="12.101335"><ele>315.0</ele><time>2026-04-23T17:36:49.031Z</time></trkpt><trkpt lat="43.5123967" lon="12.1011933"><ele>315.8</ele><time>2026-04-23T17:36:51.031Z</time></trkpt><trkpt lat="43.5123717" lon="12.1010517"><ele>316.6</ele><time>2026-04-23T17:36:53.032Z</time></trkpt><trkpt lat="43.5123467" lon="12.1009083"><ele>317.4</ele><time>2026-04-23T17:36:55.039Z</time></trkpt><trkpt lat="43.512325" lon="12.1007633"><ele>318.2</ele><time>2026-04-23T17:36:57.034Z</time></trkpt><trkpt lat="43.5123033" lon="12.1006183"><ele>319.0</ele><time>2026-04-23T17:36:59.023Z</time></trkpt><trkpt lat="43.5122883" lon="12.100475"><ele>319.2</ele><time>2026-04-23T17:37:01.036Z</time></trkpt><trkpt lat="43.51228" lon="12.1003333"><ele>319.4</ele><time>2026-04-23T17:37:03.034Z</time></trkpt><trkpt lat="43.5122733" lon="12.1001883"><ele>319.6</ele><time>2026-04-23T17:37:05.035Z</time></trkpt><trkpt lat="43.5122717" lon="12.1000417"><ele>319.8</ele><time>2026-04-23T17:37:07.037Z</time></trkpt><trkpt lat="43.5122717" lon="12.0999"><ele>320.0</ele><time>2026-04-23T17:37:09.032Z</time></trkpt><trkpt lat="43.5122717" lon="12.0997517"><ele>320.0</ele><time>2026-04-23T17:37:11.031Z</time></trkpt><trkpt lat="43.5122767" lon="12.0996033"><ele>320.0</ele><time>2026-04-23T17:37:13.042Z</time></trkpt><trkpt lat="43.5122783" lon="12.0994533"><ele>320.0</ele><time>2026-04-23T17:37:15.031Z</time></trkpt><trkpt lat="43.5122783" lon="12.0992933"><ele>320.0</ele><time>2026-04-23T17:37:17.04Z</time></trkpt><trkpt lat="43.5122833" lon="12.099135"><ele>320.0</ele><time>2026-04-23T17:37:19.03Z</time></trkpt><trkpt lat="43.5122883" lon="12.09898"><ele>320.0</ele><time>2026-04-23T17:37:21.032Z</time></trkpt><trkpt lat="43.512295" lon="12.0988233"><ele>320.0</ele><time>2026-04-23T17:37:23.035Z</time></trkpt><trkpt lat="43.5122967" lon="12.098665"><ele>320.0</ele><time>2026-04-23T17:37:25.042Z</time></trkpt><trkpt lat="43.5122933" lon="12.0985117"><ele>320.0</ele><time>2026-04-23T17:37:27.029Z</time></trkpt><trkpt lat="43.5122933" lon="12.0983583"><ele>320.2</ele><time>2026-04-23T17:37:29.034Z</time></trkpt><trkpt lat="43.5122883" lon="12.0982"><ele>320.4</ele><time>2026-04-23T17:37:31.033Z</time></trkpt><trkpt lat="43.5122783" lon="12.0980383"><ele>320.6</ele><time>2026-04-23T17:37:33.033Z</time></trkpt><trkpt lat="43.5122667" lon="12.0978867"><ele>320.8</ele><time>2026-04-23T17:37:35.03Z</time></trkpt><trkpt lat="43.5122567" lon="12.0977483"><ele>321.0</ele><time>2026-04-23T17:37:37.037Z</time></trkpt><trkpt lat="43.5122433" lon="12.0976233"><ele>321.0</ele><time>2026-04-23T17:37:39.03Z</time></trkpt><trkpt lat="43.5122183" lon="12.0974983"><ele>321.0</ele><time>2026-04-23T17:37:41.035Z</time></trkpt><trkpt lat="43.5121883" lon="12.09737"><ele>321.0</ele><time>2026-04-23T17:37:43.034Z</time></trkpt><trkpt lat="43.51213" lon="12.0972383"><ele>321.0</ele><time>2026-04-23T17:37:45.033Z</time></trkpt><trkpt lat="43.5120617" lon="12.097095"><ele>321.0</ele><time>2026-04-23T17:37:47.033Z</time></trkpt><trkpt lat="43.5119917" lon="12.09695"><ele>319.0</ele><time>2026-04-23T17:37:49.034Z</time></trkpt><trkpt lat="43.5119183" lon="12.0968167"><ele>317.0</ele><time>2026-04-23T17:37:51.033Z</time></trkpt><trkpt lat="43.5118533" lon="12.0966883"><ele>315.0</ele><time>2026-04-23T17:37:53.03Z</time></trkpt><trkpt lat="43.5117883" lon="12.0965517"><ele>313.0</ele><time>2026-04-23T17:37:55.032Z</time></trkpt><trkpt lat="43.51174" lon="12.0964"><ele>313.0</ele><time>2026-04-23T17:37:57.033Z</time></trkpt><trkpt lat="43.5117183" lon="12.0962483"><ele>313.0</ele><time>2026-04-23T17:37:59.035Z</time></trkpt><trkpt lat="43.51172" lon="12.096095"><ele>313.0</ele><time>2026-04-23T17:38:01.034Z</time></trkpt><trkpt lat="43.5117233" lon="12.0959483"><ele>313.0</ele><time>2026-04-23T17:38:03.035Z</time></trkpt><trkpt lat="43.5117267" lon="12.0957967"><ele>313.0</ele><time>2026-04-23T17:38:05.031Z</time></trkpt><trkpt lat="43.5117283" lon="12.0956433"><ele>313.5</ele><time>2026-04-23T17:38:07.034Z</time></trkpt><trkpt lat="43.5117283" lon="12.0954817"><ele>314.0</ele><time>2026-04-23T17:38:09.03Z</time></trkpt><trkpt lat="43.5117283" lon="12.0953217"><ele>314.5</ele><time>2026-04-23T17:38:11.034Z</time></trkpt><trkpt lat="43.5117333" lon="12.0951633"><ele>315.0</ele><time>2026-04-23T17:38:13.034Z</time></trkpt><trkpt lat="43.5117383" lon="12.0950217"><ele>315.4</ele><time>2026-04-23T17:38:15.033Z</time></trkpt><trkpt lat="43.5117467" lon="12.0948767"><ele>315.8</ele><time>2026-04-23T17:38:17.031Z</time></trkpt><trkpt lat="43.5117517" lon="12.0947333"><ele>316.2</ele><time>2026-04-23T17:38:19.033Z</time></trkpt><trkpt lat="43.51176" lon="12.094585"><ele>316.6</ele><time>2026-04-23T17:38:21.035Z</time></trkpt><trkpt lat="43.5117633" lon="12.09444"><ele>317.0</ele><time>2026-04-23T17:38:23.031Z</time></trkpt><trkpt lat="43.5117667" lon="12.0943"><ele>317.0</ele><time>2026-04-23T17:38:25.033Z</time></trkpt><trkpt lat="43.511775" lon="12.0941617"><ele>317.0</ele><time>2026-04-23T17:38:27.034Z</time></trkpt><trkpt lat="43.51178" lon="12.0940217"><ele>317.0</ele><time>2026-04-23T17:38:29.023Z</time></trkpt><trkpt lat="43.511785" lon="12.0938833"><ele>317.0</ele><time>2026-04-23T17:38:31.019Z</time></trkpt><trkpt lat="43.5117917" lon="12.0937467"><ele>317.0</ele><time>2026-04-23T17:38:33.032Z</time></trkpt><trkpt lat="43.5117933" lon="12.093605"><ele>317.0</ele><time>2026-04-23T17:38:35.033Z</time></trkpt><trkpt lat="43.5118" lon="12.0934667"><ele>317.0</ele><time>2026-04-23T17:38:37.035Z</time></trkpt><trkpt lat="43.5118017" lon="12.09333"><ele>317.0</ele><time>2026-04-23T17:38:39.033Z</time></trkpt><trkpt lat="43.5118083" lon="12.0932017"><ele>317.0</ele><time>2026-04-23T17:38:41.036Z</time></trkpt><trkpt lat="43.511805" lon="12.093075"><ele>317.0</ele><time>2026-04-23T17:38:43.033Z</time></trkpt><trkpt lat="43.5117933" lon="12.09295"><ele>316.8</ele><time>2026-04-23T17:38:45.034Z</time></trkpt><trkpt lat="43.511785" lon="12.0928133"><ele>316.6</ele><time>2026-04-23T17:38:47.032Z</time></trkpt><trkpt lat="43.5117783" lon="12.092685"><ele>316.40000000000003</ele><time>2026-04-23T17:38:49.036Z</time></trkpt><trkpt lat="43.5117733" lon="12.09255"><ele>316.2</ele><time>2026-04-23T17:38:51.032Z</time></trkpt><trkpt lat="43.51177" lon="12.092405"><ele>316.0</ele><time>2026-04-23T17:38:53.03Z</time></trkpt><trkpt lat="43.5117683" lon="12.0922633"><ele>315.8</ele><time>2026-04-23T17:38:55.032Z</time></trkpt><trkpt lat="43.5117717" lon="12.0921417"><ele>315.6</ele><time>2026-04-23T17:38:57.036Z</time></trkpt><trkpt lat="43.5117717" lon="12.09202"><ele>315.4</ele><time>2026-04-23T17:38:59.035Z</time></trkpt><trkpt lat="43.511765" lon="12.0918833"><ele>315.2</ele><time>2026-04-23T17:39:01.038Z</time></trkpt><trkpt lat="43.511755" lon="12.09173"><ele>315.0</ele><time>2026-04-23T17:39:03.032Z</time></trkpt><trkpt lat="43.51174" lon="12.0915683"><ele>314.5</ele><time>2026-04-23T17:39:05.032Z</time></trkpt><trkpt lat="43.511735" lon="12.09141"><ele>314.0</ele><time>2026-04-23T17:39:07.032Z</time></trkpt><trkpt lat="43.5117283" lon="12.09125"><ele>313.5</ele><time>2026-04-23T17:39:09.037Z</time></trkpt><trkpt lat="43.511715" lon="12.091095"><ele>313.0</ele><time>2026-04-23T17:39:11.017Z</time></trkpt><trkpt lat="43.511705" lon="12.0909333"><ele>313.0</ele><time>2026-04-23T17:39:13.031Z</time></trkpt><trkpt lat="43.5117" lon="12.0907767"><ele>313.0</ele><time>2026-04-23T17:39:15.028Z</time></trkpt><trkpt lat="43.5116983" lon="12.090635"><ele>313.0</ele><time>2026-04-23T17:39:17.036Z</time></trkpt><trkpt lat="43.5116917" lon="12.0904933"><ele>313.0</ele><time>2026-04-23T17:39:19.031Z</time></trkpt><trkpt lat="43.5116767" lon="12.0903483"><ele>313.0</ele><time>2026-04-23T17:39:21.031Z</time></trkpt><trkpt lat="43.51165" lon="12.0902067"><ele>313.2</ele><time>2026-04-23T17:39:23.035Z</time></trkpt><trkpt lat="43.5116117" lon="12.0900667"><ele>313.4</ele><time>2026-04-23T17:39:25.033Z</time></trkpt><trkpt lat="43.511575" lon="12.0899367"><ele>313.59999999999997</ele><time>2026-04-23T17:39:27.034Z</time></trkpt><trkpt lat="43.5115383" lon="12.0898083"><ele>313.8</ele><time>2026-04-23T17:39:29.035Z</time></trkpt><trkpt lat="43.5114967" lon="12.089685"><ele>314.0</ele><time>2026-04-23T17:39:31.034Z</time></trkpt><trkpt lat="43.5114367" lon="12.0895783"><ele>314.0</ele><time>2026-04-23T17:39:33.031Z</time></trkpt><trkpt lat="43.5113867" lon="12.0894733"><ele>314.0</ele><time>2026-04-23T17:39:35.032Z</time></trkpt><trkpt lat="43.5113317" lon="12.0893683"><ele>314.0</ele><time>2026-04-23T17:39:37.043Z</time></trkpt><trkpt lat="43.5112817" lon="12.0892583"><ele>314.0</ele><time>2026-04-23T17:39:39.031Z</time></trkpt><trkpt lat="43.5112367" lon="12.08913"><ele>314.0</ele><time>2026-04-23T17:39:41.039Z</time></trkpt><trkpt lat="43.5112" lon="12.0889867"><ele>313.59999999999997</ele><time>2026-04-23T17:39:43.038Z</time></trkpt><trkpt lat="43.5111733" lon="12.0888383"><ele>313.2</ele><time>2026-04-23T17:39:45.031Z</time></trkpt><trkpt lat="43.5111617" lon="12.0886967"><ele>312.79999999999995</ele><time>2026-04-23T17:39:47.03Z</time></trkpt><trkpt lat="43.5111533" lon="12.08856"><ele>312.4</ele><time>2026-04-23T17:39:49.038Z</time></trkpt><trkpt lat="43.5111467" lon="12.0884267"><ele>312.0</ele><time>2026-04-23T17:39:51.033Z</time></trkpt><trkpt lat="43.51114" lon="12.0882917"><ele>311.8</ele><time>2026-04-23T17:39:53.04Z</time></trkpt><trkpt lat="43.511135" lon="12.0881567"><ele>311.6</ele><time>2026-04-23T17:39:55.038Z</time></trkpt><trkpt lat="43.51113" lon="12.0880167"><ele>311.40000000000003</ele><time>2026-04-23T17:39:57.033Z</time></trkpt><trkpt lat="43.51112" lon="12.0878717"><ele>311.2</ele><time>2026-04-23T17:39:59.03Z</time></trkpt><trkpt lat="43.511115" lon="12.087735"><ele>311.0</ele><time>2026-04-23T17:40:01.034Z</time></trkpt><trkpt lat="43.5111083" lon="12.0875867"><ele>311.0</ele><time>2026-04-23T17:40:03.029Z</time></trkpt><trkpt lat="43.5111" lon="12.0874333"><ele>311.0</ele><time>2026-04-23T17:40:05.028Z</time></trkpt><trkpt lat="43.5110917" lon="12.0872733"><ele>311.0</ele><time>2026-04-23T17:40:07.031Z</time></trkpt><trkpt lat="43.511085" lon="12.0871183"><ele>311.0</ele><time>2026-04-23T17:40:09.034Z</time></trkpt><trkpt lat="43.5110833" lon="12.0869767"><ele>311.0</ele><time>2026-04-23T17:40:11.034Z</time></trkpt><trkpt lat="43.5110767" lon="12.08684"><ele>310.8</ele><time>2026-04-23T17:40:13.038Z</time></trkpt><trkpt lat="43.51105" lon="12.08671"><ele>310.6</ele><time>2026-04-23T17:40:15.031Z</time></trkpt><trkpt lat="43.51102" lon="12.0865667"><ele>310.4</ele><time>2026-04-23T17:40:17.031Z</time></trkpt><trkpt lat="43.5110283" lon="12.08643"><ele>310.2</ele><time>2026-04-23T17:40:19.035Z</time></trkpt><trkpt lat="43.51103" lon="12.0862983"><ele>310.0</ele><time>2026-04-23T17:40:21.034Z</time></trkpt><trkpt lat="43.5110283" lon="12.086165"><ele>310.0</ele><time>2026-04-23T17:40:23.032Z</time></trkpt><trkpt lat="43.5110267" lon="12.0860283"><ele>310.0</ele><time>2026-04-23T17:40:25.034Z</time></trkpt><trkpt lat="43.5110183" lon="12.0858833"><ele>310.0</ele><time>2026-04-23T17:40:27.028Z</time></trkpt><trkpt lat="43.5110117" lon="12.085745"><ele>310.0</ele><time>2026-04-23T17:40:29.035Z</time></trkpt><trkpt lat="43.511005" lon="12.0856033"><ele>310.0</ele><time>2026-04-23T17:40:31.032Z</time></trkpt><trkpt lat="43.5109933" lon="12.0854617"><ele>310.0</ele><time>2026-04-23T17:40:33.034Z</time></trkpt><trkpt lat="43.5109883" lon="12.0853217"><ele>310.0</ele><time>2026-04-23T17:40:35.034Z</time></trkpt><trkpt lat="43.5109933" lon="12.08519"><ele>310.0</ele><time>2026-04-23T17:40:37.031Z</time></trkpt><trkpt lat="43.5109917" lon="12.0850517"><ele>310.0</ele><time>2026-04-23T17:40:39.032Z</time></trkpt><trkpt lat="43.510975" lon="12.0849167"><ele>310.0</ele><time>2026-04-23T17:40:41.031Z</time></trkpt><trkpt lat="43.510955" lon="12.08479"><ele>310.2</ele><time>2026-04-23T17:40:43.032Z</time></trkpt><trkpt lat="43.5109217" lon="12.08468"><ele>310.4</ele><time>2026-04-23T17:40:45.021Z</time></trkpt><trkpt lat="43.5108433" lon="12.0846283"><ele>310.6</ele><time>2026-04-23T17:40:47.032Z</time></trkpt><trkpt lat="43.51074" lon="12.0846117"><ele>310.8</ele><time>2026-04-23T17:40:49.034Z</time></trkpt><trkpt lat="43.5106317" lon="12.0845933"><ele>311.0</ele><time>2026-04-23T17:40:51.031Z</time></trkpt><trkpt lat="43.5105283" lon="12.0845733"><ele>311.0</ele><time>2026-04-23T17:40:53.033Z</time></trkpt><trkpt lat="43.5104217" lon="12.084555"><ele>311.0</ele><time>2026-04-23T17:40:55.031Z</time></trkpt><trkpt lat="43.5103133" lon="12.0845417"><ele>311.0</ele><time>2026-04-23T17:40:57.032Z</time></trkpt><trkpt lat="43.5102033" lon="12.08453"><ele>311.0</ele><time>2026-04-23T17:40:59.033Z</time></trkpt><trkpt lat="43.510095" lon="12.0845167"><ele>311.0</ele><time>2026-04-23T17:41:01.033Z</time></trkpt><trkpt lat="43.5099883" lon="12.084505"><ele>311.0</ele><time>2026-04-23T17:41:03.034Z</time></trkpt><trkpt lat="43.50988" lon="12.0844867"><ele>311.0</ele><time>2026-04-23T17:41:05.031Z</time></trkpt><trkpt lat="43.5097667" lon="12.08447"><ele>311.0</ele><time>2026-04-23T17:41:07.029Z</time></trkpt><trkpt lat="43.5096567" lon="12.0844517"><ele>311.0</ele><time>2026-04-23T17:41:09.032Z</time></trkpt><trkpt lat="43.5095467" lon="12.0844333"><ele>311.0</ele><time>2026-04-23T17:41:11.034Z</time></trkpt><trkpt lat="43.5094367" lon="12.0844117"><ele>310.8</ele><time>2026-04-23T17:41:13.036Z</time></trkpt><trkpt lat="43.5093283" lon="12.0843917"><ele>310.6</ele><time>2026-04-23T17:41:15.03Z</time></trkpt><trkpt lat="43.50922" lon="12.0843717"><ele>310.4</ele><time>2026-04-23T17:41:17.033Z</time></trkpt><trkpt lat="43.5091133" lon="12.0843367"><ele>310.2</ele><time>2026-04-23T17:41:19.033Z</time></trkpt><trkpt lat="43.509005" lon="12.0842917"><ele>310.0</ele><time>2026-04-23T17:41:21.036Z</time></trkpt><trkpt lat="43.5089" lon="12.0842483"><ele>310.0</ele><time>2026-04-23T17:41:23.035Z</time></trkpt><trkpt lat="43.5087917" lon="12.0842067"><ele>310.0</ele><time>2026-04-23T17:41:25.032Z</time></trkpt><trkpt lat="43.5086833" lon="12.0841633"><ele>310.0</ele><time>2026-04-23T17:41:27.033Z</time></trkpt><trkpt lat="43.5085733" lon="12.0841217"><ele>310.0</ele><time>2026-04-23T17:41:29.035Z</time></trkpt><trkpt lat="43.5084667" lon="12.0840817"><ele>310.0</ele><time>2026-04-23T17:41:31.032Z</time></trkpt><trkpt lat="43.5083567" lon="12.0840483"><ele>310.0</ele><time>2026-04-23T17:41:33.033Z</time></trkpt><trkpt lat="43.5082433" lon="12.08402"><ele>310.0</ele><time>2026-04-23T17:41:35.036Z</time></trkpt><trkpt lat="43.5081333" lon="12.0839767"><ele>310.0</ele><time>2026-04-23T17:41:37.032Z</time></trkpt><trkpt lat="43.5080267" lon="12.0839317"><ele>310.0</ele><time>2026-04-23T17:41:39.032Z</time></trkpt><trkpt lat="43.5079167" lon="12.0838783"><ele>310.0</ele><time>2026-04-23T17:41:41.035Z</time></trkpt><trkpt lat="43.50781" lon="12.08382"><ele>310.0</ele><time>2026-04-23T17:41:43.035Z</time></trkpt><trkpt lat="43.5077017" lon="12.0837683"><ele>310.0</ele><time>2026-04-23T17:41:45.032Z</time></trkpt><trkpt lat="43.5075933" lon="12.0837233"><ele>309.5</ele><time>2026-04-23T17:41:47.029Z</time></trkpt><trkpt lat="43.5074817" lon="12.0836817"><ele>309.0</ele><time>2026-04-23T17:41:49.034Z</time></trkpt><trkpt lat="43.50737" lon="12.0836417"><ele>308.5</ele><time>2026-04-23T17:41:51.033Z</time></trkpt><trkpt lat="43.507265" lon="12.0836017"><ele>308.0</ele><time>2026-04-23T17:41:53.037Z</time></trkpt><trkpt lat="43.507155" lon="12.0835667"><ele>308.0</ele><time>2026-04-23T17:41:55.033Z</time></trkpt><trkpt lat="43.507045" lon="12.083525"><ele>308.0</ele><time>2026-04-23T17:41:57.034Z</time></trkpt><trkpt lat="43.50694" lon="12.08348"><ele>308.0</ele><time>2026-04-23T17:41:59.026Z</time></trkpt><trkpt lat="43.5068267" lon="12.0834417"><ele>308.0</ele><time>2026-04-23T17:42:01.036Z</time></trkpt><trkpt lat="43.5067167" lon="12.083395"><ele>308.0</ele><time>2026-04-23T17:42:03.042Z</time></trkpt><trkpt lat="43.5066033" lon="12.0833533"><ele>308.0</ele><time>2026-04-23T17:42:05.036Z</time></trkpt><trkpt lat="43.5064833" lon="12.083315"><ele>308.0</ele><time>2026-04-23T17:42:07.032Z</time></trkpt><trkpt lat="43.5063633" lon="12.0832767"><ele>308.0</ele><time>2026-04-23T17:42:09.039Z</time></trkpt><trkpt lat="43.506245" lon="12.083235"><ele>308.5</ele><time>2026-04-23T17:42:11.033Z</time></trkpt><trkpt lat="43.506125" lon="12.0831917"><ele>309.0</ele><time>2026-04-23T17:42:13.035Z</time></trkpt><trkpt lat="43.5060083" lon="12.0831533"><ele>309.5</ele><time>2026-04-23T17:42:15.033Z</time></trkpt><trkpt lat="43.5058917" lon="12.0831067"><ele>310.0</ele><time>2026-04-23T17:42:17.033Z</time></trkpt><trkpt lat="43.5057733" lon="12.08306"><ele>310.0</ele><time>2026-04-23T17:42:19.033Z</time></trkpt><trkpt lat="43.50571" lon="12.0830383"><ele>310.0</ele><time>2026-04-23T17:42:20.076Z</time></trkpt><trkpt lat="43.5056467" lon="12.0830217"><ele>310.0</ele><time>2026-04-23T17:42:21.031Z</time></trkpt><trkpt lat="43.5055833" lon="12.083"><ele>310.0</ele><time>2026-04-23T17:42:22.033Z</time></trkpt><trkpt lat="43.5055167" lon="12.0829733"><ele>310.0</ele><time>2026-04-23T17:42:23.033Z</time></trkpt><trkpt lat="43.5054533" lon="12.0829417"><ele>310.0</ele><time>2026-04-23T17:42:24.033Z</time></trkpt><trkpt lat="43.5053917" lon="12.08291"><ele>310.0</ele><time>2026-04-23T17:42:25.038Z</time></trkpt><trkpt lat="43.505295" lon="12.082865"><ele>310.0</ele><time>2026-04-23T17:42:27.033Z</time></trkpt><trkpt lat="43.505245" lon="12.0828017"><ele>310.0</ele><time>2026-04-23T17:42:30.03Z</time></trkpt><trkpt lat="43.5052067" lon="12.082705"><ele>310.0</ele><time>2026-04-23T17:42:34.02Z</time></trkpt><trkpt lat="43.5051433" lon="12.0826717"><ele>310.0</ele><time>2026-04-23T17:42:36.024Z</time></trkpt><trkpt lat="43.5050783" lon="12.0826467"><ele>310.0</ele><time>2026-04-23T17:42:38.08Z</time></trkpt><trkpt lat="43.5050033" lon="12.08262"><ele>310.0</ele><time>2026-04-23T17:42:41.02Z</time></trkpt><trkpt lat="43.5049483" lon="12.0827267"><ele>310.0</ele><time>2026-04-23T17:42:45.033Z</time></trkpt><trkpt lat="43.504935" lon="12.082825"><ele>310.0</ele><time>2026-04-23T17:42:47.035Z</time></trkpt><trkpt lat="43.5049083" lon="12.082925"><ele>310.0</ele><time>2026-04-23T17:42:49.036Z</time></trkpt><trkpt lat="43.5048717" lon="12.0830267"><ele>310.0</ele><time>2026-04-23T17:42:51.036Z</time></trkpt><trkpt lat="43.504835" lon="12.08313"><ele>310.0</ele><time>2026-04-23T17:42:53.032Z</time></trkpt><trkpt lat="43.504795" lon="12.0832383"><ele>310.0</ele><time>2026-04-23T17:42:55.037Z</time></trkpt><trkpt lat="43.50475" lon="12.0833617"><ele>309.8</ele><time>2026-04-23T17:42:57.034Z</time></trkpt><trkpt lat="43.5047067" lon="12.0834833"><ele>309.6</ele><time>2026-04-23T17:42:59.035Z</time></trkpt><trkpt lat="43.504665" lon="12.0836067"><ele>309.4</ele><time>2026-04-23T17:43:01.038Z</time></trkpt><trkpt lat="43.5046217" lon="12.08373"><ele>309.2</ele><time>2026-04-23T17:43:03.032Z</time></trkpt><trkpt lat="43.5045817" lon="12.0838567"><ele>309.0</ele><time>2026-04-23T17:43:05.037Z</time></trkpt><trkpt lat="43.5045483" lon="12.083985"><ele>309.2</ele><time>2026-04-23T17:43:07.039Z</time></trkpt><trkpt lat="43.5045217" lon="12.084115"><ele>309.4</ele><time>2026-04-23T17:43:09.037Z</time></trkpt><trkpt lat="43.5044967" lon="12.0842517"><ele>309.6</ele><time>2026-04-23T17:43:11.034Z</time></trkpt><trkpt lat="43.5044783" lon="12.0843933"><ele>309.8</ele><time>2026-04-23T17:43:13.033Z</time></trkpt><trkpt lat="43.5044667" lon="12.084535"><ele>310.0</ele><time>2026-04-23T17:43:15.033Z</time></trkpt><trkpt lat="43.5044583" lon="12.0846733"><ele>310.0</ele><time>2026-04-23T17:43:17.012Z</time></trkpt><trkpt lat="43.5044617" lon="12.084815"><ele>310.0</ele><time>2026-04-23T17:43:19.033Z</time></trkpt><trkpt lat="43.5044767" lon="12.0849533"><ele>310.0</ele><time>2026-04-23T17:43:21.033Z</time></trkpt><trkpt lat="43.5044917" lon="12.0850833"><ele>310.0</ele><time>2026-04-23T17:43:23.036Z</time></trkpt><trkpt lat="43.50451" lon="12.085195"><ele>310.0</ele><time>2026-04-23T17:43:25.021Z</time></trkpt><trkpt lat="43.504525" lon="12.0853133"><ele>309.8</ele><time>2026-04-23T17:43:27.034Z</time></trkpt><trkpt lat="43.504535" lon="12.0854283"><ele>309.6</ele><time>2026-04-23T17:43:29.032Z</time></trkpt><trkpt lat="43.5045433" lon="12.0855467"><ele>309.4</ele><time>2026-04-23T17:43:31.023Z</time></trkpt><trkpt lat="43.504545" lon="12.0856733"><ele>309.2</ele><time>2026-04-23T17:43:33.022Z</time></trkpt><trkpt lat="43.5045467" lon="12.085805"><ele>309.0</ele><time>2026-04-23T17:43:35.037Z</time></trkpt><trkpt lat="43.5045433" lon="12.0859367"><ele>308.8</ele><time>2026-04-23T17:43:37.034Z</time></trkpt><trkpt lat="43.5045367" lon="12.0860717"><ele>308.59999999999997</ele><time>2026-04-23T17:43:39.031Z</time></trkpt><trkpt lat="43.5045167" lon="12.086205"><ele>308.4</ele><time>2026-04-23T17:43:41.035Z</time></trkpt><trkpt lat="43.5044767" lon="12.0863317"><ele>308.2</ele><time>2026-04-23T17:43:43.037Z</time></trkpt><trkpt lat="43.5044183" lon="12.08644"><ele>308.0</ele><time>2026-04-23T17:43:45.033Z</time></trkpt><trkpt lat="43.5043517" lon="12.0865433"><ele>308.0</ele><time>2026-04-23T17:43:47.034Z</time></trkpt><trkpt lat="43.504285" lon="12.0866367"><ele>308.0</ele><time>2026-04-23T17:43:49.034Z</time></trkpt><trkpt lat="43.5042167" lon="12.086725"><ele>308.0</ele><time>2026-04-23T17:43:51.038Z</time></trkpt><trkpt lat="43.5041483" lon="12.086815"><ele>308.0</ele><time>2026-04-23T17:43:53.028Z</time></trkpt><trkpt lat="43.5040817" lon="12.0869117"><ele>308.0</ele><time>2026-04-23T17:43:55.036Z</time></trkpt><trkpt lat="43.5040167" lon="12.0870167"><ele>308.0</ele><time>2026-04-23T17:43:57.036Z</time></trkpt><trkpt lat="43.5039567" lon="12.0871217"><ele>308.0</ele><time>2026-04-23T17:43:59.033Z</time></trkpt><trkpt lat="43.503905" lon="12.08723"><ele>308.0</ele><time>2026-04-23T17:44:01.036Z</time></trkpt><trkpt lat="43.5038567" lon="12.08734"><ele>308.0</ele><time>2026-04-23T17:44:03.034Z</time></trkpt><trkpt lat="43.5038" lon="12.0874567"><ele>308.0</ele><time>2026-04-23T17:44:05.038Z</time></trkpt><trkpt lat="43.5037417" lon="12.0875633"><ele>308.0</ele><time>2026-04-23T17:44:07.037Z</time></trkpt><trkpt lat="43.5036767" lon="12.08766"><ele>308.0</ele><time>2026-04-23T17:44:09.031Z</time></trkpt><trkpt lat="43.5036033" lon="12.0877417"><ele>308.0</ele><time>2026-04-23T17:44:11.032Z</time></trkpt><trkpt lat="43.50354" lon="12.08783"><ele>308.0</ele><time>2026-04-23T17:44:13.036Z</time></trkpt><trkpt lat="43.5035" lon="12.0879217"><ele>308.0</ele><time>2026-04-23T17:44:16.037Z</time></trkpt><trkpt lat="43.5034717" lon="12.0880167"><ele>308.0</ele><time>2026-04-23T17:44:22.018Z</time></trkpt><trkpt lat="43.5034433" lon="12.0881017"><ele>308.0</ele><time>2026-04-23T17:44:27.02Z</time></trkpt><trkpt lat="43.5033917" lon="12.0881767"><ele>308.0</ele><time>2026-04-23T17:44:32.095Z</time></trkpt><trkpt lat="43.5033383" lon="12.088265"><ele>308.0</ele><time>2026-04-23T17:44:36.022Z</time></trkpt><trkpt lat="43.50329" lon="12.08835"><ele>308.0</ele><time>2026-04-23T17:44:39.018Z</time></trkpt><trkpt lat="43.50324" lon="12.08843"><ele>308.0</ele><time>2026-04-23T17:44:44.075Z</time></trkpt><trkpt lat="43.5031817" lon="12.088495"><ele>308.0</ele><time>2026-04-23T17:44:48.025Z</time></trkpt><trkpt lat="43.50313" lon="12.0885667"><ele>308.0</ele><time>2026-04-23T17:44:52.021Z</time></trkpt><trkpt lat="43.5030867" lon="12.0886333"><ele>308.0</ele><time>2026-04-23T17:44:55.031Z</time></trkpt><trkpt lat="43.5030383" lon="12.0886967"><ele>308.0</ele><time>2026-04-23T17:44:59.029Z</time></trkpt><trkpt lat="43.5029833" lon="12.08874"><ele>308.0</ele><time>2026-04-23T17:45:03.018Z</time></trkpt><trkpt lat="43.502945" lon="12.0888167"><ele>308.0</ele><time>2026-04-23T17:45:06.032Z</time></trkpt><trkpt lat="43.5029083" lon="12.0889017"><ele>308.0</ele><time>2026-04-23T17:45:09.03Z</time></trkpt><trkpt lat="43.5028733" lon="12.0890017"><ele>308.0</ele><time>2026-04-23T17:45:13.034Z</time></trkpt><trkpt lat="43.5028367" lon="12.0890917"><ele>308.42857142857144</ele><time>2026-04-23T17:45:17.023Z</time></trkpt><trkpt lat="43.502795" lon="12.0891783"><ele>308.8571428571429</ele><time>2026-04-23T17:45:22.018Z</time></trkpt><trkpt lat="43.502765" lon="12.0892633"><ele>309.2857142857143</ele><time>2026-04-23T17:45:26.031Z</time></trkpt><trkpt lat="43.502735" lon="12.089355"><ele>309.7142857142857</ele><time>2026-04-23T17:45:30.029Z</time></trkpt><trkpt lat="43.5027" lon="12.0894467"><ele>310.14285714285717</ele><time>2026-04-23T17:45:34.025Z</time></trkpt><trkpt lat="43.50268" lon="12.0895383"><ele>310.57142857142856</ele><time>2026-04-23T17:45:38.07Z</time></trkpt><trkpt lat="43.5026417" lon="12.0896417"><ele>311.0</ele><time>2026-04-23T17:45:42.03Z</time></trkpt><trkpt lat="43.5025817" lon="12.0896867"><ele>311.0</ele><time>2026-04-23T17:45:47.015Z</time></trkpt><trkpt lat="43.502495" lon="12.0896767"><ele>311.0</ele><time>2026-04-23T17:46:10.033Z</time></trkpt><trkpt lat="43.5024233" lon="12.089675"><ele>311.0</ele><time>2026-04-23T17:46:14.076Z</time></trkpt><trkpt lat="43.5023533" lon="12.0896683"><ele>311.0</ele><time>2026-04-23T17:46:17.016Z</time></trkpt><trkpt lat="43.5022717" lon="12.08966"><ele>311.0</ele><time>2026-04-23T17:46:20.075Z</time></trkpt><trkpt lat="43.502205" lon="12.0896483"><ele>311.0</ele><time>2026-04-23T17:46:23.03Z</time></trkpt><trkpt lat="43.5021483" lon="12.08959"><ele>311.0</ele><time>2026-04-23T17:46:27.019Z</time></trkpt><trkpt lat="43.5020833" lon="12.08941"><ele>315.6666666666667</ele><time>2026-04-23T17:46:39.03Z</time></trkpt><trkpt lat="43.5020533" lon="12.089275"><ele>320.33333333333337</ele><time>2026-04-23T17:46:47.019Z</time></trkpt><trkpt lat="43.5020367" lon="12.0891633"><ele>325.0</ele><time>2026-04-23T17:46:53.03Z</time></trkpt><trkpt lat="43.5020183" lon="12.089075"><ele>329.6666666666667</ele><time>2026-04-23T17:46:58.016Z</time></trkpt><trkpt lat="43.5019967" lon="12.08897"><ele>334.3333333333333</ele><time>2026-04-23T17:47:03.015Z</time></trkpt><trkpt lat="43.5019833" lon="12.0888717"><ele>339.0</ele><time>2026-04-23T17:47:07.03Z</time></trkpt><trkpt lat="43.5019567" lon="12.088775"><ele>339.0</ele><time>2026-04-23T17:47:12.033Z</time></trkpt><trkpt lat="43.501935" lon="12.0886917"><ele>339.0</ele><time>2026-04-23T17:47:16.029Z</time></trkpt><trkpt lat="43.50191" lon="12.0886033"><ele>339.0</ele><time>2026-04-23T17:47:20.07Z</time></trkpt><trkpt lat="43.5018833" lon="12.0885083"><ele>339.0</ele><time>2026-04-23T17:47:24.018Z</time></trkpt><trkpt lat="43.5018567" lon="12.0884083"><ele>339.0</ele><time>2026-04-23T17:47:28.028Z</time></trkpt><trkpt lat="43.5018283" lon="12.0883233"><ele>339.0</ele><time>2026-04-23T17:47:32.031Z</time></trkpt><trkpt lat="43.5017983" lon="12.0882367"><ele>339.0</ele><time>2026-04-23T17:47:36.035Z</time></trkpt><trkpt lat="43.501745" lon="12.0881633"><ele>336.2857142857143</ele><time>2026-04-23T17:47:41.031Z</time></trkpt><trkpt lat="43.5016967" lon="12.0880933"><ele>333.5714285714286</ele><time>2026-04-23T17:47:45.017Z</time></trkpt><trkpt lat="43.5016383" lon="12.0880433"><ele>330.8571428571429</ele><time>2026-04-23T17:47:49.032Z</time></trkpt><trkpt lat="43.5015767" lon="12.0879967"><ele>328.1428571428571</ele><time>2026-04-23T17:47:53.018Z</time></trkpt><trkpt lat="43.5015083" lon="12.0879683"><ele>325.42857142857144</ele><time>2026-04-23T17:47:57.03Z</time></trkpt><trkpt lat="43.5014417" lon="12.08794"><ele>322.7142857142857</ele><time>2026-04-23T17:48:01.03Z</time></trkpt><trkpt lat="43.50138" lon="12.0879183"><ele>320.0</ele><time>2026-04-23T17:48:05.003Z</time></trkpt><trkpt lat="43.5013083" lon="12.0879517"><ele>320.0</ele><time>2026-04-23T17:48:10.011Z</time></trkpt><trkpt lat="43.5012683" lon="12.088055"><ele>320.0</ele><time>2026-04-23T17:48:13.021Z</time></trkpt><trkpt lat="43.5012167" lon="12.0879967"><ele>320.0</ele><time>2026-04-23T17:48:15.998Z</time></trkpt><trkpt lat="43.5011433" lon="12.0879533"><ele>320.0</ele><time>2026-04-23T17:48:20.073Z</time></trkpt><trkpt lat="43.50107" lon="12.087945"><ele>320.0</ele><time>2026-04-23T17:48:23.018Z</time></trkpt><trkpt lat="43.5009933" lon="12.0879533"><ele>320.0</ele><time>2026-04-23T17:48:27.025Z</time></trkpt><trkpt lat="43.500925" lon="12.0879767"><ele>321.42857142857144</ele><time>2026-04-23T17:48:31.028Z</time></trkpt><trkpt lat="43.5008617" lon="12.0880067"><ele>322.8571428571429</ele><time>2026-04-23T17:48:35.032Z</time></trkpt><trkpt lat="43.50078" lon="12.0879983"><ele>324.28571428571433</ele><time>2026-04-23T17:48:39.031Z</time></trkpt><trkpt lat="43.50071" lon="12.08801"><ele>325.7142857142857</ele><time>2026-04-23T17:48:42.032Z</time></trkpt><trkpt lat="43.500645" lon="12.088035"><ele>327.14285714285717</ele><time>2026-04-23T17:48:45.028Z</time></trkpt><trkpt lat="43.5005733" lon="12.0880617"><ele>328.5714285714286</ele><time>2026-04-23T17:48:49.013Z</time></trkpt><trkpt lat="43.500505" lon="12.0880717"><ele>330.0</ele><time>2026-04-23T17:48:52.032Z</time></trkpt><trkpt lat="43.5004383" lon="12.0880833"><ele>330.7142857142857</ele><time>2026-04-23T17:48:55.024Z</time></trkpt><trkpt lat="43.500375" lon="12.0881133"><ele>331.42857142857144</ele><time>2026-04-23T17:48:58.028Z</time></trkpt><trkpt lat="43.5002983" lon="12.08812"><ele>332.1428571428571</ele><time>2026-04-23T17:49:02.077Z</time></trkpt><trkpt lat="43.5002117" lon="12.08813"><ele>332.8571428571429</ele><time>2026-04-23T17:49:06.031Z</time></trkpt><trkpt lat="43.5001383" lon="12.0881617"><ele>333.57142857142856</ele><time>2026-04-23T17:49:10.032Z</time></trkpt><trkpt lat="43.5000783" lon="12.0882"><ele>334.2857142857143</ele><time>2026-04-23T17:49:13.031Z</time></trkpt><trkpt lat="43.5000183" lon="12.0882283"><ele>335.0</ele><time>2026-04-23T17:49:16.029Z</time></trkpt><trkpt lat="43.4999383" lon="12.088195"><ele>335.0</ele><time>2026-04-23T17:49:21.016Z</time></trkpt><trkpt lat="43.4999033" lon="12.0881167"><ele>335.0</ele><time>2026-04-23T17:49:23.028Z</time></trkpt><trkpt lat="43.49986" lon="12.0880117"><ele>335.0</ele><time>2026-04-23T17:49:25.031Z</time></trkpt><trkpt lat="43.4997983" lon="12.0878883"><ele>335.0</ele><time>2026-04-23T17:49:27.025Z</time></trkpt><trkpt lat="43.499735" lon="12.08777"><ele>335.0</ele><time>2026-04-23T17:49:29.034Z</time></trkpt><trkpt lat="43.49967" lon="12.0876783"><ele>335.0</ele><time>2026-04-23T17:49:31.032Z</time></trkpt><trkpt lat="43.4995883" lon="12.087645"><ele>335.0</ele><time>2026-04-23T17:49:33.012Z</time></trkpt><trkpt lat="43.4995067" lon="12.08765"><ele>335.0</ele><time>2026-04-23T17:49:35.028Z</time></trkpt><trkpt lat="43.4994133" lon="12.0876667"><ele>335.0</ele><time>2026-04-23T17:49:38.073Z</time></trkpt><trkpt lat="43.4993367" lon="12.0876733"><ele>335.0</ele><time>2026-04-23T17:49:40.031Z</time></trkpt><trkpt lat="43.4992367" lon="12.0876767"><ele>335.0</ele><time>2026-04-23T17:49:42.033Z</time></trkpt><trkpt lat="43.49912" lon="12.0876983"><ele>335.1666666666667</ele><time>2026-04-23T17:49:44.073Z</time></trkpt><trkpt lat="43.499055" lon="12.0877167"><ele>335.33333333333337</ele><time>2026-04-23T17:49:45.035Z</time></trkpt><trkpt lat="43.4989867" lon="12.0877483"><ele>335.5</ele><time>2026-04-23T17:49:46.03Z</time></trkpt><trkpt lat="43.4989167" lon="12.0877917"><ele>335.6666666666667</ele><time>2026-04-23T17:49:47.035Z</time></trkpt><trkpt lat="43.498845" lon="12.0878467"><ele>335.8333333333333</ele><time>2026-04-23T17:49:48.032Z</time></trkpt><trkpt lat="43.4987733" lon="12.0879133"><ele>336.0</ele><time>2026-04-23T17:49:49.035Z</time></trkpt><trkpt lat="43.4987067" lon="12.0879833"><ele>335.0</ele><time>2026-04-23T17:49:50.072Z</time></trkpt><trkpt lat="43.4986383" lon="12.08805"><ele>334.0</ele><time>2026-04-23T17:49:51.032Z</time></trkpt><trkpt lat="43.4985667" lon="12.0881167"><ele>333.0</ele><time>2026-04-23T17:49:52.032Z</time></trkpt><trkpt lat="43.4984883" lon="12.0881783"><ele>332.0</ele><time>2026-04-23T17:49:53.028Z</time></trkpt><trkpt lat="43.498405" lon="12.088235"><ele>331.0</ele><time>2026-04-23T17:49:54.033Z</time></trkpt><trkpt lat="43.4983183" lon="12.088285"><ele>330.0</ele><time>2026-04-23T17:49:55.032Z</time></trkpt><trkpt lat="43.498225" lon="12.0883267"><ele>330.0</ele><time>2026-04-23T17:49:56.082Z</time></trkpt><trkpt lat="43.4981283" lon="12.0883517"><ele>330.0</ele><time>2026-04-23T17:49:57.017Z</time></trkpt><trkpt lat="43.4980267" lon="12.0883617"><ele>330.0</ele><time>2026-04-23T17:49:58.034Z</time></trkpt><trkpt lat="43.4979217" lon="12.08835"><ele>330.0</ele><time>2026-04-23T17:49:59.032Z</time></trkpt><trkpt lat="43.4978233" lon="12.0883183"><ele>330.0</ele><time>2026-04-23T17:50:00.032Z</time></trkpt><trkpt lat="43.49773" lon="12.0882867"><ele>328.5</ele><time>2026-04-23T17:50:01.037Z</time></trkpt><trkpt lat="43.4976367" lon="12.0882583"><ele>327.0</ele><time>2026-04-23T17:50:02.083Z</time></trkpt><trkpt lat="43.4975467" lon="12.08823"><ele>325.5</ele><time>2026-04-23T17:50:03.03Z</time></trkpt><trkpt lat="43.4974533" lon="12.0882033"><ele>324.0</ele><time>2026-04-23T17:50:04.034Z</time></trkpt><trkpt lat="43.4973667" lon="12.08818"><ele>322.5</ele><time>2026-04-23T17:50:05.036Z</time></trkpt><trkpt lat="43.497295" lon="12.0881633"><ele>321.0</ele><time>2026-04-23T17:50:06.029Z</time></trkpt><trkpt lat="43.497185" lon="12.0881467"><ele>319.8</ele><time>2026-04-23T17:50:08.075Z</time></trkpt><trkpt lat="43.497075" lon="12.0881333"><ele>318.6</ele><time>2026-04-23T17:50:10.041Z</time></trkpt><trkpt lat="43.4969667" lon="12.08805"><ele>317.4</ele><time>2026-04-23T17:50:12.035Z</time></trkpt><trkpt lat="43.4969333" lon="12.0879683"><ele>316.2</ele><time>2026-04-23T17:50:13.029Z</time></trkpt><trkpt lat="43.4969033" lon="12.0878767"><ele>315.0</ele><time>2026-04-23T17:50:14.066Z</time></trkpt><trkpt lat="43.4968733" lon="12.0877817"><ele>315.0</ele><time>2026-04-23T17:50:15.018Z</time></trkpt><trkpt lat="43.49684" lon="12.087685"><ele>315.0</ele><time>2026-04-23T17:50:16.03Z</time></trkpt><trkpt lat="43.49681" lon="12.0875867"><ele>315.0</ele><time>2026-04-23T17:50:17.024Z</time></trkpt><trkpt lat="43.49678" lon="12.0874883"><ele>315.0</ele><time>2026-04-23T17:50:18.029Z</time></trkpt><trkpt lat="43.4967467" lon="12.08739"><ele>315.0</ele><time>2026-04-23T17:50:19.03Z</time></trkpt><trkpt lat="43.4967167" lon="12.087295"><ele>315.0</ele><time>2026-04-23T17:50:20.075Z</time></trkpt><trkpt lat="43.4966867" lon="12.0872067"><ele>315.6666666666667</ele><time>2026-04-23T17:50:21.025Z</time></trkpt><trkpt lat="43.4966533" lon="12.08712"><ele>316.3333333333333</ele><time>2026-04-23T17:50:22.028Z</time></trkpt><trkpt lat="43.49662" lon="12.087035"><ele>317.0</ele><time>2026-04-23T17:50:23.022Z</time></trkpt><trkpt lat="43.496585" lon="12.0869517"><ele>317.66666666666663</ele><time>2026-04-23T17:50:24.032Z</time></trkpt><trkpt lat="43.496535" lon="12.0868183"><ele>318.3333333333333</ele><time>2026-04-23T17:50:26.094Z</time></trkpt><trkpt lat="43.4965017" lon="12.0867217"><ele>319.0</ele><time>2026-04-23T17:50:28.037Z</time></trkpt><trkpt lat="43.496475" lon="12.08663"><ele>318.66666666666663</ele><time>2026-04-23T17:50:30.033Z</time></trkpt><trkpt lat="43.4964433" lon="12.086535"><ele>318.3333333333333</ele><time>2026-04-23T17:50:32.079Z</time></trkpt><trkpt lat="43.4964067" lon="12.0864317"><ele>318.0</ele><time>2026-04-23T17:50:34.033Z</time></trkpt><trkpt lat="43.496375" lon="12.08633"><ele>317.6666666666667</ele><time>2026-04-23T17:50:36.022Z</time></trkpt><trkpt lat="43.4963333" lon="12.086245"><ele>317.33333333333337</ele><time>2026-04-23T17:50:38.074Z</time></trkpt><trkpt lat="43.49627" lon="12.0861683"><ele>317.0</ele><time>2026-04-23T17:50:40.032Z</time></trkpt><trkpt lat="43.4961733" lon="12.0861233"><ele>317.0</ele><time>2026-04-23T17:50:42.035Z</time></trkpt><trkpt lat="43.496065" lon="12.08614"><ele>317.0</ele><time>2026-04-23T17:50:44.067Z</time></trkpt><trkpt lat="43.4959433" lon="12.08618"><ele>317.0</ele><time>2026-04-23T17:50:46.031Z</time></trkpt><trkpt lat="43.495875" lon="12.0862017"><ele>317.0</ele><time>2026-04-23T17:50:47.037Z</time></trkpt><trkpt lat="43.4958033" lon="12.0862267"><ele>317.0</ele><time>2026-04-23T17:50:48.031Z</time></trkpt><trkpt lat="43.4957283" lon="12.0862517"><ele>317.0</ele><time>2026-04-23T17:50:49.031Z</time></trkpt><trkpt lat="43.49565" lon="12.086275"><ele>317.0</ele><time>2026-04-23T17:50:50.079Z</time></trkpt><trkpt lat="43.49557" lon="12.0862983"><ele>317.0</ele><time>2026-04-23T17:50:51.034Z</time></trkpt><trkpt lat="43.49549" lon="12.0863217"><ele>317.0</ele><time>2026-04-23T17:50:52.033Z</time></trkpt><trkpt lat="43.49541" lon="12.086345"><ele>317.0</ele><time>2026-04-23T17:50:53.024Z</time></trkpt><trkpt lat="43.4953267" lon="12.0863683"><ele>317.0</ele><time>2026-04-23T17:50:54.033Z</time></trkpt><trkpt lat="43.4952417" lon="12.086395"><ele>316.33333333333337</ele><time>2026-04-23T17:50:55.032Z</time></trkpt><trkpt lat="43.4951617" lon="12.0864183"><ele>315.6666666666667</ele><time>2026-04-23T17:50:56.04Z</time></trkpt><trkpt lat="43.495085" lon="12.0864417"><ele>315.0</ele><time>2026-04-23T17:50:57.031Z</time></trkpt><trkpt lat="43.4950083" lon="12.08646"><ele>314.3333333333333</ele><time>2026-04-23T17:50:58.038Z</time></trkpt><trkpt lat="43.494935" lon="12.0864833"><ele>313.66666666666663</ele><time>2026-04-23T17:50:59.034Z</time></trkpt><trkpt lat="43.4948633" lon="12.086505"><ele>313.0</ele><time>2026-04-23T17:51:00.029Z</time></trkpt><trkpt lat="43.4947917" lon="12.086525"><ele>313.0</ele><time>2026-04-23T17:51:01.032Z</time></trkpt><trkpt lat="43.4947167" lon="12.0865433"><ele>313.0</ele><time>2026-04-23T17:51:02.083Z</time></trkpt><trkpt lat="43.494645" lon="12.086565"><ele>313.0</ele><time>2026-04-23T17:51:03.039Z</time></trkpt><trkpt lat="43.4945733" lon="12.0865867"><ele>313.0</ele><time>2026-04-23T17:51:04.031Z</time></trkpt><trkpt lat="43.4945017" lon="12.0866067"><ele>313.0</ele><time>2026-04-23T17:51:05.032Z</time></trkpt><trkpt lat="43.49443" lon="12.0866267"><ele>313.0</ele><time>2026-04-23T17:51:06.03Z</time></trkpt><trkpt lat="43.49436" lon="12.0866467"><ele>313.0</ele><time>2026-04-23T17:51:07.033Z</time></trkpt><trkpt lat="43.4942917" lon="12.086665"><ele>313.2</ele><time>2026-04-23T17:51:08.075Z</time></trkpt><trkpt lat="43.494225" lon="12.0866817"><ele>313.4</ele><time>2026-04-23T17:51:09.032Z</time></trkpt><trkpt lat="43.4941617" lon="12.0866983"><ele>313.59999999999997</ele><time>2026-04-23T17:51:10.039Z</time></trkpt><trkpt lat="43.4940417" lon="12.0867283"><ele>313.8</ele><time>2026-04-23T17:51:12.032Z</time></trkpt><trkpt lat="43.4939333" lon="12.0867283"><ele>314.0</ele><time>2026-04-23T17:51:14.073Z</time></trkpt><trkpt lat="43.4938633" lon="12.08664"><ele>314.2</ele><time>2026-04-23T17:51:16.024Z</time></trkpt><trkpt lat="43.4938" lon="12.0865433"><ele>314.4</ele><time>2026-04-23T17:51:18.027Z</time></trkpt><trkpt lat="43.493735" lon="12.08644"><ele>314.6</ele><time>2026-04-23T17:51:20.076Z</time></trkpt><trkpt lat="43.49367" lon="12.0863283"><ele>314.8</ele><time>2026-04-23T17:51:22.038Z</time></trkpt><trkpt lat="43.4936067" lon="12.0862267"><ele>315.0</ele><time>2026-04-23T17:51:24.027Z</time></trkpt><trkpt lat="43.4935233" lon="12.08617"><ele>315.3333333333333</ele><time>2026-04-23T17:51:26.093Z</time></trkpt><trkpt lat="43.4934333" lon="12.0861417"><ele>315.6666666666667</ele><time>2026-04-23T17:51:28.036Z</time></trkpt><trkpt lat="43.4933533" lon="12.0861267"><ele>316.0</ele><time>2026-04-23T17:51:30.031Z</time></trkpt><trkpt lat="43.4932767" lon="12.086105"><ele>316.33333333333337</ele><time>2026-04-23T17:51:32.08Z</time></trkpt><trkpt lat="43.4932067" lon="12.0860817"><ele>316.6666666666667</ele><time>2026-04-23T17:51:34.032Z</time></trkpt><trkpt lat="43.4931433" lon="12.0860617"><ele>317.0</ele><time>2026-04-23T17:51:36.017Z</time></trkpt><trkpt lat="43.4930567" lon="12.0860017"><ele>317.0</ele><time>2026-04-23T17:51:39.034Z</time></trkpt><trkpt lat="43.493005" lon="12.08593"><ele>317.0</ele><time>2026-04-23T17:51:41.033Z</time></trkpt><trkpt lat="43.4929567" lon="12.0858483"><ele>317.0</ele><time>2026-04-23T17:51:43.031Z</time></trkpt><trkpt lat="43.4929267" lon="12.0857567"><ele>317.0</ele><time>2026-04-23T17:51:45.03Z</time></trkpt><trkpt lat="43.492885" lon="12.0856767"><ele>317.0</ele><time>2026-04-23T17:51:47.017Z</time></trkpt><trkpt lat="43.4928467" lon="12.0855867"><ele>317.0</ele><time>2026-04-23T17:51:49.019Z</time></trkpt><trkpt lat="43.4928033" lon="12.0855"><ele>317.0</ele><time>2026-04-23T17:51:51.03Z</time></trkpt><trkpt lat="43.4927633" lon="12.0854183"><ele>317.83333333333337</ele><time>2026-04-23T17:51:53.026Z</time></trkpt><trkpt lat="43.4927233" lon="12.0853383"><ele>318.6666666666667</ele><time>2026-04-23T17:51:55.029Z</time></trkpt><trkpt lat="43.49268" lon="12.0852517"><ele>319.5</ele><time>2026-04-23T17:51:57.029Z</time></trkpt><trkpt lat="43.4926383" lon="12.0851683"><ele>320.3333333333333</ele><time>2026-04-23T17:51:59.018Z</time></trkpt><trkpt lat="43.4925933" lon="12.0851"><ele>321.16666666666663</ele><time>2026-04-23T17:52:01.021Z</time></trkpt><trkpt lat="43.4925167" lon="12.0850383"><ele>322.0</ele><time>2026-04-23T17:52:04.029Z</time></trkpt><trkpt lat="43.492435" lon="12.0850417"><ele>322.0</ele><time>2026-04-23T17:52:07.027Z</time></trkpt><trkpt lat="43.49237" lon="12.0850667"><ele>322.0</ele><time>2026-04-23T17:52:10.03Z</time></trkpt><trkpt lat="43.4923017" lon="12.0851017"><ele>322.0</ele><time>2026-04-23T17:52:13.017Z</time></trkpt><trkpt lat="43.4922417" lon="12.0851667"><ele>322.0</ele><time>2026-04-23T17:52:17.029Z</time></trkpt><trkpt lat="43.49222" lon="12.085275"><ele>322.0</ele><time>2026-04-23T17:52:21.021Z</time></trkpt><trkpt lat="43.4922217" lon="12.0853667"><ele>322.0</ele><time>2026-04-23T17:52:24.033Z</time></trkpt><trkpt lat="43.4922517" lon="12.08545"><ele>322.0</ele><time>2026-04-23T17:52:27.03Z</time></trkpt><trkpt lat="43.4922917" lon="12.08555"><ele>322.0</ele><time>2026-04-23T17:52:31.031Z</time></trkpt><trkpt lat="43.49232" lon="12.0856517"><ele>322.0</ele><time>2026-04-23T17:52:35.03Z</time></trkpt><trkpt lat="43.4922783" lon="12.0857317"><ele>322.0</ele><time>2026-04-23T17:52:41.031Z</time></trkpt><trkpt lat="43.492215" lon="12.08576"><ele>322.0</ele><time>2026-04-23T17:52:45.034Z</time></trkpt><trkpt lat="43.492145" lon="12.0858067"><ele>322.0</ele><time>2026-04-23T17:52:49.031Z</time></trkpt><trkpt lat="43.4920867" lon="12.085865"><ele>322.0</ele><time>2026-04-23T17:52:53.033Z</time></trkpt><trkpt lat="43.4920267" lon="12.08591"><ele>322.0</ele><time>2026-04-23T17:52:59.035Z</time></trkpt><trkpt lat="43.49196" lon="12.085945"><ele>327.0</ele><time>2026-04-23T17:53:03.032Z</time></trkpt><trkpt lat="43.4918967" lon="12.085965"><ele>332.0</ele><time>2026-04-23T17:53:07.032Z</time></trkpt><trkpt lat="43.491735" lon="12.0860467"><ele>337.0</ele><time>2026-04-23T17:53:42.031Z</time></trkpt><trkpt lat="43.4916283" lon="12.0860833"><ele>342.0</ele><time>2026-04-23T17:54:01.032Z</time></trkpt><trkpt lat="43.4915567" lon="12.0860883"><ele>347.0</ele><time>2026-04-23T17:54:05.01Z</time></trkpt><trkpt lat="43.4914767" lon="12.086075"><ele>347.0</ele><time>2026-04-23T17:54:09.029Z</time></trkpt><trkpt lat="43.491405" lon="12.08603"><ele>347.0</ele><time>2026-04-23T17:54:13.031Z</time></trkpt><trkpt lat="43.4913233" lon="12.0859967"><ele>347.0</ele><time>2026-04-23T17:54:17.027Z</time></trkpt><trkpt lat="43.4912617" lon="12.0859783"><ele>347.0</ele><time>2026-04-23T17:54:20.057Z</time></trkpt><trkpt lat="43.4911967" lon="12.0859583"><ele>347.0</ele><time>2026-04-23T17:54:23.031Z</time></trkpt><trkpt lat="43.49112" lon="12.0859633"><ele>347.0</ele><time>2026-04-23T17:54:26.99Z</time></trkpt><trkpt lat="43.49102" lon="12.0859583"><ele>348.5714285714286</ele><time>2026-04-23T17:54:33.008Z</time></trkpt><trkpt lat="43.4909533" lon="12.085945"><ele>350.1428571428571</ele><time>2026-04-23T17:54:38.061Z</time></trkpt><trkpt lat="43.49089" lon="12.085935"><ele>351.7142857142857</ele><time>2026-04-23T17:54:41.031Z</time></trkpt><trkpt lat="43.490815" lon="12.0859367"><ele>353.28571428571433</ele><time>2026-04-23T17:54:45.015Z</time></trkpt><trkpt lat="43.4907383" lon="12.0859267"><ele>354.8571428571429</ele><time>2026-04-23T17:54:48.025Z</time></trkpt><trkpt lat="43.4906617" lon="12.0859567"><ele>356.42857142857144</ele><time>2026-04-23T17:54:51.03Z</time></trkpt><trkpt lat="43.4905883" lon="12.0860117"><ele>358.0</ele><time>2026-04-23T17:54:54.03Z</time></trkpt><trkpt lat="43.4905117" lon="12.086085"><ele>358.0</ele><time>2026-04-23T17:54:57.02Z</time></trkpt><trkpt lat="43.4904567" lon="12.086145"><ele>358.0</ele><time>2026-04-23T17:54:59.028Z</time></trkpt><trkpt lat="43.490405" lon="12.0862117"><ele>358.0</ele><time>2026-04-23T17:55:01.034Z</time></trkpt><trkpt lat="43.4903517" lon="12.0862767"><ele>358.0</ele><time>2026-04-23T17:55:03.037Z</time></trkpt><trkpt lat="43.4903067" lon="12.0863433"><ele>358.0</ele><time>2026-04-23T17:55:05.017Z</time></trkpt><trkpt lat="43.4902417" lon="12.08643"><ele>358.0</ele><time>2026-04-23T17:55:07.034Z</time></trkpt><trkpt lat="43.490175" lon="12.0865067"><ele>354.79999999999995</ele><time>2026-04-23T17:55:09.03Z</time></trkpt><trkpt lat="43.4901017" lon="12.0865683"><ele>351.6</ele><time>2026-04-23T17:55:11.019Z</time></trkpt><trkpt lat="43.49001" lon="12.086645"><ele>348.4</ele><time>2026-04-23T17:55:13.033Z</time></trkpt><trkpt lat="43.48991" lon="12.0867267"><ele>345.20000000000005</ele><time>2026-04-23T17:55:15.03Z</time></trkpt><trkpt lat="43.4898317" lon="12.08679"><ele>342.0</ele><time>2026-04-23T17:55:17.032Z</time></trkpt><trkpt lat="43.4897833" lon="12.0868617"><ele>342.0</ele><time>2026-04-23T17:55:19.022Z</time></trkpt><trkpt lat="43.4897467" lon="12.0869833"><ele>342.0</ele><time>2026-04-23T17:55:21.035Z</time></trkpt><trkpt lat="43.489715" lon="12.087115"><ele>342.0</ele><time>2026-04-23T17:55:23.032Z</time></trkpt><trkpt lat="43.4896683" lon="12.0872067"><ele>342.0</ele><time>2026-04-23T17:55:25.018Z</time></trkpt><trkpt lat="43.4896217" lon="12.0872867"><ele>342.0</ele><time>2026-04-23T17:55:27.018Z</time></trkpt><trkpt lat="43.489575" lon="12.0873867"><ele>342.0</ele><time>2026-04-23T17:55:29.032Z</time></trkpt><trkpt lat="43.4895367" lon="12.0875033"><ele>342.6666666666667</ele><time>2026-04-23T17:55:31.033Z</time></trkpt><trkpt lat="43.4895317" lon="12.087645"><ele>343.3333333333333</ele><time>2026-04-23T17:55:33.033Z</time></trkpt><trkpt lat="43.48955" lon="12.0877817"><ele>344.0</ele><time>2026-04-23T17:55:35.033Z</time></trkpt><trkpt lat="43.4895733" lon="12.0879"><ele>344.66666666666663</ele><time>2026-04-23T17:55:37.036Z</time></trkpt><trkpt lat="43.4896" lon="12.0879917"><ele>345.3333333333333</ele><time>2026-04-23T17:55:39.018Z</time></trkpt><trkpt lat="43.4896167" lon="12.0880867"><ele>346.0</ele><time>2026-04-23T17:55:41.031Z</time></trkpt><trkpt lat="43.4896217" lon="12.088175"><ele>345.4</ele><time>2026-04-23T17:55:43.033Z</time></trkpt><trkpt lat="43.4896333" lon="12.0882733"><ele>344.8</ele><time>2026-04-23T17:55:46.034Z</time></trkpt><trkpt lat="43.4896567" lon="12.0884017"><ele>344.2</ele><time>2026-04-23T17:55:49.016Z</time></trkpt><trkpt lat="43.4896617" lon="12.0885317"><ele>343.59999999999997</ele><time>2026-04-23T17:55:51.033Z</time></trkpt><trkpt lat="43.48965" lon="12.08869"><ele>343.0</ele><time>2026-04-23T17:55:53.037Z</time></trkpt><trkpt lat="43.48963" lon="12.0888483"><ele>343.0</ele><time>2026-04-23T17:55:55.032Z</time></trkpt><trkpt lat="43.4896117" lon="12.0889333"><ele>343.0</ele><time>2026-04-23T17:55:56.094Z</time></trkpt><trkpt lat="43.4895617" lon="12.089085"><ele>343.0</ele><time>2026-04-23T17:55:58.041Z</time></trkpt><trkpt lat="43.4895183" lon="12.0891517"><ele>343.0</ele><time>2026-04-23T17:55:59.038Z</time></trkpt><trkpt lat="43.4894667" lon="12.0892117"><ele>343.0</ele><time>2026-04-23T17:56:00.038Z</time></trkpt><trkpt lat="43.4894133" lon="12.0892683"><ele>343.0</ele><time>2026-04-23T17:56:01.034Z</time></trkpt><trkpt lat="43.4893567" lon="12.089325"><ele>340.14285714285717</ele><time>2026-04-23T17:56:02.077Z</time></trkpt><trkpt lat="43.4893" lon="12.08939"><ele>337.2857142857143</ele><time>2026-04-23T17:56:03.029Z</time></trkpt><trkpt lat="43.4892433" lon="12.0894567"><ele>334.42857142857144</ele><time>2026-04-23T17:56:04.034Z</time></trkpt><trkpt lat="43.48919" lon="12.0895183"><ele>331.57142857142856</ele><time>2026-04-23T17:56:05.046Z</time></trkpt><trkpt lat="43.4891383" lon="12.0895783"><ele>328.7142857142857</ele><time>2026-04-23T17:56:06.036Z</time></trkpt><trkpt lat="43.489085" lon="12.0896317"><ele>325.8571428571429</ele><time>2026-04-23T17:56:07.034Z</time></trkpt><trkpt lat="43.489025" lon="12.0896833"><ele>323.0</ele><time>2026-04-23T17:56:08.073Z</time></trkpt><trkpt lat="43.4889667" lon="12.0897333"><ele>323.00000000000006</ele><time>2026-04-23T17:56:09.036Z</time></trkpt><trkpt lat="43.4889083" lon="12.0897817"><ele>323.0</ele><time>2026-04-23T17:56:10.034Z</time></trkpt><trkpt lat="43.488845" lon="12.0898317"><ele>323.0</ele><time>2026-04-23T17:56:11.037Z</time></trkpt><trkpt lat="43.48878" lon="12.089885"><ele>323.0</ele><time>2026-04-23T17:56:12.038Z</time></trkpt><trkpt lat="43.48872" lon="12.0899383"><ele>323.0</ele><time>2026-04-23T17:56:13.02Z</time></trkpt><trkpt lat="43.48866" lon="12.0899883"><ele>323.00000000000006</ele><time>2026-04-23T17:56:14.061Z</time></trkpt><trkpt lat="43.4886033" lon="12.0900367"><ele>323.0</ele><time>2026-04-23T17:56:15.03Z</time></trkpt><trkpt lat="43.4885" lon="12.090115"><ele>320.6666666666667</ele><time>2026-04-23T17:56:17.037Z</time></trkpt><trkpt lat="43.48842" lon="12.090165"><ele>318.33333333333337</ele><time>2026-04-23T17:56:19.033Z</time></trkpt><trkpt lat="43.4883517" lon="12.0901317"><ele>316.0</ele><time>2026-04-23T17:56:21.035Z</time></trkpt><trkpt lat="43.4883117" lon="12.090035"><ele>313.6666666666667</ele><time>2026-04-23T17:56:23.03Z</time></trkpt><trkpt lat="43.4882633" lon="12.089955"><ele>311.3333333333333</ele><time>2026-04-23T17:56:25.036Z</time></trkpt><trkpt lat="43.4881817" lon="12.0899483"><ele>309.0</ele><time>2026-04-23T17:56:27.031Z</time></trkpt><trkpt lat="43.4880967" lon="12.0899667"><ele>309.0</ele><time>2026-04-23T17:56:29.032Z</time></trkpt><trkpt lat="43.488035" lon="12.0899917"><ele>309.0</ele><time>2026-04-23T17:56:31.033Z</time></trkpt><trkpt lat="43.48802" lon="12.0900933"><ele>309.0</ele><time>2026-04-23T17:56:34.037Z</time></trkpt><trkpt lat="43.48802" lon="12.090195"><ele>309.0</ele><time>2026-04-23T17:56:36.033Z</time></trkpt><trkpt lat="43.4880283" lon="12.0903167"><ele>309.0</ele><time>2026-04-23T17:56:38.079Z</time></trkpt><trkpt lat="43.4880367" lon="12.090445"><ele>309.0</ele><time>2026-04-23T17:56:40.018Z</time></trkpt><trkpt lat="43.4880483" lon="12.0905683"><ele>309.0</ele><time>2026-04-23T17:56:42.035Z</time></trkpt><trkpt lat="43.48805" lon="12.090685"><ele>309.0</ele><time>2026-04-23T17:56:44.076Z</time></trkpt><trkpt lat="43.4880283" lon="12.0908067"><ele>309.0</ele><time>2026-04-23T17:56:46.029Z</time></trkpt><trkpt lat="43.4880183" lon="12.09093"><ele>309.0</ele><time>2026-04-23T17:56:48.019Z</time></trkpt><trkpt lat="43.4880217" lon="12.09107"><ele>309.0</ele><time>2026-04-23T17:56:50.074Z</time></trkpt><trkpt lat="43.48803" lon="12.0912"><ele>309.0</ele><time>2026-04-23T17:56:52.035Z</time></trkpt><trkpt lat="43.488035" lon="12.0913283"><ele>309.0</ele><time>2026-04-23T17:56:54.036Z</time></trkpt><trkpt lat="43.488045" lon="12.0914467"><ele>309.0</ele><time>2026-04-23T17:56:56.079Z</time></trkpt><trkpt lat="43.4880233" lon="12.0915433"><ele>309.0</ele><time>2026-04-23T17:56:58.038Z</time></trkpt><trkpt lat="43.4879333" lon="12.0915583"><ele>309.0</ele><time>2026-04-23T17:57:00.032Z</time></trkpt><trkpt lat="43.4878283" lon="12.0915733"><ele>309.0</ele><time>2026-04-23T17:57:02.098Z</time></trkpt><trkpt lat="43.4877267" lon="12.0915883"><ele>308.0</ele><time>2026-04-23T17:57:04.033Z</time></trkpt><trkpt lat="43.4876267" lon="12.0916117"><ele>307.0</ele><time>2026-04-23T17:57:06.038Z</time></trkpt><trkpt lat="43.4875283" lon="12.0916533"><ele>306.0</ele><time>2026-04-23T17:57:08.082Z</time></trkpt><trkpt lat="43.48744" lon="12.09171"><ele>305.0</ele><time>2026-04-23T17:57:10.034Z</time></trkpt><trkpt lat="43.4873983" lon="12.0918167"><ele>304.0</ele><time>2026-04-23T17:57:12.042Z</time></trkpt><trkpt lat="43.4873917" lon="12.0919467"><ele>304.0</ele><time>2026-04-23T17:57:14.075Z</time></trkpt><trkpt lat="43.4874" lon="12.0920867"><ele>304.0</ele><time>2026-04-23T17:57:16.036Z</time></trkpt><trkpt lat="43.48741" lon="12.09223"><ele>304.0</ele><time>2026-04-23T17:57:18.034Z</time></trkpt><trkpt lat="43.4874217" lon="12.0923783"><ele>304.0</ele><time>2026-04-23T17:57:20.076Z</time></trkpt><trkpt lat="43.4874333" lon="12.0925317"><ele>304.0</ele><time>2026-04-23T17:57:22.032Z</time></trkpt><trkpt lat="43.4874433" lon="12.0926767"><ele>304.2</ele><time>2026-04-23T17:57:24.034Z</time></trkpt><trkpt lat="43.4874367" lon="12.0928117"><ele>304.4</ele><time>2026-04-23T17:57:26.1Z</time></trkpt><trkpt lat="43.4874033" lon="12.092945"><ele>304.6</ele><time>2026-04-23T17:57:28.033Z</time></trkpt><trkpt lat="43.4873467" lon="12.0930683"><ele>304.8</ele><time>2026-04-23T17:57:30.035Z</time></trkpt><trkpt lat="43.48727" lon="12.0931633"><ele>305.0</ele><time>2026-04-23T17:57:32.082Z</time></trkpt><trkpt lat="43.48718" lon="12.0932267"><ele>304.6</ele><time>2026-04-23T17:57:34.034Z</time></trkpt><trkpt lat="43.4870833" lon="12.0932433"><ele>304.2</ele><time>2026-04-23T17:57:36.037Z</time></trkpt><trkpt lat="43.48698" lon="12.0932433"><ele>303.8</ele><time>2026-04-23T17:57:38.077Z</time></trkpt><trkpt lat="43.4868883" lon="12.09329"><ele>303.4</ele><time>2026-04-23T17:57:40.031Z</time></trkpt><trkpt lat="43.4868467" lon="12.0934133"><ele>303.0</ele><time>2026-04-23T17:57:42.035Z</time></trkpt><trkpt lat="43.4868483" lon="12.09356"><ele>303.0</ele><time>2026-04-23T17:57:44.076Z</time></trkpt><trkpt lat="43.4868633" lon="12.09371"><ele>303.0</ele><time>2026-04-23T17:57:46.036Z</time></trkpt><trkpt lat="43.48688" lon="12.0938583"><ele>303.0</ele><time>2026-04-23T17:57:48.036Z</time></trkpt><trkpt lat="43.486895" lon="12.0940067"><ele>303.0</ele><time>2026-04-23T17:57:50.075Z</time></trkpt><trkpt lat="43.48691" lon="12.09414"><ele>303.0</ele><time>2026-04-23T17:57:52.038Z</time></trkpt><trkpt lat="43.48692" lon="12.0942683"><ele>302.0</ele><time>2026-04-23T17:57:54.031Z</time></trkpt><trkpt lat="43.4869183" lon="12.09439"><ele>302.0</ele><time>2026-04-23T17:57:56.033Z</time></trkpt><trkpt lat="43.486915" lon="12.094505"><ele>302.0</ele><time>2026-04-23T17:57:58.039Z</time></trkpt><trkpt lat="43.4869067" lon="12.0946117"><ele>302.0</ele><time>2026-04-23T17:58:01.032Z</time></trkpt><trkpt lat="43.4870067" lon="12.0946133"><ele>302.0</ele><time>2026-04-23T17:58:27.014Z</time></trkpt></trkseg></trk></gpx>